[[{"header":{"parameterUnit":"m.s-1","parameterCategory":1,"la1":30.6,"la2":29.2853,"lo1":-89.7004,"lo2":-87.6739,"dy":0.0162,"dx":0.0183,"nx":112,"ny":82,"refTime":"2023-09-11T06:00:00:Z","depth":0,"parameterNumber":2,"parameterNumberName":"U-component_of_WINDS"},"data":[0.0,0.0,0.0,0.0,0.0,0.0,0.0,0.0,0.0,0.0,0.0,0.0,0.0,0.0,0.0,0.0,0.0,0.0,0.0,0.0,0.0,0.0,0.0,0.0,0.0,0.0,0.0,0.0,0.0,0.0,0.0,0.0,0.0,0.0,0.0,0.0,0.0,0.0,0.0,0.0,0.0,0.0,0.0,0.0,0.0,0.0,0.0,0.0,0.0,0.0,0.0,0.0,0.0,0.0,0.0,0.0,0.0,0.0,0.0,0.0,0.0,0.0,0.0,0.0,0.0,0.0,0.0,0.0,0.0,0.0,0.0,0.0,0.0,0.0,0.0,0.0,0.0,0.0,0.0,0.0,0.0,0.0,0.0,0.0,0.0,0.0,0.0,0.0,0.0,0.0,-3.519,-3.739,-3.821,-3.786,-3.5976,-3.66,-3.6235,-3.4254,0.0,0.0,0.0,0.0,0.0,0.0,0.0,0.0,0.0,0.0,0.0,0.0,0.0,0.0,0.0,0.0,0.0,0.0,0.0,0.0,0.0,0.0,0.0,0.0,0.0,0.0,0.0,0.0,0.0,0.0,0.0,0.0,0.0,0.0,0.0,0.0,0.0,0.0,0.0,0.0,0.0,0.0,0.0,0.0,0.0,0.0,0.0,0.0,0.0,0.0,0.0,0.0,0.0,0.0,0.0,0.0,0.0,0.0,0.0,0.0,0.0,0.0,0.0,0.0,0.0,0.0,0.0,0.0,0.0,0.0,0.0,0.0,0.0,0.0,0.0,0.0,0.0,0.0,0.0,0.0,0.0,0.0,0.0,0.0,0.0,0.0,0.0,0.0,0.0,0.0,0.0,0.0,0.0,0.0,0.0,0.0,0.0,0.0,0.0,0.0,0.0,0.0,0.0,0.0,-3.5486,-3.7924,-3.878,-3.8523,-3.6914,-3.7487,-3.7016,-3.4893,0.0,0.0,0.0,0.0,0.0,0.0,0.0,0.0,0.0,0.0,0.0,0.0,0.0,0.0,0.0,0.0,0.0,0.0,0.0,0.0,0.0,0.0,0.0,0.0,0.0,0.0,0.0,0.0,0.0,0.0,0.0,0.0,0.0,0.0,0.0,0.0,0.0,0.0,0.0,0.0,0.0,0.0,0.0,0.0,0.0,0.0,0.0,0.0,0.0,0.0,0.0,0.0,0.0,0.0,0.0,0.0,0.0,0.0,0.0,0.0,0.0,0.0,0.0,0.0,0.0,0.0,0.0,0.0,0.0,0.0,0.0,0.0,0.0,0.0,0.0,0.0,0.0,0.0,0.0,0.0,0.0,0.0,0.0,0.0,0.0,0.0,0.0,0.0,0.0,0.0,0.0,0.0,0.0,0.0,0.0,0.0,0.0,0.0,0.0,0.0,0.0,0.0,0.0,-3.5281,-3.6695,-3.7743,-3.8882,-3.9053,-3.78,-3.8374,-3.7943,-3.591,-3.5448,0.0,0.0,0.0,0.0,0.0,0.0,0.0,0.0,0.0,0.0,0.0,0.0,0.0,0.0,0.0,0.0,0.0,0.0,0.0,0.0,0.0,0.0,0.0,0.0,0.0,0.0,0.0,0.0,0.0,0.0,0.0,0.0,0.0,0.0,0.0,0.0,0.0,0.0,0.0,0.0,0.0,0.0,0.0,0.0,0.0,0.0,0.0,0.0,0.0,0.0,0.0,0.0,0.0,0.0,0.0,0.0,0.0,0.0,0.0,0.0,0.0,0.0,0.0,0.0,0.0,0.0,0.0,0.0,0.0,0.0,0.0,0.0,0.0,0.0,0.0,0.0,0.0,0.0,0.0,0.0,0.0,0.0,0.0,0.0,0.0,0.0,0.0,0.0,0.0,0.0,0.0,0.0,0.0,0.0,0.0,0.0,0.0,0.0,0.0,0.0,0.0,0.0,-3.6547,-3.799,-3.7992,-3.925,-3.9682,-3.8711,-3.9029,-3.8478,-3.661,-3.6419,0.0,0.0,0.0,0.0,0.0,0.0,0.0,0.0,0.0,0.0,0.0,0.0,0.0,0.0,0.0,0.0,0.0,0.0,0.0,0.0,0.0,0.0,0.0,0.0,0.0,0.0,0.0,0.0,0.0,0.0,0.0,0.0,0.0,0.0,0.0,0.0,0.0,0.0,0.0,0.0,0.0,0.0,0.0,0.0,0.0,0.0,0.0,0.0,0.0,0.0,0.0,0.0,0.0,0.0,0.0,0.0,0.0,0.0,0.0,0.0,0.0,0.0,0.0,0.0,0.0,0.0,0.0,0.0,0.0,0.0,0.0,0.0,0.0,0.0,0.0,0.0,0.0,0.0,0.0,0.0,0.0,0.0,0.0,0.0,0.0,0.0,0.0,0.0,0.0,0.0,0.0,0.0,0.0,0.0,0.0,0.0,0.0,0.0,0.0,0.0,0.0,0.0,-3.6976,-3.9051,-3.9408,-4.0322,-4.0564,-3.9689,-3.9195,-3.8207,-3.6501,-3.6335,0.0,0.0,0.0,0.0,0.0,0.0,0.0,0.0,0.0,0.0,0.0,0.0,0.0,0.0,0.0,0.0,0.0,0.0,0.0,0.0,0.0,0.0,0.0,0.0,0.0,0.0,0.0,0.0,0.0,0.0,0.0,0.0,0.0,0.0,0.0,0.0,0.0,0.0,0.0,0.0,0.0,0.0,0.0,0.0,0.0,0.0,0.0,0.0,0.0,0.0,0.0,0.0,0.0,0.0,0.0,0.0,0.0,0.0,0.0,0.0,0.0,0.0,0.0,0.0,0.0,0.0,0.0,0.0,0.0,0.0,0.0,0.0,0.0,0.0,0.0,0.0,0.0,0.0,0.0,0.0,0.0,0.0,0.0,0.0,0.0,0.0,0.0,0.0,0.0,0.0,0.0,0.0,0.0,0.0,0.0,0.0,0.0,0.0,0.0,0.0,0.0,0.0,-3.7375,-3.9141,-3.9563,-4.045,-4.0879,-4.0539,-4.0243,-3.9327,-3.75,0.0,0.0,0.0,0.0,0.0,0.0,0.0,0.0,0.0,0.0,0.0,0.0,0.0,0.0,0.0,0.0,0.0,0.0,0.0,0.0,0.0,0.0,0.0,0.0,0.0,0.0,0.0,0.0,0.0,0.0,0.0,0.0,0.0,0.0,0.0,0.0,0.0,0.0,0.0,0.0,0.0,0.0,0.0,0.0,0.0,0.0,0.0,0.0,0.0,0.0,0.0,0.0,0.0,0.0,0.0,0.0,0.0,0.0,0.0,0.0,0.0,0.0,0.0,0.0,0.0,0.0,0.0,0.0,0.0,0.0,0.0,0.0,0.0,0.0,0.0,0.0,0.0,0.0,0.0,0.0,0.0,0.0,0.0,0.0,0.0,0.0,0.0,0.0,0.0,0.0,0.0,0.0,0.0,0.0,0.0,0.0,0.0,0.0,0.0,0.0,0.0,0.0,-3.5588,-3.7356,-3.8735,-3.9138,-4.0281,-4.0917,-4.0634,-4.0181,-3.9368,-3.8112,0.0,0.0,0.0,0.0,0.0,0.0,0.0,0.0,0.0,0.0,0.0,0.0,0.0,0.0,0.0,0.0,0.0,0.0,0.0,0.0,0.0,0.0,0.0,0.0,0.0,0.0,0.0,0.0,0.0,0.0,0.0,0.0,0.0,0.0,0.0,0.0,0.0,0.0,0.0,0.0,0.0,0.0,0.0,0.0,0.0,0.0,0.0,0.0,0.0,0.0,0.0,0.0,0.0,0.0,0.0,0.0,0.0,0.0,0.0,0.0,0.0,0.0,0.0,0.0,0.0,0.0,0.0,0.0,0.0,0.0,0.0,0.0,0.0,0.0,0.0,0.0,0.0,0.0,0.0,0.0,0.0,0.0,0.0,0.0,0.0,0.0,0.0,0.0,0.0,0.0,0.0,0.0,0.0,0.0,0.0,0.0,0.0,0.0,0.0,0.0,0.0,0.0,-3.5597,-3.6872,-3.7846,-3.8251,-3.9953,-4.0718,-3.9861,-3.8694,-3.8037,0.0,0.0,0.0,0.0,0.0,0.0,0.0,0.0,0.0,0.0,0.0,0.0,0.0,0.0,0.0,0.0,0.0,0.0,0.0,0.0,0.0,0.0,0.0,0.0,0.0,0.0,0.0,0.0,0.0,0.0,0.0,0.0,0.0,0.0,0.0,0.0,0.0,0.0,0.0,0.0,0.0,0.0,0.0,0.0,0.0,0.0,0.0,0.0,0.0,0.0,0.0,0.0,0.0,0.0,0.0,0.0,0.0,0.0,0.0,0.0,0.0,0.0,0.0,0.0,0.0,0.0,0.0,0.0,0.0,0.0,0.0,0.0,0.0,0.0,0.0,0.0,0.0,0.0,0.0,0.0,0.0,0.0,0.0,0.0,0.0,0.0,0.0,0.0,0.0,0.0,0.0,0.0,0.0,0.0,0.0,0.0,0.0,0.0,0.0,0.0,0.0,0.0,0.0,-3.5551,-3.6872,-3.7894,-3.8205,-3.8812,-3.9117,-3.8905,-3.8561,-3.8085,-3.7432,0.0,0.0,0.0,0.0,0.0,0.0,0.0,0.0,0.0,0.0,0.0,0.0,0.0,0.0,0.0,0.0,0.0,0.0,0.0,0.0,0.0,0.0,0.0,0.0,0.0,0.0,0.0,0.0,0.0,0.0,0.0,0.0,0.0,0.0,0.0,0.0,0.0,0.0,0.0,0.0,0.0,0.0,0.0,0.0,0.0,0.0,0.0,0.0,0.0,0.0,0.0,0.0,0.0,0.0,0.0,0.0,0.0,0.0,0.0,0.0,0.0,0.0,0.0,0.0,0.0,0.0,0.0,0.0,0.0,0.0,0.0,0.0,0.0,0.0,0.0,0.0,0.0,0.0,0.0,0.0,0.0,0.0,0.0,0.0,0.0,0.0,0.0,0.0,0.0,0.0,0.0,0.0,0.0,0.0,0.0,0.0,0.0,0.0,0.0,0.0,0.0,0.0,-3.5117,-3.6083,-3.6844,-3.7126,-3.7583,-3.7901,-3.7985,-3.8102,-3.7879,-3.7178,0.0,0.0,0.0,0.0,0.0,0.0,0.0,0.0,0.0,0.0,0.0,0.0,0.0,0.0,0.0,0.0,0.0,0.0,0.0,0.0,0.0,0.0,0.0,0.0,0.0,0.0,0.0,0.0,0.0,0.0,0.0,0.0,0.0,0.0,0.0,0.0,0.0,0.0,0.0,0.0,0.0,0.0,0.0,0.0,0.0,0.0,0.0,0.0,0.0,0.0,0.0,0.0,0.0,0.0,0.0,0.0,0.0,0.0,0.0,0.0,0.0,0.0,0.0,0.0,0.0,0.0,0.0,0.0,0.0,0.0,0.0,0.0,0.0,0.0,0.0,0.0,0.0,0.0,0.0,0.0,0.0,0.0,0.0,0.0,0.0,0.0,0.0,0.0,0.0,0.0,0.0,0.0,0.0,0.0,0.0,0.0,0.0,0.0,0.0,0.0,0.0,0.0,-3.4384,-3.4831,-3.522,-3.5549,-3.6417,-3.6991,-3.7072,-3.7361,-3.74,-3.7103,0.0,0.0,0.0,0.0,0.0,0.0,0.0,0.0,0.0,0.0,0.0,0.0,0.0,0.0,0.0,0.0,0.0,0.0,0.0,0.0,0.0,0.0,0.0,0.0,0.0,0.0,0.0,0.0,0.0,0.0,0.0,0.0,0.0,0.0,0.0,0.0,0.0,0.0,0.0,0.0,0.0,0.0,0.0,0.0,0.0,0.0,0.0,0.0,0.0,0.0,0.0,0.0,0.0,0.0,0.0,0.0,0.0,0.0,0.0,0.0,-3.4531,0.0,0.0,0.0,0.0,0.0,0.0,0.0,0.0,0.0,0.0,0.0,0.0,0.0,0.0,0.0,0.0,0.0,0.0,0.0,0.0,0.0,0.0,0.0,0.0,0.0,0.0,0.0,0.0,0.0,0.0,0.0,0.0,0.0,0.0,0.0,0.0,0.0,0.0,0.0,0.0,0.0,-3.337,-3.4358,-3.513,-3.5406,-3.5786,-3.6059,-3.6174,-3.6238,-3.6256,-3.6189,-3.5996,0.0,0.0,0.0,0.0,0.0,0.0,0.0,0.0,0.0,0.0,0.0,0.0,0.0,0.0,0.0,0.0,0.0,0.0,0.0,0.0,0.0,0.0,0.0,0.0,0.0,0.0,0.0,0.0,0.0,0.0,0.0,0.0,0.0,0.0,0.0,0.0,0.0,0.0,0.0,0.0,0.0,0.0,0.0,0.0,0.0,0.0,0.0,0.0,0.0,0.0,0.0,0.0,0.0,0.0,0.0,0.0,0.0,0.0,0.0,0.0,-3.4824,0.0,0.0,0.0,0.0,0.0,0.0,0.0,0.0,0.0,0.0,0.0,0.0,0.0,0.0,0.0,0.0,0.0,0.0,0.0,0.0,0.0,0.0,0.0,0.0,0.0,0.0,0.0,0.0,0.0,0.0,0.0,0.0,0.0,0.0,0.0,0.0,0.0,0.0,0.0,0.0,-3.3101,-3.4186,-3.5022,-3.5324,-3.5529,-3.5702,-3.5846,-3.5844,-3.5851,-3.5851,-3.5843,0.0,0.0,0.0,0.0,0.0,0.0,0.0,0.0,0.0,0.0,0.0,0.0,0.0,0.0,0.0,0.0,0.0,0.0,0.0,0.0,0.0,0.0,0.0,0.0,0.0,0.0,0.0,0.0,0.0,0.0,0.0,0.0,0.0,0.0,0.0,0.0,0.0,0.0,0.0,0.0,0.0,0.0,0.0,0.0,0.0,0.0,0.0,0.0,0.0,0.0,0.0,0.0,0.0,-3.4035,-3.4039,-3.3997,-3.4156,-3.4262,-3.4334,-3.4624,-3.4967,-3.5275,-3.458,0.0,0.0,0.0,0.0,0.0,0.0,0.0,0.0,0.0,0.0,0.0,0.0,0.0,0.0,0.0,0.0,0.0,0.0,0.0,0.0,0.0,0.0,0.0,0.0,-2.833,-2.7989,-2.8164,0.0,0.0,0.0,0.0,0.0,0.0,0.0,0.0,0.0,0.0,0.0,-3.2717,-3.3823,-3.4679,-3.4998,-3.5342,-3.5623,-3.576,-3.5772,-3.5783,-3.5774,-3.5778,-3.5778,0.0,0.0,0.0,0.0,0.0,0.0,0.0,0.0,0.0,0.0,0.0,0.0,0.0,0.0,0.0,0.0,0.0,0.0,0.0,0.0,0.0,0.0,0.0,0.0,0.0,0.0,0.0,0.0,0.0,0.0,0.0,0.0,-3.03,-3.1531,0.0,0.0,0.0,0.0,0.0,0.0,0.0,0.0,0.0,0.0,0.0,0.0,0.0,-3.1086,-3.0737,-3.1292,-3.1648,-3.1808,-3.194,-3.1987,-3.1994,-3.2251,-3.2358,-3.2368,-3.2475,0.0,-3.5053,-3.5055,0.0,0.0,0.0,0.0,0.0,0.0,0.0,0.0,0.0,0.0,0.0,0.0,0.0,0.0,0.0,0.0,0.0,0.0,0.0,0.0,0.0,0.0,-2.7957,-2.7893,-2.7748,-2.7674,0.0,-2.8144,-2.8519,-2.8605,-2.8771,0.0,0.0,0.0,0.0,0.0,0.0,0.0,-3.0905,-3.2487,-3.3686,-3.3965,-3.4858,-3.5489,-3.5604,-3.5683,-3.5689,-3.563,-3.5689,-3.5694,-3.5626,-3.5694,0.0,0.0,0.0,0.0,0.0,0.0,0.0,0.0,0.0,0.0,0.0,0.0,0.0,0.0,0.0,0.0,0.0,0.0,0.0,0.0,0.0,0.0,0.0,0.0,0.0,0.0,0.0,0.0,0.0,-2.8925,-3.0325,-3.1079,-3.1286,-3.1011,0.0,0.0,0.0,0.0,0.0,0.0,0.0,0.0,0.0,-3.1426,-3.022,-2.9489,-2.9332,-3.0046,-3.0711,-3.129,-3.1359,-3.1403,-3.1489,-3.1684,-3.1782,-3.1775,-3.1896,-3.2416,-3.3226,-3.3421,-3.3476,-3.3355,0.0,0.0,0.0,0.0,-3.0306,-3.0161,-2.9802,-2.9598,-2.9455,-2.9435,0.0,0.0,0.0,0.0,0.0,0.0,0.0,0.0,0.0,0.0,-2.7868,-2.7549,-2.7545,-2.7615,-2.7686,-2.7847,-2.8031,0.0,-2.8905,-2.9435,-2.9619,0.0,0.0,0.0,0.0,-3.01,-3.0291,-3.1994,-3.3245,-3.344,-3.4501,-3.5228,-3.5357,-3.547,-3.5515,-3.5489,-3.5477,-3.5676,-3.6138,-3.5714,-3.5921,0.0,0.0,0.0,0.0,0.0,0.0,0.0,0.0,0.0,0.0,0.0,0.0,0.0,0.0,0.0,0.0,0.0,0.0,0.0,0.0,0.0,0.0,0.0,0.0,0.0,0.0,0.0,0.0,-2.9034,-2.9796,-3.034,-3.0881,-3.0871,0.0,0.0,0.0,0.0,0.0,0.0,-3.0749,-3.0236,-2.9984,-3.0074,-2.8859,-2.8235,-2.8293,-2.8977,-2.9705,-3.0457,-3.0483,-3.0573,-3.0699,-3.0833,-3.0904,-3.0923,-3.102,-3.1077,-3.1136,-3.1836,-3.2116,-3.2049,-3.144,-3.1185,-3.108,-3.0237,-2.986,-2.9741,-2.9528,-2.9304,-2.9112,-2.909,-2.8996,-2.8887,-2.892,0.0,0.0,0.0,0.0,-2.8124,-2.7986,-2.7906,-2.7774,-2.745,-2.7409,-2.7481,-2.7552,-2.7582,-2.7669,0.0,-2.8834,-2.9308,-2.8853,0.0,0.0,0.0,0.0,-2.9489,-2.9691,-3.1347,-3.2607,-3.2812,-3.4063,-3.4944,-3.5119,-3.5227,-3.5308,-3.5292,-3.5239,-3.5514,-3.6135,-3.5553,-3.5681,-3.6678,0.0,0.0,0.0,0.0,0.0,0.0,0.0,0.0,0.0,0.0,0.0,0.0,0.0,0.0,0.0,0.0,0.0,0.0,0.0,0.0,0.0,0.0,0.0,0.0,0.0,0.0,0.0,0.0,0.0,-3.0017,-2.9546,0.0,0.0,0.0,0.0,-2.8441,-2.7168,-2.6601,-2.7126,-2.7302,-2.7442,-2.7579,-2.7789,-2.7869,-2.7733,-2.8109,-2.8331,-2.8452,-2.858,-2.867,-2.8752,-2.8943,-2.9038,-2.9038,-2.9115,-2.9138,-2.929,-3.1154,-3.1874,-3.182,-3.1775,-3.1712,-3.1551,-3.063,-3.0277,-3.0143,-2.932,-2.8975,-2.8899,-2.8846,-2.87,-2.8505,-2.8458,-2.838,0.0,0.0,-2.8028,-2.7986,-2.7917,-2.7665,-2.7452,-2.7563,-2.7297,-2.7072,-2.7198,-2.7228,-2.735,0.0,-2.8049,-2.8229,-2.8389,0.0,-2.8214,-2.8228,-2.8313,-2.846,-2.8661,-3.0157,-3.1366,-3.1812,-3.3454,-3.4624,-3.4889,-3.4981,-3.5016,-3.501,-3.5027,-3.5009,-3.4993,-3.5,-3.546,-3.6407,-3.5638,0.0,0.0,0.0,0.0,0.0,0.0,0.0,0.0,0.0,0.0,0.0,0.0,0.0,0.0,0.0,0.0,0.0,0.0,0.0,0.0,0.0,0.0,0.0,0.0,0.0,0.0,0.0,0.0,-2.9794,-2.9444,0.0,-2.9135,-2.8403,-2.7918,-2.7954,-2.7532,-2.7215,-2.7105,-2.7484,-2.7454,-2.6837,-2.7142,-2.7282,-2.7201,-2.7648,-2.789,-2.7918,-2.8191,-2.834,-2.8419,-2.8569,-2.8644,-2.8644,-2.8712,-2.8724,-2.8736,-2.9466,-2.9836,-2.9936,-2.989,-2.9848,-2.9787,-2.9405,-2.9278,-2.9223,-2.8913,-2.8712,-2.8562,-2.844,-2.834,-2.8232,-2.815,-2.8081,-2.795,-2.7795,-2.7739,-2.7729,-2.7604,-2.743,-2.7288,-2.7329,-2.7201,-2.7053,-2.7033,-2.7115,-2.7258,-2.7535,-2.7704,-2.7806,-2.7936,-2.7914,-2.7868,-2.7826,-2.784,-2.7908,-2.8055,-2.9617,-3.083,-3.1123,-3.2851,-3.4111,-3.4424,-3.4588,-3.4762,-3.4927,-3.4841,-3.5038,-3.5586,-3.5094,-3.5238,-3.6122,-3.5353,-3.5132,0.0,0.0,0.0,0.0,0.0,0.0,0.0,0.0,0.0,0.0,0.0,0.0,0.0,0.0,0.0,0.0,0.0,0.0,0.0,0.0,0.0,0.0,0.0,0.0,0.0,-2.7901,-2.8395,-2.8567,-2.8469,-2.8259,-2.7878,-2.7552,-2.728,-2.7068,-2.6981,-2.6824,-2.6606,-2.6995,-2.6945,-2.6351,-2.6707,-2.6736,-2.6365,-2.7118,-2.7382,-2.718,-2.768,-2.7979,-2.8077,-2.8169,-2.8081,-2.7799,-2.7852,-2.7892,-2.7923,-2.7962,-2.8065,-2.8202,-2.8318,-2.8342,-2.8294,-2.7997,-2.7888,-2.7919,-2.8019,-2.7923,-2.7794,-2.7971,-2.7929,-2.7725,-2.7397,-2.7254,-2.7183,-2.7111,-2.73,-2.7491,-2.7355,-2.7192,-2.703,-2.7089,-2.7008,-2.6924,-2.6988,-2.7005,-2.7054,-2.7277,-2.7481,-2.7585,-2.753,-2.7587,-2.7592,-2.745,-2.7474,-2.7542,-2.7659,-2.8991,-3.0119,-3.0607,-3.2089,-3.33,-3.3917,-3.3942,-3.4125,-3.4601,-3.4309,-3.4534,-3.5469,-3.4864,-3.4827,-3.5453,-3.4827,-3.4797,-3.5405,0.0,0.0,0.0,0.0,0.0,0.0,0.0,0.0,0.0,0.0,0.0,0.0,0.0,0.0,0.0,0.0,0.0,0.0,0.0,0.0,0.0,0.0,0.0,-2.5075,-2.5836,-2.6339,-2.6377,-2.6466,-2.6548,-2.6557,-2.6006,-2.5691,-2.5743,-2.5285,-2.5103,-2.5359,-2.5554,-2.5758,-2.5974,-2.6402,-2.6185,-2.5297,-2.6466,-2.6721,-2.6085,-2.6968,-2.7474,-2.7597,-2.7654,-2.7201,-2.639,-2.6426,-2.657,-2.6743,-2.6756,-2.6756,-2.6797,-2.7278,-2.7405,-2.7248,-2.6522,-2.6266,-2.6317,-2.6626,-2.6619,-2.6618,-2.74,-2.7423,-2.6992,-2.6148,-2.5913,-2.5983,-2.6074,-2.6703,-2.7345,-2.7225,-2.6951,-2.6722,-2.686,-2.6674,-2.6605,-2.7078,-2.686,-2.6725,-2.7119,-2.7402,-2.7478,-2.7246,-2.736,-2.7393,-2.7135,-2.7217,0.0,-2.7373,-2.8206,-2.9189,-3.0231,-3.1181,-3.2205,-3.3334,-3.3028,-3.3136,-3.4031,-3.3401,-3.3445,-3.4435,-3.4281,-3.4245,-3.4363,-3.4037,-3.4602,-3.6084,0.0,0.0,0.0,0.0,0.0,0.0,0.0,0.0,0.0,0.0,0.0,0.0,0.0,0.0,0.0,0.0,0.0,0.0,0.0,0.0,0.0,-2.2097,-2.2536,-2.4285,-2.4702,-2.5084,-2.5818,-2.5538,-2.5375,-2.556,-2.5037,-2.4741,-2.4844,-2.4775,-2.4791,-2.4954,-2.4598,-2.4796,-2.5682,-2.485,-2.4543,-2.4855,-2.5531,-2.5713,-2.5395,-2.6802,-2.7384,-2.7227,-2.6902,-2.6551,-2.6157,-2.5646,-2.5446,-2.5502,-2.56,-2.5534,-2.5447,-2.6415,-2.6383,-2.5769,-2.5459,-2.5362,-2.5353,-2.5401,-2.5697,-2.6098,-2.6323,-2.6218,-2.599,-2.5751,-2.542,-2.5238,-2.574,-2.6197,-2.6621,-2.7026,-2.6938,-2.6723,-2.6556,-2.6437,-2.6399,-2.6589,-2.6606,-2.6623,-2.6742,-2.6857,-2.6971,-2.7039,-2.7136,-2.7168,-2.7056,-2.7186,0.0,-2.7121,-2.792,-2.8618,-2.892,-2.9777,-3.0838,-3.2023,-3.2043,-3.2504,-3.3665,-3.3491,-3.3513,-3.3834,-3.3837,-3.3757,-3.3616,-3.3421,-3.3473,0.0,0.0,0.0,0.0,0.0,0.0,0.0,0.0,0.0,0.0,0.0,0.0,0.0,0.0,0.0,0.0,0.0,0.0,0.0,0.0,0.0,0.0,-2.0444,-2.0687,-2.1995,-2.2658,-2.3288,-2.3987,-2.3655,-2.3496,-2.3833,-2.3643,-2.3557,-2.3646,-2.4086,-2.4385,-2.4467,-2.3998,-2.41,-2.4855,-2.3819,-2.3358,-2.3608,-2.4179,-2.4314,-2.3984,-2.5259,-2.5809,-2.5711,-2.5382,-2.4993,-2.4563,-2.4199,-2.4117,-2.4252,-2.4382,-2.4342,0.0,0.0,0.0,0.0,0.0,-2.4146,-2.4322,-2.425,-2.4424,-2.4829,-2.5724,-2.5477,-2.4845,-2.4812,-2.4592,-2.4403,-2.4724,-2.527,-2.592,-2.6555,-2.6641,-2.6487,-2.6198,-2.6142,-2.6189,-2.6399,-2.6399,-2.6399,-2.6606,-2.6607,0.0,-2.6759,-2.6808,-2.6839,-2.6858,-2.6974,-2.7024,-2.6975,-2.7482,-2.8111,-2.8799,-2.9398,-3.0326,-3.1728,-3.1706,0.0,0.0,0.0,-3.2937,-3.3292,-3.34,0.0,0.0,0.0,-3.2855,-3.308,0.0,0.0,0.0,-3.323,-3.2633,0.0,0.0,0.0,0.0,0.0,0.0,0.0,0.0,0.0,0.0,0.0,0.0,0.0,0.0,0.0,0.0,-1.9311,-1.9057,-1.9052,-2.0218,-2.1224,-2.165,-2.1504,-2.1522,-2.186,-2.2205,-2.2397,-2.2435,-2.3357,-2.3873,-2.3797,-2.3488,0.0,0.0,0.0,-2.2397,-2.2042,-2.2704,-2.2791,-2.2328,-2.3192,-2.3652,-2.3719,-2.352,-2.3062,-2.2427,-2.2475,-2.2695,-2.2973,-2.311,-2.3108,-2.3076,-2.3562,-2.3642,-2.3386,-2.2798,-2.2872,-2.3279,-2.3135,0.0,0.0,-2.5163,-2.4862,-2.3735,-2.3669,-2.3669,-2.3669,-2.3555,-2.4331,-2.5345,-2.6007,-2.6171,-2.6118,-2.5886,-2.5848,-2.5972,-2.6363,-2.6205,-2.6118,-2.6539,-2.6486,-2.6379,-2.6468,-2.6488,-2.6556,-2.6674,-2.6708,-2.6792,-2.6978,-2.711,-2.7772,-2.93,0.0,0.0,-3.1777,-3.1502,-3.1655,-3.2537,-3.213,-3.2141,-3.2822,-3.2929,-3.2929,-3.2809,-3.2419,-3.2494,-3.3103,-3.2204,-3.209,-3.2727,-3.2369,-3.2161,0.0,0.0,0.0,0.0,0.0,0.0,0.0,0.0,0.0,0.0,0.0,0.0,0.0,0.0,0.0,-1.8537,-1.8436,-1.8248,-1.8023,-1.862,-1.9542,-2.0845,-2.1129,-2.1252,-2.1277,-2.1866,-2.2141,-2.1953,-2.2783,-2.3083,-2.2651,-2.2259,-2.2235,-2.2592,-2.127,-2.0892,-2.1612,-2.186,-2.1914,-2.1771,0.0,0.0,-2.3205,-2.2648,-2.2227,-2.1912,-2.1504,-2.1423,-2.1581,-2.1675,-2.1565,-2.1472,-2.2469,-2.2764,-2.2621,-2.2489,-2.2506,-2.2507,-2.1949,-2.2098,-2.259,-2.3063,-2.329,-2.3378,-2.3378,-2.3447,0.0,-2.422,-2.4724,-2.5261,-2.5939,-2.6085,-2.603,-2.5957,-2.5848,-2.5791,-2.5972,-2.597,-2.5954,-2.61,-2.61,-2.6134,-2.6312,-2.6521,-2.6641,-2.6623,-2.6758,-2.7062,-2.7571,-2.7742,-2.8169,-2.909,-2.9156,-2.9382,-2.9972,-2.9885,-3.0264,-3.1353,-3.1928,-3.2261,-3.242,-3.2335,-3.2283,-3.2266,-3.1912,-3.1797,-3.1935,-3.1682,-3.1642,-3.1779,-3.1759,-3.1765,0.0,0.0,0.0,0.0,0.0,0.0,0.0,0.0,0.0,0.0,0.0,-1.8035,-1.7841,0.0,-1.758,-1.7731,-1.7573,-1.7462,-1.7457,-1.7611,-1.8271,-1.9734,-2.0101,-2.0316,-2.0495,-2.1019,-2.1365,-2.136,-2.2161,-2.2427,-2.1939,-2.1491,-2.1302,-2.139,-2.0254,-1.9999,-2.0744,-2.0622,-2.0589,-2.0698,-2.1305,-2.1598,-2.1596,-2.1221,-2.1014,-2.0928,-2.0771,-2.0746,-2.0795,-2.0861,-2.0893,-2.094,-2.1706,-2.2061,-2.2112,-2.1743,-2.1857,-2.2082,-2.136,-2.1376,-2.1842,-2.2483,-2.2736,-2.2923,-2.3875,-2.3939,-2.3845,-2.4586,-2.4991,-2.5281,-2.5621,-2.5682,-2.5661,-2.5694,-2.5621,-2.5586,-2.5731,-2.5805,-2.586,-2.5885,-2.6007,-2.6112,-2.6136,-2.6331,-2.647,-2.6537,-2.664,-2.6826,-2.7199,-2.7691,-2.8151,-2.8561,-2.9257,-2.9772,-2.9934,-3.0278,-3.0764,-3.141,-3.1864,-3.2073,-3.2055,-3.202,-3.1948,-3.1839,-3.1673,-3.156,-3.1449,-3.1426,-3.1406,-3.1406,-3.1428,-3.1598,0.0,0.0,0.0,0.0,0.0,0.0,0.0,-1.677,-1.667,-1.726,-1.714,-1.6976,-1.714,-1.7095,-1.7028,-1.6994,-1.687,-1.6832,-1.7045,-1.7028,-1.7418,-1.8521,-1.8989,-1.933,-1.964,-2.0152,-2.0492,-2.0585,-2.1463,-2.1713,-2.1072,-2.082,-2.0538,-2.018,-1.9566,-1.9431,-1.9848,-1.956,-1.9527,-1.9749,-1.9708,-1.9797,-2.001,-1.9919,-1.9919,-1.9993,-2.0204,-2.0275,-2.0275,-2.0376,-2.0478,-2.0642,-2.098,-2.1286,-2.1481,-2.1073,-2.1347,-2.1812,-2.0998,-2.0826,-2.1145,-2.2278,-2.2463,-2.2575,-2.4227,-2.4404,-2.4153,-2.4761,-2.5073,-2.5197,-2.5197,-2.5256,-2.5314,-2.5381,-2.5407,-2.547,-2.5578,-2.5691,-2.5768,-2.5777,-2.5968,-2.6074,-2.6008,-2.6085,-2.6227,-2.6434,-2.6468,-2.6588,-2.6826,-2.7487,-2.8065,-2.8441,-2.9565,-3.0316,-3.0354,-3.0975,-3.1392,-3.1484,-3.1696,-3.1784,-3.1709,-3.1784,-3.1747,-3.1579,-3.156,-3.1449,-3.1295,-3.1293,-3.1293,-3.1293,-3.1293,-3.1485,-1.3461,-1.4415,-1.5331,-1.5486,-1.5747,-1.5879,0.0,-1.5652,-1.5607,-1.5235,-1.5716,-1.6092,-1.5723,-1.6058,-1.6371,-1.6257,-1.6457,-1.6627,-1.6655,-1.687,-1.7095,-1.7374,-1.8274,-1.8842,-1.8834,-1.9673,-2.0015,-1.952,-2.062,-2.0737,-1.9432,-2.0006,-1.9941,-1.9023,-1.9008,-1.9149,-1.9376,-1.9395,-1.9468,-1.9629,-1.9611,-1.9629,-1.9647,-1.9523,-1.9468,-1.9487,-1.9749,-1.9859,-1.9877,-2.0065,-2.0063,-1.9937,-2.0084,-2.0183,-2.0299,-2.1054,-2.1461,-2.1534,-2.0712,-2.046,-2.0598,-2.1414,-2.202,-2.2624,-2.3498,-2.4123,-2.4556,-2.4623,-2.4751,-2.4862,-2.4862,-2.508,-2.5294,-2.5314,-2.5464,-2.5578,-2.5597,-2.5616,-2.5637,-2.5701,-2.5754,-2.5809,-2.5974,-2.601,-2.61,-2.6295,-2.6383,-2.6669,-2.7409,-2.7578,-2.8223,-2.9722,-2.9918,-3.0038,-3.0207,-3.0402,-3.0489,-3.0399,-3.1105,-3.15,-3.1353,-3.1483,-3.1519,-3.1517,-3.1389,-3.1315,-3.1295,-3.1232,-3.121,-3.121,-3.121,-3.1327,-1.0645,-1.1828,-1.2805,-1.3316,-1.4003,-1.4453,-1.3997,-1.4212,-1.4505,-1.4495,-1.4754,-1.4988,-1.493,-1.5273,-1.5546,-1.5517,-1.5816,-1.6124,-1.6285,-1.6428,-1.6531,-1.6655,-1.7484,-1.8224,-1.87,-1.9428,-1.9826,-1.9712,-2.0422,-2.0383,-1.9273,-1.9707,-1.9558,-1.8542,-1.8639,-1.8807,-1.9007,-1.9003,-1.9074,-1.9257,-1.9172,-1.9195,-1.9302,-1.9205,-1.9224,-1.9358,-1.9472,-1.9581,-1.969,-1.969,-1.9708,-1.9744,-1.9759,-1.9812,-1.9932,-2.0401,-2.0615,-2.0619,-2.0275,-2.0098,-2.018,-2.1391,-2.2144,-2.2725,-2.3665,-2.4225,-2.4544,-2.4589,-2.4706,-2.4822,-2.4902,-2.5005,-2.5139,-2.5206,-2.5288,-2.5352,-2.5545,-2.5602,-2.561,-2.5637,-2.5696,-2.577,-2.5828,-2.5883,-2.599,-2.61,-2.626,-2.6448,-2.6799,-2.7289,-2.8198,-2.9751,-2.9477,-2.958,-3.0516,-3.0678,-3.0714,-3.062,-3.106,-3.1308,-3.1252,-3.1308,-3.1344,-3.1344,-3.1193,-3.1114,-3.1075,-3.1052,-3.0793,-3.0407,-3.087,-3.0892,-0.8457,-0.9798,-1.084,-1.1772,-1.2606,-1.3112,-1.2745,-1.287,-1.3244,-1.3766,-1.3825,-1.3884,-1.4227,-1.4546,-1.4851,-1.5193,-1.5459,-1.5818,-1.6345,-1.6282,-1.621,-1.6335,-1.6937,-1.7606,-1.8236,-1.896,-1.9412,-1.9521,-1.9926,-1.977,-1.8912,-1.9203,-1.9033,-1.8169,-1.8293,-1.845,-1.8669,-1.8606,-1.8692,-1.886,-1.8755,-1.8817,-1.9003,-1.896,-1.9003,-1.9134,-1.9191,-1.9298,-1.9428,-1.9339,-1.9417,-1.9581,-1.9541,-1.9578,-1.9672,-1.9777,-1.9896,-2.0,-1.9881,-1.9795,-1.9924,-2.1212,-2.2002,-2.2592,-2.3621,-2.4174,-2.4462,-2.4544,-2.4666,-2.4782,-2.4906,-2.4993,-2.5079,-2.5182,-2.5157,-2.5186,-2.5448,-2.5515,-2.5535,-2.5524,-2.5637,-2.5731,-2.5701,-2.5791,-2.5881,-2.5974,-2.6118,-2.6225,-2.6277,-2.7015,-2.7957,-2.9025,-2.9063,-2.9434,-3.0506,-3.0834,-3.0952,-3.0851,-3.1012,-3.1092,-3.1072,-3.1092,-3.1112,-3.1112,-3.1015,-3.0952,-3.0892,-3.0714,-3.0342,-2.98,-3.0418,-3.0367,-0.7542,-0.8815,-0.9956,-1.1201,-1.1782,-1.2062,-1.2015,-1.1804,-1.1815,-1.2663,-1.2758,-1.2836,-1.3412,-1.3807,-1.4366,-1.5432,-1.5496,-1.585,-1.7101,-1.6759,-1.6374,-1.6413,-1.6779,-1.7039,-1.7039,-1.8127,-1.8677,-1.8381,-1.8784,-1.8664,-1.7811,-1.8188,-1.8232,-1.7733,-1.7908,-1.8108,-1.8305,-1.8305,-1.8392,-1.8517,-1.8517,-1.8576,-1.8711,-1.8779,-1.8779,-1.8731,-1.8936,-1.9012,-1.9031,-1.9078,-1.9176,-1.9321,-1.9321,-1.9321,-1.9321,-1.9321,-1.9637,-2.0035,-1.9586,-1.9534,-1.9811,-2.0516,-2.1276,-2.2091,-2.2969,-2.3728,-2.4338,-2.4477,-2.4544,-2.463,-2.4782,-2.5015,-2.5196,-2.5196,-2.5206,-2.5199,-2.5216,-2.5314,-2.5413,-2.5397,-2.5508,-2.5619,-2.5682,-2.5701,-2.5775,-2.5974,-2.6026,-2.6063,-2.6185,-2.6924,-2.7411,-2.7461,-2.8856,-2.9783,-2.9833,-3.049,-3.0851,-3.0712,-3.0831,-3.0851,-3.0712,-3.0851,-3.0912,-3.0912,-3.0912,-3.0892,-3.0892,-3.0253,-2.988,-2.98,-2.99,-2.988,-0.47,-0.6593,-0.8322,-0.9042,-0.9825,-1.0333,-1.0067,-1.0247,-1.0592,-1.1169,-1.1569,-1.2012,-1.2645,-1.3031,-1.3691,-1.4925,-1.5095,-1.5429,-1.6487,-1.6585,-1.6438,-1.6239,-1.6779,-1.7145,-1.7011,-1.7733,-1.8248,-1.8301,-1.8815,-1.8784,-1.7999,-1.8442,-1.8376,-1.7584,-1.7639,-1.7794,-1.8016,-1.8016,-1.8075,-1.8175,-1.8175,-1.8181,-1.8254,-1.8352,-1.8411,-1.845,-1.8692,-1.8803,-1.8822,-1.8874,-1.8917,-1.8969,-1.8969,-1.9007,-1.9093,-1.9059,-1.9153,-1.9313,-1.9335,-1.9409,-1.9712,-2.0957,-2.1549,-2.2018,-2.3432,-2.4039,-2.4291,-2.4503,-2.4569,-2.4556,-2.428,-2.4261,-2.4236,-2.3777,-2.4018,-2.4358,-2.4507,-2.4973,-2.5355,-2.5505,-2.5578,-2.5616,-2.5637,-2.5621,-2.5677,-2.5775,-2.599,-2.615,-2.6185,-2.6437,-2.6768,-2.7158,-2.7692,-2.8188,-2.8626,-2.9028,-2.938,-2.9744,-2.9939,-3.0236,-3.0675,-3.0626,-3.0589,-3.063,-3.0589,-3.0584,-3.0584,-2.9979,-2.9399,-2.8854,-2.9027,-2.876,-0.3023,-0.4806,-0.6655,-0.7633,-0.8096,-0.8324,-0.8537,-0.8874,-0.9399,-1.0233,-1.0553,-1.0916,-1.1715,-1.2051,-1.2671,-1.4147,-1.4381,-1.4835,-1.6197,-1.6283,-1.6171,-1.621,-1.6761,-1.706,-1.6937,-1.7385,-1.7838,-1.8209,-1.8405,-1.8361,-1.8026,-1.8078,-1.7848,-1.7308,-1.7323,-1.7427,-1.7645,-1.7645,-1.7706,-1.7794,-1.7855,-1.7861,-1.7828,-1.8036,-1.8135,-1.8175,-1.842,-1.8517,-1.8517,-1.8581,-1.8625,-1.8683,-1.8683,-1.8736,-1.8822,-1.8774,-1.876,-1.8798,-1.912,-1.9228,-1.9445,-2.0807,-2.1271,-2.1643,-2.3264,-2.382,-2.3969,-2.4425,-2.4378,-2.4138,-2.3861,-2.3497,-2.3225,-2.3172,-2.3441,-2.3856,-2.4383,-2.4913,-2.5317,-2.5448,-2.5559,-2.5597,-2.5597,-2.5597,-2.56,-2.5659,-2.5862,-2.6043,-2.6115,-2.6168,-2.6331,-2.6669,-2.693,-2.7254,-2.7669,-2.8089,-2.8593,-2.9181,-2.9393,-2.9805,-3.0493,-3.0401,-3.0338,-3.0401,-3.0091,-2.9959,-3.0017,-2.9188,-2.8517,-2.8052,-2.8183,-2.7898,-0.2603,-0.3555,-0.5005,-0.6873,-0.6595,-0.6157,-0.7395,-0.7693,-0.8105,-0.9604,-0.9532,-0.9478,-1.0503,-1.0695,-1.1335,-1.3107,-1.3397,-1.4127,-1.6257,-1.594,-1.5711,-1.6288,-1.6641,-1.6811,-1.679,-1.7099,-1.749,-1.803,-1.7608,-1.7448,-1.7738,-1.7085,-1.6765,-1.6876,-1.6939,-1.7031,-1.7178,-1.7178,-1.7253,-1.7384,-1.7569,-1.7604,-1.7496,-1.7808,-1.7935,-1.7882,-1.8083,-1.8163,-1.8183,-1.8183,-1.8288,-1.8478,-1.8478,-1.8478,-1.8498,-1.8498,-1.8498,-1.8556,-1.895,-1.9026,-1.9089,-2.0118,-2.0574,-2.0993,-2.2531,-2.3122,-2.344,-2.4225,-2.3986,-2.3514,-2.353,-2.2773,-2.2224,-2.3226,-2.3401,-2.3642,-2.467,-2.5054,-2.5227,-2.5278,-2.5448,-2.5597,-2.5597,-2.5597,-2.5597,-2.5597,-2.5642,-2.5756,-2.5974,-2.6115,-2.615,-2.6008,-2.6617,-2.7008,-2.6929,-2.7665,-2.8392,-2.8993,-2.919,-2.9572,-3.0156,-3.0189,-3.0172,-3.014,-2.9452,-2.9132,-2.9235,-2.7937,-2.7337,-2.7411,-2.7361,-2.7344,-0.2245,-0.3176,-0.4421,-0.5157,-0.5276,-0.5115,-0.46,-0.5333,-0.6143,-0.6098,-0.6242,-0.6621,-0.7451,-0.8194,-0.9439,-1.1833,-1.2626,-1.3685,-1.5762,-1.6297,-1.6344,-1.6068,-1.6798,-1.7143,-1.6697,-1.6909,-1.7245,-1.7606,-1.753,-1.7357,-1.7131,-1.7008,-1.6828,-1.6599,-1.6629,-1.6735,-1.696,-1.6981,-1.7023,-1.7107,-1.7107,-1.717,-1.7282,-1.7352,-1.7461,-1.7549,-1.774,-1.7821,-1.7842,-1.7996,-1.8082,-1.8141,-1.8248,-1.8282,-1.8268,-1.8324,-1.8417,-1.8537,-1.8855,-1.9064,-1.9422,-2.0789,-2.0984,-2.1004,-2.2595,-2.3006,-2.3051,-2.3613,-2.3575,-2.3257,-2.2938,-2.228,-2.1663,-2.1484,-2.2211,-2.307,-2.344,-2.4441,-2.5278,-2.5294,-2.5352,-2.5429,-2.5578,-2.5483,-2.5391,-2.5451,-2.547,-2.5605,-2.5956,-2.6026,-2.6008,-2.5936,-2.6081,-2.6138,-2.5986,-2.6697,-2.7454,-2.8155,-2.871,-2.9352,-3.0172,-3.0,-2.9713,-2.931,-2.9181,-2.8866,-2.8345,-2.7675,-2.7393,-2.7394,-2.6933,-2.6683,-0.1922,-0.2534,-0.3444,-0.364,-0.3876,-0.4187,-0.4533,-0.4681,-0.4472,-0.3372,-0.3797,-0.4534,-0.5136,-0.6599,-0.836,-1.0438,-1.2004,-1.3639,-1.5507,-1.6143,-1.6424,-1.6427,-1.6946,-1.7179,-1.6896,-1.6828,-1.6955,-1.7273,-1.7119,-1.6998,-1.6946,-1.662,-1.6384,-1.6284,-1.6328,-1.6491,-1.6714,-1.6769,-1.6791,-1.6778,-1.6854,-1.6918,-1.6981,-1.7086,-1.7191,-1.7316,0.0,-1.7625,-1.7625,-1.7794,-1.7875,-1.7875,-1.7889,-1.7929,-1.8003,-1.8082,-1.8234,-1.842,-1.8716,-1.904,-1.9545,-2.0996,-2.0886,-2.0554,-2.2405,-2.2728,-2.252,-2.2847,-2.2851,-2.2667,-2.2174,-2.1533,-2.1095,-2.1414,-2.1968,-2.2698,-2.3598,-2.4519,-2.5179,-2.5166,-2.532,-2.5423,-2.5391,-2.5352,-2.5278,-2.5262,-2.5534,-2.5747,-2.5747,-2.5809,-2.6014,-2.6358,-2.6335,-2.639,-2.6584,-2.6737,-2.7225,-2.8233,-2.8338,-2.8799,-2.9772,-2.9305,-2.888,-2.8511,-2.8017,-2.7567,-2.7243,-2.6757,-2.6601,-2.673,-2.6334,-2.617,-0.145,-0.1774,-0.2352,-0.2192,-0.2585,-0.3569,-0.564,-0.4882,-0.3191,-0.1275,-0.1789,-0.2695,-0.3061,-0.5106,-0.7199,-0.8582,-1.0895,-1.3186,-1.4935,-1.5486,-1.6051,-1.692,-1.7002,-1.7009,-1.7115,-1.6728,-1.6627,-1.6955,-1.6585,-1.6488,-1.6872,-1.6091,-1.5748,-1.5979,-1.61,-1.6253,-1.6423,-1.6534,-1.6534,-1.6457,-1.6705,-1.6761,-1.6675,-1.6876,-1.7044,-1.7178,-1.7372,-1.7496,-1.7537,-1.7659,-1.772,-1.776,-1.7611,-1.7625,-1.772,-1.7882,-1.8063,-1.8248,-1.8595,-1.9022,-1.9644,-2.0981,-2.059,-2.0005,-2.2034,-2.2204,-2.1739,-2.1973,-2.2007,-2.1889,-2.1529,-2.0956,-2.0822,-2.2164,-2.2359,-2.265,-2.4295,-2.4843,-2.5006,-2.5019,-2.5272,-2.5378,-2.5127,-2.5143,-2.5123,-2.5048,-2.5627,-2.5894,-2.5397,-2.5613,-2.6078,-2.6744,-2.6716,-2.6903,-2.7485,-2.7156,-2.7352,-2.85,-2.8038,-2.8148,-2.9091,-2.8351,-2.7851,-2.7639,-2.6577,-2.6077,-2.6158,-2.5683,-2.5567,-2.5862,-2.5772,-2.5828,-0.0624,-0.1094,-0.1528,-0.0666,-0.2036,-0.3923,-0.4995,-0.4474,-0.2893,0.0234,0.0437,0.0,-0.0118,-0.186,-0.3702,-0.501,-0.7434,-1.0072,-1.2754,-1.4072,-1.523,-1.6548,-1.6829,-1.6858,-1.6648,-1.6165,-1.6134,-1.6779,-1.6269,-1.603,-1.632,-1.5717,-1.5503,-1.5824,-1.5957,-1.6044,-1.6076,-1.6013,-1.6057,-1.6253,-1.6297,-1.6405,-1.6543,-1.6697,-1.6825,-1.696,-1.7157,0.0,-1.776,-1.7706,-1.7862,-1.8089,-1.7889,-1.7781,-1.774,-1.8043,-1.8208,-1.8338,-1.8669,-1.9334,-2.0191,-2.1093,-2.0614,-1.9959,-2.1512,-2.1098,-2.026,-2.1008,-2.1269,-2.1455,-2.1923,-2.1704,-2.1547,-2.2263,-2.2874,-2.3449,-2.3873,-2.4516,-2.5052,-2.5227,-2.4989,-2.4806,-2.4918,-2.4675,-2.4487,-2.4584,-2.5077,-2.5326,-2.4949,-2.5798,-2.6299,-2.5881,-2.5875,-2.5851,-2.5763,-2.6703,-2.731,-2.7312,-2.7664,-2.7939,-2.8147,-2.7485,-2.6834,-2.6256,-2.6247,-2.5995,-2.547,-2.5537,-2.5624,-2.5738,-2.5809,-2.5881,-0.0313,-0.0626,-0.1096,-0.1605,-0.2779,-0.3565,-0.2621,-0.2188,-0.121,0.1564,0.1877,0.1572,0.118,-0.0795,-0.2782,-0.3967,-0.638,-0.9155,-1.2082,-1.3391,-1.4604,-1.6102,-1.6384,-1.6343,-1.6158,-1.5693,-1.5841,-1.6846,-1.6316,-1.6036,-1.6179,-1.5553,-1.5278,-1.5424,-1.5558,-1.5691,-1.579,-1.5814,-1.5836,-1.5937,-1.6113,-1.6188,-1.6166,-1.6426,-1.6654,-1.6803,-1.7002,-1.724,-1.7496,-1.7536,-1.7597,-1.7686,-1.757,-1.7536,-1.759,-1.7955,-1.8181,-1.8358,-1.876,-1.93,-1.9922,-2.0724,-2.0602,-2.0322,-2.1419,-2.1277,-2.0688,-2.0448,-2.1088,-2.1831,-2.1622,-2.1767,-2.211,-2.2628,-2.3436,-2.4071,-2.4072,-2.4554,-2.4923,-2.4632,-2.4599,-2.46,-2.4594,-2.4569,-2.4523,-2.44,-2.4972,-2.5184,-2.4606,-2.5469,-2.615,-2.6163,-2.636,-2.6487,-2.6483,-2.6609,-2.6762,-2.6945,-2.6816,-2.6842,-2.7007,-2.6304,-2.5765,-2.5435,-2.5243,-2.5084,-2.4946,-2.5103,-2.5262,-2.54,-2.5438,-2.553,0.0234,-0.0313,-0.1057,-0.2506,-0.3292,-0.3173,-0.1249,-0.0468,0.0468,0.266,0.2724,0.2232,0.1784,-0.032,-0.2289,-0.3171,-0.5449,-0.822,-1.146,-1.2292,-1.3438,-1.5739,-1.5609,-1.546,-1.5783,-1.5374,-1.5529,-1.662,-1.6155,-1.5902,-1.5987,-1.5366,-1.4994,-1.4994,-1.5097,-1.5255,-1.5479,-1.558,-1.5637,-1.5693,-1.5981,-1.6035,-1.5903,-1.6241,-1.6513,-1.6697,-1.6897,-1.7115,-1.7323,-1.737,-1.7391,-1.7352,-1.7303,-1.7337,-1.7474,-1.7895,-1.8161,-1.8378,-1.8846,-1.9255,-1.9677,-2.0362,-2.0602,-2.0767,-2.1585,-2.1695,-2.136,-2.0467,-2.1145,-2.2059,-2.1519,-2.2011,-2.2758,-2.3204,-2.3876,-2.439,-2.4271,-2.4642,-2.4781,-2.4065,-2.4424,-2.4702,-2.428,-2.4544,-2.4653,-2.4234,-2.4872,-2.512,-2.4353,-2.5174,-2.5937,-2.6226,-2.655,-2.6802,-2.6926,-2.6292,-2.6078,-2.651,-2.5913,-2.5673,-2.5893,-2.5209,-2.4815,-2.4793,-2.4389,-2.4323,-2.4569,-2.4742,-2.4886,-2.5029,-2.5072,-2.5204,0.1523,-0.0117,-0.1724,-0.1528,-0.2431,-0.3377,-0.3415,-0.1488,0.0979,0.3258,0.2643,0.1747,0.1992,0.0494,-0.083,-0.1054,-0.285,-0.5611,-0.9744,-0.9745,-1.1004,-1.547,-1.437,-1.3927,-1.5638,-1.5105,-1.4934,-1.5682,-1.528,-1.5115,-1.5366,-1.4904,-1.465,-1.465,-1.465,-1.4823,-1.5131,-1.5028,-1.521,-1.5693,-1.5792,-1.5947,-1.6178,-1.634,-1.6513,-1.6697,-1.6897,-1.7261,0.0,-1.7474,-1.7604,-1.7888,-1.7598,-1.7475,-1.755,-1.8009,-1.8234,-1.8378,-1.8846,-1.9488,-2.0182,-2.0429,-2.07,-2.1118,-2.1979,-2.169,-2.1132,-2.1449,-2.1337,-2.1381,-2.238,-2.3188,-2.3774,-2.3893,-2.4027,-2.412,-2.4036,-2.4474,-2.4726,-2.411,-2.485,-2.5236,-2.4036,-2.439,-2.4586,-2.3951,-2.4544,-2.4813,-2.4212,-2.536,-2.5874,-2.4889,-2.5028,-2.5115,-2.4898,-2.5285,-2.5493,-2.536,-2.5168,-2.5021,-2.4934,-2.4502,-2.4216,-2.4095,-2.4343,-2.4477,-2.4518,-2.4701,-2.4802,-2.4842,-2.5009,-2.5166,0.179,-0.0469,-0.2676,-0.2832,-0.3249,-0.3306,-0.2073,-0.079,0.0664,0.2469,0.236,0.1835,0.1388,0.0166,-0.1332,-0.2995,-0.4069,-0.588,-0.925,-0.9681,-1.0638,-1.3438,-1.3227,-1.3413,-1.4711,-1.4892,-1.5224,-1.5841,-1.5526,-1.5216,-1.5018,-1.4514,-1.4208,-1.4127,-1.4127,-1.4257,-1.457,-1.4674,-1.4926,-1.5345,-1.5536,-1.5681,-1.578,-1.6122,-1.6318,-1.6417,-1.6697,-1.7099,0.0,-1.7267,-1.7337,-1.7665,-1.7853,-1.7676,-1.7425,-1.8351,-1.8519,-1.8378,-1.8846,-1.9323,-1.9732,-1.9753,-1.9893,-2.0262,-2.155,-2.1406,-2.0917,-2.1342,-2.1876,-2.2298,-2.2279,-2.2908,-2.3569,-2.3724,-2.3782,-2.3767,-2.3659,-2.3834,-2.3903,-2.3525,-2.3919,-2.4179,-2.3693,-2.4016,-2.42,-2.3848,-2.421,-2.4371,-2.3961,-2.4567,-2.4833,-2.4301,-2.488,-2.5103,-2.4575,-2.4642,-2.4585,-2.4254,-2.4254,-2.4189,-2.4014,-2.3889,-2.3882,-2.4003,-2.413,-2.4255,-2.438,-2.4539,-2.4641,-2.4686,-2.4846,-2.5045,0.2371,0.0195,-0.1926,-0.2357,-0.2535,-0.2275,-0.1148,-0.0393,0.039,0.1437,0.1578,0.1253,0.0412,-0.0582,-0.221,-0.4973,-0.5502,-0.6565,-0.9382,-1.0027,-1.0723,-1.2107,-1.2501,-1.2983,-1.3865,-1.459,-1.5275,-1.5984,-1.5478,-1.5023,-1.4759,-1.4122,-1.3763,-1.3739,-1.3705,-1.3871,-1.4246,-1.4454,-1.4731,-1.5108,-1.5289,-1.5401,-1.5446,-1.5824,-1.6078,-1.6222,-1.647,-1.6842,0.0,-1.701,-1.7065,-1.7308,-1.7694,-1.7607,-1.7376,-1.8275,-1.8439,-1.8279,-1.8659,-1.8946,-1.9145,-1.9171,-1.9227,-1.9551,-2.104,-2.1154,-2.0892,-2.1386,-2.2279,-2.2978,-2.236,-2.2725,-2.326,-2.3312,-2.3399,-2.3399,-2.3201,-2.3333,-2.3383,-2.3022,-2.3434,-2.3739,-2.3393,-2.3767,-2.4023,-2.3769,-2.394,-2.4003,-2.3818,-2.4003,-2.4103,-2.3961,-2.4606,-2.4889,-2.4462,-2.4172,-2.3903,-2.3616,-2.3631,-2.3603,-2.3509,-2.3566,-2.3739,-2.3982,-2.4024,-2.413,-2.4302,-2.4421,-2.4523,-2.4609,-2.4726,-2.4982,0.3513,0.2343,0.1172,0.0899,0.0547,-0.0116,-0.1482,-0.0693,0.0311,0.0304,0.012,-0.0252,-0.0882,-0.1681,-0.3231,-0.6223,-0.6403,-0.7175,-1.0006,-1.0384,-1.0851,-1.205,-1.2276,-1.2576,-1.3227,-1.4032,-1.4891,-1.5818,-1.4794,-1.4264,-1.4572,-1.3726,-1.3338,-1.3586,-1.346,-1.3721,-1.4396,-1.4396,-1.4628,-1.5108,-1.5108,-1.5176,-1.5312,-1.5424,-1.5758,-1.6188,-1.6259,-1.6574,0.0,-1.6786,-1.6824,-1.7006,-1.7005,-1.7162,-1.7425,-1.7631,-1.7848,-1.8028,-1.8246,-1.8392,-1.8556,-1.8817,-1.8946,-1.9262,-2.0605,-2.0988,-2.1139,-2.18,-2.244,-2.2912,-2.2875,-2.3001,-2.3038,-2.2777,-2.2912,-2.3016,-2.2669,-2.3172,-2.3477,-2.2752,-2.3831,-2.4461,-2.313,-2.3723,-2.4216,-2.3678,-2.3717,-2.3797,-2.3797,-2.3903,-2.3961,-2.3818,-2.394,-2.4061,-2.4202,-2.3839,-2.3595,-2.3595,-2.3414,-2.3363,-2.3487,-2.3566,-2.3739,-2.3982,-2.4124,-2.4229,-2.4302,-2.4421,-2.4523,-2.4609,-2.4726,-2.4982,0.3392,0.2378,0.1446,0.1112,0.1063,0.097,0.0309,0.0039,-0.0116,-0.0114,-0.0986,-0.1892,-0.247,-0.3441,-0.5176,-0.8266,-0.8124,-0.831,-1.0211,-1.0599,-1.073,-1.0807,-1.1688,-1.2548,-1.3155,-1.4209,-1.4823,-1.4735,-1.4901,-1.472,-1.4164,-1.3616,-1.3332,-1.3324,-1.3375,-1.36,-1.3986,-1.408,-1.4337,-1.4754,-1.4754,-1.48,-1.4914,-1.5311,-1.5536,-1.5592,-1.5944,-1.6348,-1.6788,-1.6621,-1.6841,-1.73,-1.7527,-1.7402,-1.7235,-1.8123,-1.8199,-1.7855,-1.7833,-1.8123,-1.8505,-1.8655,-1.8765,-1.9032,-1.985,-1.9979,-2.0073,-2.1255,-2.1981,-2.2426,-2.2426,-2.2518,-2.2601,-2.2518,-2.2646,-2.2737,-2.2623,-2.2781,-2.2867,-2.2644,-2.2999,-2.3213,-2.2826,-2.3176,-2.3474,-2.34,-2.3631,-2.376,-2.3674,-2.3782,-2.3861,-2.3797,-2.3711,-2.3726,-2.3903,-2.3739,-2.3545,-2.348,-2.3378,-2.3304,-2.3312,-2.3436,-2.3661,-2.3927,-2.3919,-2.4055,-2.4294,-2.4296,-2.4416,-2.4609,-2.4826,-2.508,0.3085,0.2536,0.1994,0.1825,0.1642,0.1532,0.1406,0.0229,-0.1031,-0.1638,-0.2792,-0.3901,-0.4536,-0.5553,-0.6921,-0.8943,-0.9148,-0.9346,-1.0045,-1.0936,-1.153,-1.1653,-1.1826,-1.2406,-1.3635,-1.4162,-1.4494,-1.4649,-1.4956,-1.479,-1.4023,-1.3633,-1.3367,-1.3204,-1.3386,-1.3586,-1.3797,-1.3868,-1.4091,-1.4372,-1.443,-1.4466,-1.4535,-1.5006,-1.5255,-1.5311,-1.5714,-1.6167,0.0,-1.6514,-1.6701,-1.7096,-1.7402,-1.7312,-1.7096,-1.7893,-1.7956,-1.7625,-1.7497,-1.778,-1.8212,-1.8299,-1.8779,-1.9432,-2.0012,-2.0132,-2.0274,-2.1385,-2.1939,-2.2208,-2.2208,-2.2254,-2.2301,-2.2254,-2.2347,-2.2417,-2.2324,-2.237,-2.2417,-2.237,-2.2463,-2.2532,-2.2586,-2.2723,-2.2881,-2.3061,-2.3238,-2.337,-2.3414,-2.348,-2.3566,-2.3689,-2.3553,-2.3531,-2.3696,-2.3523,-2.3385,-2.3371,-2.3223,-2.3187,-2.3246,-2.3363,-2.3553,-2.3848,-2.3818,-2.3949,-2.4252,-2.4296,-2.44,-2.4609,-2.4886,-2.5119,0.0,0.2656,0.2809,0.2731,0.2145,0.1645,0.164,-0.0222,0.0,-0.4,-0.5138,-0.612,-0.6849,-0.7873,-0.8524,-0.8494,-0.9569,-1.0217,-0.9718,-1.125,-1.2812,-1.3823,-1.234,-1.2072,-1.4222,-1.392,-1.4047,-1.5157,-1.4934,-1.4535,-1.4058,-1.375,-1.3466,-1.319,-1.3467,-1.3668,-1.3797,-1.3797,-1.3868,-1.3997,-1.4116,-1.4199,-1.4199,-1.4604,-1.4971,0.0,-1.557,-1.5996,0.0,-1.642,-1.6443,-1.6548,-1.679,-1.6918,-1.7036,-1.7151,-1.7277,-1.7363,-1.7233,-1.7432,-1.772,-1.7862,-1.892,-2.0241,-2.0773,-2.1142,-2.1476,-2.2039,-2.2184,-2.2184,-2.2208,-2.2208,-2.2184,-2.2044,-2.2114,-2.2137,-2.1864,-2.202,-2.2161,-2.2044,-2.2231,-2.2394,-2.2394,-2.2394,-2.2463,-2.264,-2.2632,-2.2715,-2.3038,-2.3083,-2.3172,-2.3444,-2.3393,-2.343,-2.3566,-2.329,-2.3171,-2.3297,-2.3068,-2.3023,-2.3297,-2.3319,-2.3473,-2.3782,-2.3797,-2.394,-2.4202,-2.4374,-2.4523,-2.4609,-2.4866,-2.5084,-0.0664,0.0,0.2734,0.1213,0.1337,0.1378,0.0,-0.209,-0.3786,-0.5406,-0.668,-0.766,-0.7975,-0.9105,-0.968,-0.8719,-0.9341,-1.0019,-1.0244,-1.0609,-1.124,-1.2297,-1.1373,-1.0948,-1.1638,-1.3258,-1.4174,-1.3885,-1.4716,-1.4673,-1.3389,-1.4057,-1.4046,-1.3075,-1.3402,-1.3665,-1.3797,-1.3797,-1.3821,-1.3844,-1.3986,-1.4057,-1.4057,-1.4568,-1.4845,-1.4949,-1.547,0.0,-1.5988,-1.6219,-1.6485,-1.6725,-1.6638,-1.6765,-1.7015,-1.7156,-1.7117,-1.7052,-1.7146,-1.7397,-1.7679,-1.8023,-1.8831,-1.9773,-2.0226,-2.1066,-2.1885,-2.2142,-2.2137,-2.2067,-2.2184,-2.2208,-2.2184,-2.2161,-2.2184,-2.2184,-2.2114,-2.2161,-2.2184,-2.2161,-2.2208,-2.2254,-2.2254,-2.2324,-2.2417,-2.2463,-2.2586,-2.2709,-2.2777,-2.2889,-2.3016,-2.3172,-2.3037,-2.3052,-2.3363,-2.3356,-2.3326,-2.3297,-2.3135,-2.3135,-2.3297,-2.3385,-2.3516,-2.3653,-2.379,-2.3934,-2.4046,-2.4187,-2.438,-2.4609,-2.465,-2.4851,-0.2608,-0.1156,0.0077,-0.139,-0.1578,-0.2053,-0.4624,-0.5526,-0.6184,-0.7722,-0.8712,-0.9359,-0.9647,-1.0462,-1.0788,-0.9817,-1.0019,-1.033,-1.0463,-1.0214,-1.0352,-1.1364,-1.1274,-1.1226,-1.1417,-1.2867,-1.3726,-1.352,-1.4328,-1.4346,-1.3152,-1.3823,-1.3877,-1.3123,-1.3426,-1.3628,-1.3716,-1.3716,-1.3739,-1.3797,-1.3949,-1.4057,-1.4208,-1.4557,-1.473,-1.4834,-1.5312,0.0,-1.5682,-1.6017,-1.6299,-1.6519,-1.6514,-1.6616,-1.6791,-1.6965,-1.6961,-1.6905,-1.688,-1.7154,-1.7642,-1.844,-1.9095,-1.9729,-2.0642,-2.1305,-2.1793,-2.2114,-2.2114,-2.2044,-2.2184,-2.2212,-2.2166,-2.2114,-2.2156,-2.2184,-2.2128,-2.2161,-2.2208,-2.2208,-2.2254,-2.2278,-2.2208,-2.2208,-2.2231,-2.2231,-2.2263,-2.2342,-2.2457,-2.2535,-2.268,-2.2979,-2.2828,-2.288,-2.3327,-2.3185,-2.3118,-2.3253,-2.3193,-2.3201,-2.3349,-2.3444,-2.356,-2.3696,-2.3855,-2.3997,-2.4103,-2.4208,-2.4359,-2.4544,-2.4544,-2.4862,-0.4228,-0.4023,-0.3942,-0.4802,-0.5428,-0.6566,-0.9155,-0.9169,-0.9009,-1.0181,-1.061,-1.0827,-1.1066,-1.1599,-1.1669,-1.0774,-1.0689,-1.0624,-1.0254,-0.9955,-0.9978,-1.0541,-1.1311,-1.1872,-1.2042,-1.2642,-1.3126,-1.3402,-1.3866,-1.3779,-1.298,-1.3374,-1.3451,-1.3128,-1.3378,-1.3563,-1.3604,-1.37,-1.3765,-1.3773,-1.3989,-1.4155,-1.428,-1.4454,-1.4604,-1.4753,0.0,0.0,-1.5491,-1.5824,-1.6044,-1.6188,-1.6337,-1.6445,-1.6513,-1.6674,-1.6722,-1.6723,-1.6674,-1.7033,-1.7721,-1.8895,-1.9485,-1.993,-2.1207,-2.1462,-2.1434,-2.1949,-2.202,-2.1996,-2.2161,-2.218,-2.2161,-2.2044,-2.2127,-2.2193,-2.2058,-2.2137,-2.2231,-2.2208,-2.2301,-2.2324,-2.2231,-2.2091,-2.1996,-2.1996,-2.1902,-2.1926,-2.2137,-2.2221,-2.2377,-2.2799,-2.2723,-2.2834,-2.3274,-2.2886,-2.2766,-2.3104,-2.3155,-2.3245,-2.3408,-2.348,-2.3603,-2.376,-2.3882,-2.4024,-2.4166,-2.4234,-2.4338,-2.4477,-2.4606,-2.5051,-0.6907,-0.7513,-0.8285,-0.8948,-0.8999,-0.9254,-1.0556,-1.1056,-1.1274,-1.1427,-1.1192,-1.0915,-1.0716,-1.1811,-1.1988,-0.9679,-0.9686,-0.9698,-0.8918,-0.9862,-1.0159,-0.8953,-1.0291,-1.1321,-1.1335,-1.2468,-1.3012,-1.2601,-1.3311,-1.3332,-1.2307,-1.316,-1.341,-1.2793,-1.3085,-1.3396,-1.3686,-1.4136,-1.4112,-1.3644,-1.4171,-1.4174,-1.3739,-1.4116,-1.4326,-1.45,0.0,-1.521,-1.5357,-1.5681,-1.5925,-1.601,-1.594,-1.6139,-1.6495,-1.6411,-1.6191,-1.6108,-1.7021,-1.7677,-1.8209,-1.9034,-1.966,-2.0183,-2.0583,-2.0836,-2.1042,-2.141,-2.1592,-2.1722,-2.2114,-2.2114,-2.2044,-2.2161,-2.2268,-2.2329,-2.2208,-2.2278,-2.2347,-2.2231,-2.2231,-2.2231,-2.2208,-2.2091,-2.1996,-2.1996,-2.1996,-2.1996,-2.2044,-2.2244,-2.2438,-2.2623,-2.2778,-2.2853,-2.2892,-2.2514,-2.2408,-2.2749,-2.2999,-2.3231,-2.3466,-2.356,-2.361,-2.3616,-2.3653,-2.3782,-2.4024,-2.4046,-2.4151,-2.4354,-2.5024,-2.5412,-0.9101,-0.919,-0.9583,-1.1109,-1.1352,-1.1639,-1.3164,-1.3593,-1.3536,-1.3213,-1.2939,-1.2541,-1.2022,-1.2071,-1.1597,-0.9674,-1.0384,-1.0881,-1.0123,-1.0771,-1.0887,-0.9664,-1.0855,-1.1594,-1.1028,-1.2181,-1.2786,-1.2331,-1.299,-1.3059,-1.2214,-1.2695,-1.2841,-1.2499,-1.2618,-1.2851,-1.311,-1.3746,-1.3991,-1.3861,-1.3903,-1.3852,-1.3716,-1.3905,-1.4057,-1.4197,0.0,-1.4869,-1.4949,-1.5345,-1.557,-1.5625,-1.5756,-1.5923,-1.6137,-1.6244,-1.6351,-1.6585,-1.7557,-1.7969,-1.8346,-1.9827,-2.0099,-1.9958,-2.0748,-2.1024,-2.1118,-2.135,-2.1399,-2.1496,-2.1864,-2.1971,-2.1989,-2.2152,-2.2161,-2.2152,-2.2278,-2.237,-2.237,-2.2324,-2.2254,-2.2184,-2.2114,-2.1996,-2.1864,-2.1793,-2.1841,-2.1902,-2.194,-2.2151,-2.2369,-2.2629,-2.2629,-2.2615,-2.2586,-2.2402,-2.2454,-2.2787,-2.3029,-2.326,-2.3487,-2.3566,-2.3616,-2.3717,-2.3717,-2.3797,-2.4003,-2.4082,-2.4124,-2.4166,-2.4946,-2.5453,-1.0943,-1.0596,-1.055,-1.2496,-1.3096,-1.3695,-1.5336,-1.5512,-1.5142,-1.4523,-1.4155,-1.3708,-1.2975,-1.1917,-1.099,-1.0563,-1.1196,-1.1605,-1.1231,-1.151,-1.1481,-1.071,-1.1652,-1.2058,-1.1219,-1.2174,-1.2651,-1.2191,-1.2723,-1.283,-1.2228,-1.2154,-1.2149,-1.2178,-1.2172,-1.2298,-1.2565,-1.315,-1.3554,-1.3756,-1.3563,-1.3498,-1.3536,-1.3583,-1.3702,-1.3844,-1.4197,-1.443,-1.4546,-1.4937,-1.5176,-1.5335,-1.557,-1.5797,-1.6008,-1.6273,-1.6794,-1.7407,-1.7934,-1.8116,-1.8448,-2.0311,-2.0274,-1.9741,-2.0938,-2.1204,-2.1144,-2.1242,-2.111,-2.1054,-2.1694,-2.1769,-2.1756,-2.2091,-2.2034,-2.2001,-2.2254,-2.2324,-2.2347,-2.2347,-2.2254,-2.2114,-2.202,-2.1892,-2.1739,-2.1616,-2.1664,-2.1736,-2.1858,-2.2072,-2.2351,-2.2644,-2.2563,-2.2475,-2.2369,-2.2296,-2.2408,-2.2727,-2.2917,-2.3112,-2.3341,-2.3436,-2.3545,-2.3674,-2.3674,-2.3754,-2.3876,-2.4128,-2.4182,-2.4075,-2.4963,-2.5516,-1.23,-1.2421,-1.262,-1.3289,-1.4326,-1.5335,-1.5867,-1.5795,-1.5435,-1.4565,-1.3718,-1.2922,-1.2427,-1.0907,-1.0419,-1.2522,-1.1283,-1.0262,-1.0751,-1.1291,-1.1442,-1.1032,-1.1933,-1.2491,-1.2212,-1.2621,-1.2659,-1.2043,-1.2455,-1.2567,-1.2219,-1.1684,-1.1532,-1.183,-1.1841,-1.2054,-1.2504,-1.2611,-1.2693,-1.2729,-1.3377,-1.3357,-1.2774,-1.2958,-1.3142,-1.3266,-1.3539,-1.3871,-1.4246,-1.4396,-1.48,-1.5312,-1.5335,-1.582,-1.6559,-1.656,-1.7303,-1.8263,-1.7946,-1.8154,-1.8717,-1.9748,-1.9807,-1.9696,-2.0711,-2.0985,-2.0913,-2.0938,-2.0541,-2.0377,-2.1655,-2.1486,-2.114,-2.1857,-2.1996,-2.1996,-2.202,-2.2137,-2.2208,-2.2208,-2.2114,-2.202,-2.1996,-2.1828,-2.1688,-2.1606,-2.1496,-2.152,-2.1769,-2.2161,-2.244,-2.2592,-2.2749,-2.2695,-2.224,-2.1996,-2.1973,-2.2231,-2.237,-2.2601,-2.2934,-2.3083,-2.3194,-2.3341,-2.3341,-2.3407,-2.3531,-2.4119,-2.4311,-2.4212,-2.5586,-2.5795,-1.2639,-1.2791,-1.3008,-1.3814,-1.4516,-1.52,-1.5803,-1.6096,-1.6052,-1.5419,-1.4794,-1.3962,-1.2666,-1.2071,-1.1804,-1.1901,-1.1458,-1.1159,-1.1393,-1.1595,-1.1784,-1.1966,-1.2048,-1.2158,-1.2274,-1.2375,-1.2351,-1.2209,-1.2212,-1.2143,-1.2032,-1.1331,-1.1099,-1.1486,-1.1334,-1.1515,-1.207,-1.2184,-1.2261,-1.2375,-1.2882,-1.2944,-1.2578,-1.2822,-1.2983,-1.3094,-1.3443,-1.3681,-1.3847,-1.4152,-1.4466,-1.4777,-1.5154,-1.5683,-1.6303,-1.6883,-1.7479,-1.8054,-1.8236,-1.8362,-1.855,-1.9402,-1.9561,-1.9583,-2.0662,-2.1046,-2.1084,-2.1084,-2.0509,-2.0147,-2.1308,-2.1107,-2.0821,-2.1787,-2.1864,-2.1807,-2.2076,-2.2095,-2.2044,-2.1916,-2.1807,-2.1688,-2.1423,-2.1242,-2.1095,-2.0981,-2.1082,-2.1253,-2.152,-2.1996,-2.237,-2.2578,-2.2652,-2.256,-2.2231,-2.2044,-2.1996,-2.2184,-2.2324,-2.2495,-2.2777,-2.2979,-2.3127,-2.3172,-2.3172,-2.315,-2.3127,-2.3354,-2.3343,-2.3175,-2.42,-2.4476,-1.2674,-1.2786,-1.3081,-1.379,-1.4172,-1.4524,-1.5034,-1.5911,-1.6377,-1.576,-1.513,-1.4231,-1.2694,-1.2513,-1.237,-1.1617,-1.1546,-1.1631,-1.1731,-1.1677,-1.1771,-1.2151,-1.1781,-1.1659,-1.2042,-1.1905,-1.1882,-1.2112,-1.1955,-1.1892,-1.1894,-1.133,-1.1119,-1.143,-1.1167,-1.1276,-1.178,-1.2014,-1.2173,-1.2334,-1.252,-1.2538,-1.2382,-1.2652,-1.2798,-1.2861,-1.3224,-1.343,-1.3539,-1.38,-1.4059,-1.4429,-1.5277,-1.582,-1.6225,-1.7012,-1.7608,-1.8031,-1.8298,-1.8277,-1.8292,-1.9064,-1.9311,-1.9485,-2.0409,-2.0723,-2.0733,-2.0598,-1.994,-1.9501,-2.0497,-2.0445,-2.0417,-2.1495,-2.1506,-2.1361,-2.1681,-2.1654,-2.153,-2.1485,-2.1423,-2.1264,-2.097,-2.0797,-2.066,-2.061,-2.0723,-2.0934,-2.1229,-2.1712,-2.2161,-2.2555,-2.2509,-2.237,-2.2114,-2.1926,-2.1817,-2.1864,-2.202,-2.2217,-2.2526,-2.2686,-2.2746,-2.2746,-2.2791,-2.2746,-2.2632,-2.2841,-2.2849,-2.264,-2.3397,-2.3582,-1.2479,-1.2584,-1.2959,-1.3156,-1.3375,-1.3512,-1.3595,-1.5096,-1.6246,-1.545,-1.4404,-1.3316,-1.238,-1.1859,-1.1718,-1.2049,-1.1528,-1.1226,-1.1541,-1.1435,-1.1303,-1.1303,-1.1069,-1.1088,-1.1562,-1.1298,-1.13,-1.1748,-1.1797,-1.1821,-1.1888,-1.1701,-1.1619,-1.1688,-1.1439,-1.1456,-1.178,-1.2173,-1.2472,-1.2574,-1.2325,-1.2156,-1.211,-1.2382,-1.2505,-1.2529,-1.2783,-1.3079,-1.3396,-1.3266,-1.36,-1.4343,-1.5744,-1.6325,-1.6432,-1.6915,-1.7653,-1.8339,-1.8009,-1.7894,-1.8006,-1.8684,-1.9068,-1.9378,-1.9851,-1.9888,-1.9698,-1.9318,-1.8677,-1.8303,-1.9171,-1.9492,-1.9867,-2.0946,-2.0896,-2.0635,-2.0771,-2.0709,-2.0684,-2.0944,-2.0894,-2.0795,-2.0795,-2.056,-2.0447,-2.056,-2.0498,-2.0548,-2.0934,-2.135,-2.1864,-2.2509,-2.237,-2.2091,-2.1817,-2.1568,-2.135,-2.1204,-2.1326,-2.164,-2.2184,-2.2067,-2.1996,-2.1996,-2.2137,-2.2137,-2.1996,-2.274,-2.301,-2.2902,-2.3568,-2.3451,-1.2938,-1.3236,-1.3382,-1.3586,-1.3939,-1.4155,-1.3769,-1.4788,-1.5591,-1.4839,-1.4244,-1.3466,-1.2091,-1.1826,-1.1758,-1.1573,-1.1476,-1.1442,-1.138,-1.1247,-1.1247,-1.1466,-1.1224,-1.1179,-1.1553,-1.1379,-1.1388,-1.1763,-1.1586,-1.1606,-1.1939,-1.134,-1.1129,-1.1486,-1.1095,-1.1122,-1.1655,-1.1792,-1.195,-1.2165,-1.2004,-1.2043,-1.2292,-1.2054,-1.2258,-1.2774,-1.292,-1.3118,-1.3409,-1.3563,-1.3927,-1.445,-1.4821,-1.5128,-1.5406,-1.5986,-1.6703,-1.7397,-1.7205,-1.7464,-1.8013,-1.8745,-1.8858,-1.8846,-1.9417,-1.942,-1.9208,-1.9094,-1.8458,-1.8053,-1.9116,-1.9033,-1.9022,-2.0324,-2.0548,-2.0446,-2.0457,-2.0747,-2.0926,-2.0521,-2.0446,-2.0421,-2.0322,-2.0131,-1.9978,-2.0029,-2.0169,-2.0511,-2.1204,-2.1544,-2.1902,-2.2278,-2.2254,-2.2091,-2.1817,-2.164,-2.1447,-2.1204,-2.1155,-2.1277,-2.1616,-2.1864,-2.1959,-2.186,-2.1997,-2.1997,-2.186,-2.1993,-2.197,-2.1852,-2.2043,-2.2054,-1.2631,-1.2973,-1.3229,-1.3499,-1.3789,-1.4004,-1.3915,-1.4246,-1.4439,-1.395,-1.3455,-1.2799,-1.1837,-1.1646,-1.1518,-1.1087,-1.1247,-1.1279,-1.0958,-1.0839,-1.0839,-1.0958,-1.0705,-1.0567,-1.0715,-1.0513,-1.0547,-1.0948,-1.0793,-1.096,-1.1609,-1.1119,-1.1036,-1.1503,-1.1083,-1.118,-1.1839,-1.1678,-1.1785,-1.2163,-1.175,-1.1788,-1.2219,-1.1931,-1.2076,-1.2603,-1.2895,-1.3118,-1.3348,-1.3734,-1.3941,-1.401,-1.4349,-1.4683,-1.5016,-1.5713,-1.6444,-1.7126,-1.7205,-1.7515,-1.7951,-1.8562,-1.8614,-1.854,-1.8903,-1.8901,-1.8691,-1.8314,-1.7945,-1.7795,-1.8385,-1.8325,-1.8462,-1.9838,-2.0093,-1.9978,-1.994,-2.0233,-2.0386,-2.0042,-1.9978,-2.0003,-1.9926,-1.9798,-1.9734,-1.9734,-2.0042,-2.0498,-2.1093,-2.1482,-2.1817,-2.2091,-2.2067,-2.1926,-2.1592,-2.1385,-2.1142,-2.0835,-2.0835,-2.0909,-2.1033,-2.1399,-2.1554,-2.1434,-2.1585,-2.1585,-2.1434,-2.1444,-2.1372,-2.1229,-2.1229,-2.1302,-1.1755,-1.2063,-1.2592,-1.3091,-1.312,-1.3179,-1.3704,-1.3373,-1.2935,-1.2942,-1.2274,-1.1678,-1.1595,-1.1363,-1.1055,-1.0624,-1.0807,-1.0807,-1.0301,-1.0206,-1.0142,-0.9983,-0.9712,-0.9511,-0.9407,-0.9129,-0.9168,-0.9626,-0.9689,-1.0116,-1.1024,-1.1012,-1.1183,-1.1642,-1.1281,-1.1402,-1.2033,-1.171,-1.18,-1.2231,-1.1523,-1.1446,-1.193,-1.1873,-1.2,-1.2286,-1.2842,-1.3149,-1.3359,-1.3815,-1.3739,-1.3395,-1.4219,-1.472,-1.5085,-1.5849,-1.6591,-1.7256,-1.7675,-1.7786,-1.782,-1.817,-1.8313,-1.8313,-1.8313,-1.8278,-1.8089,-1.7202,-1.7221,-1.7478,-1.7236,-1.7495,-1.8146,-1.9416,-1.9539,-1.9368,-1.9368,-1.9394,-1.9447,-1.9591,-1.9591,-1.9552,-1.9578,-1.9591,-1.9617,-1.9642,-2.0093,-2.0523,-2.0771,-2.1264,-2.1664,-2.1902,-2.1817,-2.1592,-2.118,-2.0908,-2.061,-2.0207,-2.0422,-2.0523,-2.0486,-2.0823,-2.0961,-2.0901,-2.1084,-2.1084,-2.0926,-2.1084,-2.112,-2.0997,-2.0997,-2.1109,-1.1273,-1.157,-1.1903,-1.2938,-1.2552,-1.1765,-1.1114,-1.0978,-1.1316,-1.2458,-1.2097,-1.1523,-1.1379,-1.0742,-1.0242,-1.034,-1.0199,-1.0002,-0.9709,-0.9588,-0.953,-0.9588,-0.9263,-0.9107,-0.9224,-0.8986,-0.9026,-0.9443,-0.9624,-1.0045,-1.0818,-1.0847,-1.0997,-1.1361,-1.1093,-1.091,-1.088,-1.109,-1.1156,0.0,-1.1105,-1.1243,-1.1455,-1.1488,-1.2184,-1.3355,-1.348,-1.3835,-1.425,-1.3635,-1.3681,-1.4154,-1.4072,-1.4378,-1.4917,-1.5569,-1.611,-1.6575,-1.7026,-1.7246,-1.7341,-1.7418,-1.7551,-1.7661,-1.7507,-1.742,-1.7247,-1.6692,-1.674,-1.6985,-1.7031,-1.7495,-1.8144,-1.8852,-1.9052,-1.9105,-1.9223,-1.9277,-1.9408,-1.9692,-1.9408,-1.9226,-1.9565,-1.9512,-1.9591,-2.0003,-2.0346,-2.0648,-2.0934,-2.1155,-2.1302,-2.1375,-2.135,-2.1166,-2.0759,-2.0598,-2.0346,-2.0067,-2.0207,-2.0283,-2.0271,-2.0736,-2.0974,-2.0902,-2.1,-2.1023,-2.0987,-2.1023,-2.1035,-2.0997,-2.0997,-2.1473,-0.9916,-1.0404,-1.1019,-1.1842,-1.1274,-1.0367,-0.9874,-0.9875,-1.0104,-1.0646,-1.0837,-1.0876,-1.0626,-1.0058,-0.9628,-0.9682,-0.9466,-0.9204,-0.8909,-0.8812,-0.8786,-0.8786,-0.8574,-0.8379,-0.8287,-0.8254,-0.835,-0.8602,-0.8901,-0.9395,-1.0148,-1.0432,-1.0753,-1.1182,-1.1025,-1.0951,-1.0973,-1.0998,-1.0941,-1.0794,-1.0947,-1.1285,-1.1833,-1.1841,-1.2396,-1.3415,-1.3414,-1.3541,-1.3725,-1.3111,-1.3292,-1.3959,-1.3706,-1.4132,-1.4945,-1.5423,-1.5935,-1.6405,-1.6778,-1.6909,-1.6937,-1.7172,-1.7172,-1.7078,-1.7106,-1.7115,-1.7062,-1.6673,-1.6889,-1.7223,-1.7162,-1.7552,-1.8045,-1.8486,-1.8771,-1.8946,-1.909,-1.9119,-1.9225,-1.9483,-1.9302,-1.9172,-1.9368,-1.9394,-1.9577,-2.0029,-2.0397,-2.066,-2.0871,-2.1118,-2.1277,-2.1204,-2.1106,-2.0871,-2.0535,-2.0321,-2.0131,-1.9926,-2.0029,-2.0105,-2.0105,-2.0524,-2.0762,-2.0801,-2.0901,-2.0913,-2.085,-2.0913,-2.0924,-2.0848,-2.1189,-2.1683,-0.8438,-0.9059,-1.0024,-1.04,-0.9868,-0.9251,-0.9062,-0.9165,-0.9086,-0.8469,-0.9273,-0.9983,-0.9716,-0.9332,-0.9017,-0.8818,-0.8635,-0.8409,-0.8037,-0.7972,-0.7944,-0.7889,-0.7758,-0.7593,-0.7245,-0.7333,-0.746,-0.7618,-0.8007,-0.8581,-0.9338,-0.992,-1.0491,-1.0996,-1.0988,-1.1085,-1.1272,-1.1025,-1.0857,-1.0744,-1.0937,-1.1553,-1.2539,-1.2482,-1.2778,-1.3346,-1.328,-1.3218,-1.3128,-1.2851,-1.3138,-1.3704,-1.3591,-1.4209,-1.5183,-1.5434,-1.5874,-1.6355,-1.6563,-1.6581,-1.6552,-1.6931,-1.6846,-1.6609,-1.6786,-1.6983,-1.7036,-1.6693,-1.7065,-1.7506,-1.7255,-1.7534,-1.7991,-1.8313,-1.8583,-1.8786,-1.8946,-1.8972,-1.8999,-1.9143,-1.917,-1.9196,-1.9223,-1.9368,-1.9603,-1.999,-2.0346,-2.0635,-2.0759,-2.108,-2.1229,-2.1057,-2.0833,-2.0585,-2.0308,-2.0105,-1.9926,-1.9811,-1.9926,-2.0016,-2.0042,-2.0334,-2.0562,-2.0699,-2.08,-2.08,-2.0699,-2.093,-2.097,-2.0894,-2.1613,-2.2099,-0.774,-0.8232,-0.895,-0.9165,-0.9231,-0.8908,-0.7847,-0.7988,-0.8105,-0.7151,-0.8144,-0.9145,-0.9113,-0.8598,-0.8112,-0.7907,-0.7619,-0.733,-0.7092,-0.7088,-0.7125,-0.7297,-0.7081,-0.6931,-0.6881,-0.673,-0.6711,-0.6912,-0.7405,-0.8026,-0.8755,-0.9592,-1.0238,-1.0656,-1.0873,-1.0762,-1.0279,-1.0687,-1.0653,-1.0128,-1.1062,-1.2058,-1.3096,-1.3081,-1.3518,-1.43,-1.4072,-1.4035,-1.4089,-1.3827,-1.4084,-1.4619,-1.4619,-1.5091,-1.5766,-1.5708,-1.5806,-1.5972,-1.6,-1.6,-1.6,-1.6058,-1.623,-1.6402,-1.6257,-1.6513,-1.6768,-1.6249,-1.6589,-1.7042,-1.6844,-1.7346,-1.7991,-1.8313,-1.8518,-1.8652,-1.8798,-1.8825,-1.8878,-1.8999,-1.9119,-1.9251,-1.9342,-1.9591,-1.9837,-2.0131,-2.0422,-2.061,-2.061,-2.0784,-2.0734,-2.0372,-2.0296,-2.0169,-1.9901,-1.9862,-1.9837,-1.9798,-1.9926,-2.0042,-2.0182,-2.0372,-2.0562,-2.0699,-2.0712,-2.0712,-2.0699,-2.1312,-2.1575,-2.1588,-2.2627,-2.335,-0.7465,-0.7167,-0.7074,-0.7482,-0.7559,-0.7323,-0.6587,-0.6766,-0.7012,-0.6553,-0.7032,-0.7642,-0.7944,-0.7652,-0.7288,-0.7018,-0.6704,-0.6412,-0.6207,-0.6276,-0.6313,-0.6218,-0.6221,-0.6195,-0.613,-0.6219,-0.6391,-0.6654,-0.7159,-0.7772,-0.8561,-0.9271,-0.9944,-1.0586,-1.0895,-1.0975,-1.077,-1.1086,-1.1188,-1.1123,-1.1789,-1.2476,-1.3191,-1.3333,-1.3549,-1.3859,-1.3605,-1.3488,-1.3451,-1.3371,-1.3766,-1.442,-1.4617,-1.502,-1.5508,-1.5449,-1.5449,-1.5537,-1.5575,-1.5633,-1.5662,-1.5856,-1.5943,-1.6029,-1.6095,-1.6324,-1.6549,-1.6374,-1.6609,-1.6922,-1.7005,-1.7297,-1.7645,-1.8018,-1.8209,-1.8356,-1.853,-1.8691,-1.8851,-1.8972,-1.904,-1.9146,-1.9368,-1.9486,-1.972,-2.0131,-2.0296,-2.0422,-2.0585,-2.0585,-2.0447,-2.0105,-2.0029,-1.9939,-1.9798,-1.9734,-1.9759,-1.9901,-1.9914,-1.9939,-2.008,-2.0258,-2.0435,-2.0623,-2.0674,-2.0881,-2.126,-2.1677,-2.2124,-2.2601,-2.3118,-2.3685,-0.7118,-0.6273,-0.5569,-0.6008,-0.5917,-0.5648,-0.5349,-0.5561,-0.5835,-0.5821,-0.5921,-0.6088,-0.6482,-0.6568,-0.6433,-0.6042,-0.5752,-0.5521,-0.5352,-0.5422,-0.5455,-0.5326,-0.5488,-0.5607,-0.5567,-0.5813,-0.61,-0.6381,-0.6954,-0.7596,-0.8354,-0.91,-0.9824,-1.0491,-1.0902,-1.1122,-1.1159,-1.1366,-1.1623,-1.1999,-1.2307,-1.2701,-1.3155,-1.3361,-1.3404,-1.3304,-1.3074,-1.2953,-1.2927,-1.304,-1.3561,-1.4287,-1.4582,-1.4898,-1.5215,-1.5156,-1.5156,-1.5147,-1.5245,-1.5303,-1.5342,-1.5614,-1.5672,-1.5662,-1.5951,-1.6192,-1.6363,-1.6495,-1.6609,-1.6761,-1.7071,-1.7211,-1.7323,-1.7744,-1.7975,-1.8166,-1.8449,-1.8637,-1.8786,-1.8972,-1.8987,-1.9105,-1.9342,-1.957,-1.979,-2.0156,-2.0335,-2.0425,-2.0448,-2.0346,-2.0207,-1.9939,-1.9811,-1.9759,-1.9798,-1.9708,-1.9734,-1.994,-1.985,-1.985,-2.0003,-2.0118,-2.0373,-2.0769,-2.0858,-2.1208,-2.1822,-2.2176,-2.2678,-2.3332,-2.3803,-2.4172,-0.6521,-0.5854,-0.5029,-0.5057,-0.4786,-0.4414,-0.4157,-0.4283,-0.452,-0.4585,-0.4703,-0.4794,-0.4746,-0.5253,-0.5484,-0.496,-0.4761,-0.4658,-0.4658,-0.4489,-0.4553,-0.5054,-0.5113,-0.5219,-0.5396,-0.5547,-0.5684,-0.5834,-0.669,-0.7463,-0.8079,-0.9184,-0.9945,-1.0301,-1.0839,-1.1005,-1.083,-1.1139,-1.1535,-1.1996,-1.2196,-1.2568,-1.3017,-1.3233,-1.3194,-1.3031,-1.302,-1.3082,-1.3199,-1.3534,-1.4066,-1.4688,-1.4903,-1.5079,-1.5186,-1.5068,-1.5,-1.5,-1.5029,-1.5029,-1.5029,-1.5186,-1.5323,-1.5478,-1.5817,-1.6019,-1.6153,-1.6345,-1.6413,-1.6488,-1.6761,-1.6909,-1.7123,-1.759,-1.7893,-1.822,-1.8691,-1.8679,-1.8694,-1.8934,-1.8987,-1.9105,-1.9342,-1.9984,-2.0398,-2.0207,-2.0681,-2.0821,-2.0118,-2.0042,-1.9913,-1.9642,-1.9617,-1.9656,-1.9798,-1.9798,-1.9798,-1.9798,-1.9798,-1.9862,-1.999,-2.0131,-2.054,-2.125,-2.1394,-2.1693,-2.2182,-2.289,-2.3291,-2.3423,-2.5033,-2.523,-0.5695,-0.5292,-0.4792,-0.3816,-0.3396,-0.3142,-0.2806,-0.2938,-0.3224,-0.3333,-0.3689,-0.3946,-0.3746,-0.4123,-0.4389,-0.4192,-0.3892,-0.3694,-0.3694,-0.3756,-0.3856,-0.4061,-0.4392,-0.4671,-0.4861,-0.5115,-0.5328,-0.5475,-0.6458,-0.7245,-0.7644,-0.886,-0.9762,-1.0269,-1.0624,-1.0979,-1.1446,-1.1692,-1.2084,-1.2633,-1.2641,-1.2835,-1.318,-1.305,-1.2866,-1.2657,-1.2592,-1.2865,-1.3407,-1.3724,-1.4112,-1.4597,-1.4745,-1.4843,-1.4872,-1.4734,-1.4684,-1.4714,-1.4911,-1.5,-1.5029,-1.5254,-1.5459,-1.5604,-1.574,-1.5923,-1.6114,-1.6181,-1.6306,-1.6431,-1.6609,-1.6779,-1.7022,-1.7661,-1.7909,-1.81,-1.8572,-1.864,-1.864,-1.8839,-1.8946,-1.9052,-1.9249,-1.9566,-1.9775,-1.9697,-1.9949,-2.0038,-1.9788,-1.9671,-1.9577,-1.9486,-1.9408,-1.9422,-1.9656,-1.9592,-1.9657,-1.9927,-1.9682,-1.9642,-1.9862,-1.9746,-2.0243,-2.1394,-2.1302,-2.1917,-2.3272,-2.3649,-2.419,-2.4871,-2.4954,-2.497,-0.5104,-0.4638,-0.4112,-0.2553,-0.1962,-0.1666,-0.1273,-0.1378,-0.1576,-0.1744,-0.234,-0.2702,-0.2427,-0.2818,-0.3257,-0.3491,-0.3159,-0.2924,-0.3092,-0.3123,-0.3224,-0.3464,-0.3825,-0.4158,-0.4475,-0.481,-0.5122,-0.5393,-0.6441,0.0,-0.7638,-0.8807,-0.9718,-1.039,-1.0656,-1.109,-1.1802,-1.1934,-1.2274,-1.2767,-1.2621,-1.2744,-1.3058,-1.2867,-1.2736,-1.2598,-1.2568,-1.2804,-1.3284,-1.3502,-1.3859,-1.427,-1.4419,-1.4508,-1.4547,-1.4476,-1.4455,-1.4545,-1.4743,-1.4852,-1.4931,-1.5186,-1.5381,-1.5566,-1.5682,-1.5817,-1.598,-1.6009,-1.6134,-1.6288,-1.6477,-1.6694,-1.7032,-1.7634,-1.7799,-1.7936,-1.8356,-1.8533,-1.864,-1.8771,-1.8919,-1.91,-1.9454,-1.9531,-1.9601,-1.9817,-1.9814,-1.9752,-1.9609,-1.949,-1.9394,-1.9394,-1.9277,-1.9263,-1.938,-1.9344,-1.9422,-1.9603,-1.9394,-1.9403,-1.9747,-1.9652,-2.0238,-2.1577,-2.1301,-2.1904,-2.3531,-2.3809,-2.4341,-2.5135,-2.4778,-2.4639,0.0,0.0,0.0,-0.1383,-0.051,0.0,0.0362,0.0435,0.036,0.0105,-0.0626,-0.1108,-0.0842,-0.1411,-0.2153,-0.2855,-0.2522,-0.2356,-0.2889,-0.2624,-0.2658,-0.3397,-0.3491,-0.3723,-0.4233,-0.4582,-0.5014,-0.5547,-0.658,-0.7492,-0.8125,-0.9,-0.9843,-1.0561,-1.0909,-1.131,-1.1771,-1.1771,-1.1957,-1.2274,-1.2151,-1.2251,-1.259,-1.2713,-1.2775,-1.2805,-1.292,-1.2912,-1.2822,-1.2968,-1.332,-1.383,-1.395,-1.4109,-1.4297,-1.4297,-1.4387,-1.4506,-1.4515,-1.4616,-1.4745,-1.4941,-1.5098,-1.5244,-1.5605,-1.5721,-1.575,-1.5876,-1.5905,-1.5992,-1.6327,-1.6694,-1.7067,-1.7412,-1.759,-1.7767,-1.8041,-1.8356,-1.8625,-1.8783,-1.8943,-1.9259,-2.0052,-1.9973,-1.9989,-2.0532,-2.037,-2.001,-1.9626,-1.946,-1.9394,-1.9394,-1.9275,-1.9141,-1.9003,-1.9103,-1.9064,-1.8812,-1.8902,-1.9176,-1.9641,-1.9863,-2.0539,-2.1739,-2.1391,-2.1732,-2.2788,-2.3338,-2.374,-2.4082,-2.4537,-2.4408,-0.5863,0.0,0.0,0.0,0.0,0.0,0.1059,0.1342,0.1297,0.0887,-0.0275,-0.1109,-0.0844,-0.1512,-0.2153,-0.2181,-0.1949,-0.1816,-0.195,-0.2218,-0.2487,-0.2691,-0.3161,-0.3627,-0.3925,-0.4361,-0.4769,0.0,-0.6367,-0.7274,-0.7458,-0.8768,-0.9716,-1.0142,-1.0523,-1.0933,-1.1279,-1.1404,-1.1615,-1.1934,-1.1809,-1.1903,-1.222,-1.212,-1.2274,-1.2652,-1.2683,-1.2749,-1.2811,-1.3095,-1.3485,-1.395,-1.389,-1.4049,-1.4297,-1.4398,-1.4538,-1.4695,-1.4911,-1.498,-1.4961,-1.5225,-1.5264,-1.5302,-1.5831,-1.6068,-1.6138,-1.6168,-1.6257,-1.6346,-1.638,-1.662,-1.6948,-1.7267,-1.7518,-1.7767,-1.7909,-1.81,-1.846,-1.923,-1.9494,-1.9585,-1.9614,-1.9709,-1.9581,-1.8907,-1.903,-1.9155,-1.9042,-1.8975,-1.9037,-1.9223,-1.897,-1.8836,-1.8996,-1.8718,-1.861,-1.8795,-1.8598,-1.8619,-1.8895,-1.9325,-1.9965,-2.0844,-2.0992,-2.1631,-2.2798,-2.2943,-2.3113,-2.331,-2.3483,-2.3327,-0.6545,-0.571,-0.4841,-0.2865,0.0,0.0,0.103,0.1615,0.1918,0.1684,0.0578,-0.024,0.0135,-0.0672,-0.1311,-0.104,-0.1008,-0.1345,-0.2151,-0.2485,-0.2686,-0.2725,-0.3194,-0.3563,-0.3792,-0.4292,-0.4758,-0.509,-0.6342,-0.7321,-0.7934,-0.8871,-0.9562,-0.9894,-1.0149,-1.0523,-1.1052,-1.1028,-1.1247,-1.1709,-1.1498,-1.1591,-1.1965,-1.1809,-1.1996,-1.2467,-1.2344,-1.2436,-1.2744,-1.285,-1.3155,-1.3588,-1.364,-1.389,-1.4198,-1.4339,-1.4508,-1.4745,-1.5029,-1.5068,-1.5029,-1.5196,-1.5176,-1.5195,-1.5584,-1.5958,-1.6216,-1.6216,-1.6307,-1.6397,-1.6304,-1.6381,-1.6581,-1.692,-1.7117,-1.7284,-1.7484,-1.7779,-1.8238,-1.9036,-1.9076,-1.912,-1.9492,-1.9244,-1.8944,-1.8744,-1.8716,-1.8747,-1.8871,-1.8827,-1.8851,-1.9023,-1.8771,-1.8572,-1.8533,-1.8329,-1.8259,-1.834,-1.8209,-1.8448,-1.9127,-1.9524,-2.0232,-2.1272,-2.1268,-2.1564,-2.2218,-2.2483,-2.2658,-2.2828,-2.274,-2.2525,-0.7172,-0.6027,-0.4869,-0.3301,-0.1733,0.0,0.0736,0.154,0.2111,0.2315,0.1544,0.0974,0.148,0.0571,-0.0134,0.0269,-0.0034,-0.0942,-0.2755,-0.2924,-0.2958,-0.3192,-0.3395,-0.3596,-0.3792,-0.4325,-0.4924,-0.555,-0.6465,-0.7577,-0.8888,-0.9145,-0.9408,-0.9734,-0.9766,-1.011,-1.0863,-1.0681,-1.087,-1.1435,-1.1185,-1.1279,-1.1685,-1.1591,-1.1778,-1.2212,-1.1903,-1.2058,-1.2529,-1.2398,-1.2613,-1.3042,-1.3338,-1.367,-1.401,-1.416,-1.4428,-1.4745,-1.497,-1.5,-1.5,-1.5029,-1.5,-1.5019,-1.5232,-1.566,-1.6072,-1.6072,-1.6164,-1.6207,-1.6023,-1.6028,-1.6142,-1.6457,-1.6542,-1.6645,-1.6899,-1.7435,-1.7984,-1.8409,-1.8261,-1.8407,-1.9511,-1.8754,-1.829,-1.9206,-1.8865,-1.8587,-1.8854,-1.8759,-1.8691,-1.8771,-1.8625,-1.8371,-1.7963,-1.7991,-1.7947,-1.7711,-1.791,-1.8581,-1.9767,-2.0176,-2.0956,-2.2226,-2.1824,-2.1511,-2.1332,-2.1884,-2.2273,-2.2457,-2.2149,-2.187,-0.835,-0.7051,-0.5628,-0.346,-0.2558,0.0,0.1433,0.1647,0.1402,0.2036,0.1575,0.1107,0.1311,0.057,0.0067,0.0402,-0.0067,-0.0805,-0.1776,-0.2016,-0.2453,-0.3322,-0.3625,-0.3792,-0.3961,-0.4592,-0.5153,-0.5583,-0.6961,-0.8019,-0.8576,-0.8894,-0.9177,-0.9402,-0.9498,-0.9722,-1.0021,-1.0244,-1.0428,-1.0555,-1.0776,-1.0902,-1.0989,-1.1153,-1.1404,-1.1716,-1.1654,-1.184,-1.222,-1.2436,-1.2713,-1.3019,-1.3072,-1.3407,-1.386,-1.41,-1.4517,-1.497,-1.5117,-1.5088,-1.5029,-1.5127,-1.4961,-1.4896,-1.5747,-1.598,-1.5952,-1.5952,-1.5935,-1.5825,-1.5459,-1.5546,-1.5758,-1.5989,-1.6205,-1.643,-1.6645,-1.723,-1.7777,-1.7858,-1.845,-1.8984,-1.9134,-1.8744,-1.8221,-1.7818,-1.774,-1.7854,-1.822,-1.8057,-1.8084,-1.8598,-1.829,-1.8045,-1.8057,-1.7904,-1.7767,-1.7711,-1.8473,-1.9064,-1.9319,-2.0679,-2.138,-2.135,-2.1506,-2.138,-2.0929,-2.1098,-2.1329,-2.1639,-2.1577,-2.1463,-0.9225,-0.8059,-0.6685,-0.4731,-0.344,0.0,0.0,0.0858,0.1321,0.1165,0.1433,0.1609,0.1354,0.1094,0.1001,0.1115,0.0617,-0.0129,-0.1113,-0.2095,-0.2987,-0.3792,-0.4092,-0.4192,-0.4164,-0.4628,-0.5289,-0.6079,-0.7199,-0.8057,-0.8484,-0.8673,-0.8861,-0.9145,-0.9145,-0.9306,-0.9658,-0.9919,-1.0117,-1.0301,-1.0649,-1.0807,-1.0807,-1.0902,-1.109,-1.1341,-1.1341,-1.1529,-1.1872,-1.2089,-1.2367,-1.2674,-1.2928,-1.3224,-1.358,-1.3791,-1.4121,-1.4517,-1.4636,-1.4656,-1.4608,-1.4695,-1.4692,-1.4765,-1.5442,-1.5991,-1.6314,-1.6236,-1.6091,-1.5918,-1.5598,-1.5566,-1.5645,-1.5822,-1.6098,-1.6415,-1.6677,-1.7378,-1.8009,-1.8166,-1.8412,-1.8546,-1.8394,-1.7921,-1.7473,-1.7272,-1.7507,-1.7772,-1.7963,-1.823,-1.8406,-1.8495,-1.8691,-1.8766,-1.8669,-1.8583,-1.8583,-1.8697,-1.9166,-1.9668,-2.017,-2.1062,-2.1606,-2.1753,-2.1499,-2.1233,-2.0954,-2.0663,-2.0725,-2.1146,-2.0999,-2.0871,-0.9538,-0.8596,-0.7353,-0.5737,-0.4098,-0.2609,0.0,0.0,0.0,0.0775,0.1576,0.2219,0.1728,0.189,0.2064,0.1911,0.1354,0.0501,-0.0768,-0.2259,-0.3467,-0.4061,-0.4261,-0.4328,-0.4367,-0.4731,-0.5425,-0.6544,-0.7237,-0.7811,-0.8353,-0.8408,-0.8592,-0.8929,-0.8902,-0.9058,-0.9467,-0.9776,-1.0039,-1.0322,-1.0645,-1.0776,-1.0713,-1.0744,-1.0839,-1.1003,-1.1028,-1.1247,-1.1622,-1.1747,-1.1996,-1.2305,-1.2736,-1.3042,-1.3238,-1.342,-1.37,-1.3989,-1.424,-1.433,-1.4342,-1.4408,-1.4644,-1.4923,-1.5192,-1.5965,-1.6698,-1.6415,-1.626,-1.6074,-1.5797,-1.5685,-1.567,-1.5854,-1.6119,-1.6473,-1.6827,-1.7604,-1.8281,-1.8455,-1.8197,-1.7915,-1.7791,-1.7111,-1.6712,-1.7078,-1.7517,-1.7851,-1.7946,-1.8566,-1.8874,-1.8563,-1.915,-1.944,-1.916,-1.9287,-1.9465,-1.9595,-1.9823,-2.0274,-2.1056,-2.1302,-2.1656,-2.2087,-2.142,-2.1008,-2.088,-2.0302,-2.0269,-2.0732,-2.0421,-2.0302,-0.8658,-0.7833,-0.6741,-0.4907,-0.4183,-0.3186,-0.0305,0.0,0.0684,0.2137,0.0,0.2646,0.2862,0.0,0.0,0.2239,0.1547,0.0577,-0.0866,-0.1771,-0.2575,-0.3478,-0.3458,-0.3694,-0.4492,-0.5123,-0.5752,-0.6383,-0.6942,-0.7447,-0.787,-0.8121,-0.8368,-0.865,-0.8991,-0.9253,-0.9409,-1.0013,-1.035,-1.0376,-1.0675,-1.0649,-1.0371,-1.053,-1.0656,-1.0649,-1.0776,-1.1122,-1.1622,-1.1747,-1.1934,-1.2151,-1.2498,-1.2744,-1.2928,-1.3329,-1.364,-1.3904,-1.4523,-1.4732,-1.4786,-1.5155,-1.5519,-1.5842,-1.59,-1.6231,-1.6493,-1.5952,-1.5911,-1.5927,-1.5556,-1.5564,-1.5762,-1.6076,-1.6183,-1.6373,-1.6884,-1.7712,-1.8246,-1.7818,-1.7777,-1.7843,-1.7946,-1.72,-1.6666,-1.6807,-1.7234,-1.7694,-1.8121,-1.8386,-1.8682,-1.8989,-1.8996,-1.898,-1.895,-1.9239,-1.9346,-1.925,-2.0188,-2.0726,-2.0663,-2.1237,-2.1412,-2.1094,-2.0955,-2.0635,-2.0031,-1.9769,-1.9857,-2.0204,-2.0031,-1.9976,-0.9305,-0.867,-0.7675,-0.5441,0.0,0.0,-0.084,0.0,0.1112,0.1649,0.0,0.0,0.0,0.0,0.0,0.0,0.1554,0.0723,0.0,-0.0721,-0.1787,-0.3469,-0.3756,0.0,-0.5101,-0.5373,-0.5792,-0.6524,-0.6506,-0.6826,-0.7734,-0.7894,-0.8213,-0.8745,-0.8931,-0.9153,-0.94,-0.9637,-0.9856,-1.005,-1.0353,-1.0364,-1.0142,-1.0466,-1.053,-1.0466,-1.0807,-1.109,-1.1341,-1.1646,-1.1934,-1.212,-1.2344,-1.2459,-1.2552,-1.2858,-1.3133,-1.3397,-1.3916,-1.4241,-1.45,-1.5221,-1.5639,-1.5891,-1.5992,-1.6262,-1.6487,-1.6024,-1.5786,-1.5679,-1.5734,-1.5711,-1.5804,-1.6318,-1.6759,-1.7226,-1.7757,-1.8273,-1.8507,-1.8131,-1.783,-1.7595,-1.7543,-1.6796,-1.6331,-1.6734,-1.7206,-1.7694,-1.8259,-1.8807,-1.9164,-1.9256,-1.9687,-1.9885,-1.9791,-2.0093,-2.031,-2.0353,-2.0691,-2.0766,-2.0492,-2.0657,-2.068,-2.0624,-2.0313,-1.9998,-1.9747,-1.9341,-1.9198,-1.9353,-1.9308,-1.9274,-0.9789,0.0,0.0,0.0,0.0,0.0,0.0,0.0,0.0,0.0,0.1963,0.0,0.0,0.0,0.2507,0.2087,0.0,0.0722,0.0242,-0.0521,-0.1638,-0.3301,-0.409,0.0,0.0,-0.5453,-0.5737,-0.6493,-0.6156,-0.6427,-0.7598,-0.7743,-0.8118,-0.882,-0.8946,-0.9156,-0.9496,-0.9614,-0.9744,-0.9923,-1.0258,-1.0283,-1.0015,-1.0276,-1.0371,-1.0396,-1.0776,-1.1059,-1.1279,-1.1654,-1.1934,-1.212,-1.2243,-1.2336,-1.2398,-1.2621,-1.2893,-1.3186,-1.3738,-1.4197,-1.4695,-1.5426,-1.5757,-1.5916,-1.6129,-1.6327,-1.6445,-1.609,-1.5886,-1.5765,-1.594,-1.5996,-1.62,-1.6745,-1.7307,-1.7847,-1.8375,-1.8664,-1.8675,-1.8248,-1.7869,-1.7488,-1.7126,-1.6538,-1.6353,-1.695,-1.7487,-1.803,-1.8545,-1.9127,-1.9525,-1.9573,-2.0047,-2.0331,-2.0335,-2.047,-2.0579,-2.0663,-2.0588,-2.0431,-2.0135,-2.0073,-2.0087,-2.0172,-1.9704,-1.9473,-1.9473,-1.8875,-1.8573,-1.8573,-1.8573,-1.8573,0.0,0.0,0.0,-0.6333,0.0,0.0,0.0,0.0,-0.0054,0.0,0.0,0.0,0.2397,0.2548,0.2246,0.1451,0.1045,0.0,0.0,-0.1721,-0.2452,-0.2701,-0.412,-0.5156,0.0,-0.5399,-0.5627,-0.6189,-0.6024,-0.6326,-0.7253,-0.7607,-0.8083,-0.8684,-0.9101,-0.9451,-0.9776,-1.0315,-1.0415,-1.0195,-1.0514,-1.0438,-0.9983,-0.9862,-1.0123,-1.0593,-1.0624,-1.0965,-1.1591,-1.1747,-1.1934,-1.212,-1.2243,-1.2428,-1.2621,-1.2897,-1.3171,-1.3524,-1.4367,-1.5155,-1.5771,-1.6026,-1.6088,-1.6149,-1.6482,-1.6447,-1.6263,-1.607,-1.628,-1.6472,-1.6097,-1.6428,-1.7001,-1.7556,-1.7677,-1.7842,-1.8371,-1.864,-1.8575,-1.7793,-1.7758,-1.765,-1.686,-1.6747,-1.699,-1.7575,-1.8249,-1.8797,-1.9135,-1.9188,-1.9425,-2.0009,-1.9714,-1.9626,-2.0074,-1.9873,-1.9585,-1.9299,-1.9569,-1.9638,-1.945,-1.9738,-1.9824,-1.9638,-1.9308,-1.9108,-1.9098,-1.8371,-1.8042,-1.8042,-1.8042,-1.8042,0.0,0.0,-0.8791,-0.7441,0.0,0.0,0.0,0.0,0.0,0.0,0.0,0.0,0.0,0.1386,0.1141,0.0661,0.0056,-0.0573,0.0,-0.2617,-0.3701,-0.4228,-0.4891,-0.5463,-0.5902,-0.5818,-0.5903,-0.6312,-0.6144,-0.6489,-0.7564,-0.7879,-0.8389,-0.9263,-0.9515,-0.9804,-1.0178,-1.0364,-1.0299,-1.0019,-1.0575,-1.0498,-0.9868,-1.0153,-1.049,-1.0868,-1.0769,-1.1171,-1.1853,-1.1962,-1.2089,-1.2243,-1.2436,-1.259,-1.2776,-1.2979,-1.3361,-1.3869,-1.4713,-1.5369,-1.5832,-1.614,-1.6167,-1.6167,-1.6517,-1.6412,-1.6088,-1.5773,-1.5834,-1.5974,-1.5887,-1.627,-1.6851,-1.7432,-1.7759,-1.7998,-1.8303,-1.8108,-1.7694,-1.713,-1.6882,-1.6674,-1.6411,-1.6836,-1.7408,-1.7931,-1.8299,-1.8796,-1.9566,-1.9674,-1.9652,-1.9649,-1.9486,-1.9291,-1.9056,-1.9037,-1.8995,-1.889,-1.9064,-1.9111,-1.8997,-1.9094,-1.921,-1.9264,-1.9175,-1.9031,-1.8908,-1.8438,-1.8144,-1.7974,-1.7623,-1.7554,-1.0608,-1.0132,0.0,-0.8285,-0.7439,0.0,-0.5004,0.0,-0.3506,0.0,0.0,0.0,0.0,-0.0518,-0.06,-0.0901,-0.1406,-0.2023,0.0,-0.4216,-0.5343,-0.567,-0.5559,-0.5763,-0.6499,-0.6348,-0.6328,-0.6646,-0.6577,-0.6858,-0.7731,-0.8118,-0.8678,-0.9473,-0.9775,-1.0041,-1.0306,-1.0396,-1.0264,-0.9953,-1.0622,-1.0613,-1.0044,-1.0386,-1.0804,-1.1172,-1.1001,-1.1386,-1.2168,-1.2132,-1.222,-1.2444,-1.2671,-1.2844,-1.2993,-1.3132,-1.3631,-1.4385,-1.5138,-1.5591,-1.5841,-1.6035,-1.607,-1.6035,-1.6325,-1.6281,-1.6017,-1.5685,-1.5808,-1.6,-1.5974,-1.634,-1.686,-1.7442,-1.7701,-1.7833,-1.787,-1.7582,-1.7152,-1.6619,-1.6402,-1.6354,-1.6419,-1.701,-1.7664,-1.816,-1.8402,-1.8831,-1.9606,-1.9554,-1.9362,-1.9231,-1.9068,-1.8745,-1.818,-1.8378,-1.846,-1.8267,-1.8672,-1.8843,-1.8659,-1.8859,-1.8983,-1.8998,-1.8908,-1.8808,-1.8674,-1.8168,-1.7862,-1.7803,-1.7235,-1.7107]},{"header":{"parameterUnit":"m.s-1","parameterCategory":1,"la1":30.6,"la2":29.2853,"lo1":-89.7004,"lo2":-87.6739,"dy":0.0162,"dx":0.0183,"nx":112,"ny":82,"refTime":"2023-09-11T06:00:00:Z","depth":0,"parameterNumber":3,"parameterNumberName":"V-component_of_WINDS"},"data":[0.0,0.0,0.0,0.0,0.0,0.0,0.0,0.0,0.0,0.0,0.0,0.0,0.0,0.0,0.0,0.0,0.0,0.0,0.0,0.0,0.0,0.0,0.0,0.0,0.0,0.0,0.0,0.0,0.0,0.0,0.0,0.0,0.0,0.0,0.0,0.0,0.0,0.0,0.0,0.0,0.0,0.0,0.0,0.0,0.0,0.0,0.0,0.0,0.0,0.0,0.0,0.0,0.0,0.0,0.0,0.0,0.0,0.0,0.0,0.0,0.0,0.0,0.0,0.0,0.0,0.0,0.0,0.0,0.0,0.0,0.0,0.0,0.0,0.0,0.0,0.0,0.0,0.0,0.0,0.0,0.0,0.0,0.0,0.0,0.0,0.0,0.0,0.0,0.0,0.0,0.9101,0.693,0.263,-0.0909,-0.291,-0.4494,-0.5942,-0.7281,0.0,0.0,0.0,0.0,0.0,0.0,0.0,0.0,0.0,0.0,0.0,0.0,0.0,0.0,0.0,0.0,0.0,0.0,0.0,0.0,0.0,0.0,0.0,0.0,0.0,0.0,0.0,0.0,0.0,0.0,0.0,0.0,0.0,0.0,0.0,0.0,0.0,0.0,0.0,0.0,0.0,0.0,0.0,0.0,0.0,0.0,0.0,0.0,0.0,0.0,0.0,0.0,0.0,0.0,0.0,0.0,0.0,0.0,0.0,0.0,0.0,0.0,0.0,0.0,0.0,0.0,0.0,0.0,0.0,0.0,0.0,0.0,0.0,0.0,0.0,0.0,0.0,0.0,0.0,0.0,0.0,0.0,0.0,0.0,0.0,0.0,0.0,0.0,0.0,0.0,0.0,0.0,0.0,0.0,0.0,0.0,0.0,0.0,0.0,0.0,0.0,0.0,0.0,0.0,0.8889,0.4447,0.1481,-0.0967,-0.2946,-0.4644,-0.6361,-0.8096,0.0,0.0,0.0,0.0,0.0,0.0,0.0,0.0,0.0,0.0,0.0,0.0,0.0,0.0,0.0,0.0,0.0,0.0,0.0,0.0,0.0,0.0,0.0,0.0,0.0,0.0,0.0,0.0,0.0,0.0,0.0,0.0,0.0,0.0,0.0,0.0,0.0,0.0,0.0,0.0,0.0,0.0,0.0,0.0,0.0,0.0,0.0,0.0,0.0,0.0,0.0,0.0,0.0,0.0,0.0,0.0,0.0,0.0,0.0,0.0,0.0,0.0,0.0,0.0,0.0,0.0,0.0,0.0,0.0,0.0,0.0,0.0,0.0,0.0,0.0,0.0,0.0,0.0,0.0,0.0,0.0,0.0,0.0,0.0,0.0,0.0,0.0,0.0,0.0,0.0,0.0,0.0,0.0,0.0,0.0,0.0,0.0,0.0,0.0,0.0,0.0,0.0,0.0,1.0033,0.7341,0.3759,0.1358,-0.0852,-0.2892,-0.4627,-0.6264,-0.7756,-0.7859,0.0,0.0,0.0,0.0,0.0,0.0,0.0,0.0,0.0,0.0,0.0,0.0,0.0,0.0,0.0,0.0,0.0,0.0,0.0,0.0,0.0,0.0,0.0,0.0,0.0,0.0,0.0,0.0,0.0,0.0,0.0,0.0,0.0,0.0,0.0,0.0,0.0,0.0,0.0,0.0,0.0,0.0,0.0,0.0,0.0,0.0,0.0,0.0,0.0,0.0,0.0,0.0,0.0,0.0,0.0,0.0,0.0,0.0,0.0,0.0,0.0,0.0,0.0,0.0,0.0,0.0,0.0,0.0,0.0,0.0,0.0,0.0,0.0,0.0,0.0,0.0,0.0,0.0,0.0,0.0,0.0,0.0,0.0,0.0,0.0,0.0,0.0,0.0,0.0,0.0,0.0,0.0,0.0,0.0,0.0,0.0,0.0,0.0,0.0,0.0,0.0,0.0,0.8312,0.6102,0.3616,0.1456,-0.0649,-0.2749,-0.4576,-0.6137,-0.7365,-0.7991,0.0,0.0,0.0,0.0,0.0,0.0,0.0,0.0,0.0,0.0,0.0,0.0,0.0,0.0,0.0,0.0,0.0,0.0,0.0,0.0,0.0,0.0,0.0,0.0,0.0,0.0,0.0,0.0,0.0,0.0,0.0,0.0,0.0,0.0,0.0,0.0,0.0,0.0,0.0,0.0,0.0,0.0,0.0,0.0,0.0,0.0,0.0,0.0,0.0,0.0,0.0,0.0,0.0,0.0,0.0,0.0,0.0,0.0,0.0,0.0,0.0,0.0,0.0,0.0,0.0,0.0,0.0,0.0,0.0,0.0,0.0,0.0,0.0,0.0,0.0,0.0,0.0,0.0,0.0,0.0,0.0,0.0,0.0,0.0,0.0,0.0,0.0,0.0,0.0,0.0,0.0,0.0,0.0,0.0,0.0,0.0,0.0,0.0,0.0,0.0,0.0,0.0,0.8452,0.6141,0.3578,0.154,-0.0443,-0.2471,-0.4509,-0.6222,-0.7509,-0.8097,0.0,0.0,0.0,0.0,0.0,0.0,0.0,0.0,0.0,0.0,0.0,0.0,0.0,0.0,0.0,0.0,0.0,0.0,0.0,0.0,0.0,0.0,0.0,0.0,0.0,0.0,0.0,0.0,0.0,0.0,0.0,0.0,0.0,0.0,0.0,0.0,0.0,0.0,0.0,0.0,0.0,0.0,0.0,0.0,0.0,0.0,0.0,0.0,0.0,0.0,0.0,0.0,0.0,0.0,0.0,0.0,0.0,0.0,0.0,0.0,0.0,0.0,0.0,0.0,0.0,0.0,0.0,0.0,0.0,0.0,0.0,0.0,0.0,0.0,0.0,0.0,0.0,0.0,0.0,0.0,0.0,0.0,0.0,0.0,0.0,0.0,0.0,0.0,0.0,0.0,0.0,0.0,0.0,0.0,0.0,0.0,0.0,0.0,0.0,0.0,0.0,0.0,0.8457,0.6199,0.3809,0.1766,-0.0134,-0.1947,-0.3875,-0.5483,-0.6654,0.0,0.0,0.0,0.0,0.0,0.0,0.0,0.0,0.0,0.0,0.0,0.0,0.0,0.0,0.0,0.0,0.0,0.0,0.0,0.0,0.0,0.0,0.0,0.0,0.0,0.0,0.0,0.0,0.0,0.0,0.0,0.0,0.0,0.0,0.0,0.0,0.0,0.0,0.0,0.0,0.0,0.0,0.0,0.0,0.0,0.0,0.0,0.0,0.0,0.0,0.0,0.0,0.0,0.0,0.0,0.0,0.0,0.0,0.0,0.0,0.0,0.0,0.0,0.0,0.0,0.0,0.0,0.0,0.0,0.0,0.0,0.0,0.0,0.0,0.0,0.0,0.0,0.0,0.0,0.0,0.0,0.0,0.0,0.0,0.0,0.0,0.0,0.0,0.0,0.0,0.0,0.0,0.0,0.0,0.0,0.0,0.0,0.0,0.0,0.0,0.0,0.0,1.0584,0.8453,0.6265,0.3941,0.2023,0.0223,-0.1552,-0.3251,-0.4703,-0.5823,0.0,0.0,0.0,0.0,0.0,0.0,0.0,0.0,0.0,0.0,0.0,0.0,0.0,0.0,0.0,0.0,0.0,0.0,0.0,0.0,0.0,0.0,0.0,0.0,0.0,0.0,0.0,0.0,0.0,0.0,0.0,0.0,0.0,0.0,0.0,0.0,0.0,0.0,0.0,0.0,0.0,0.0,0.0,0.0,0.0,0.0,0.0,0.0,0.0,0.0,0.0,0.0,0.0,0.0,0.0,0.0,0.0,0.0,0.0,0.0,0.0,0.0,0.0,0.0,0.0,0.0,0.0,0.0,0.0,0.0,0.0,0.0,0.0,0.0,0.0,0.0,0.0,0.0,0.0,0.0,0.0,0.0,0.0,0.0,0.0,0.0,0.0,0.0,0.0,0.0,0.0,0.0,0.0,0.0,0.0,0.0,0.0,0.0,0.0,0.0,0.0,0.0,1.0418,0.847,0.6376,0.3978,0.2312,0.0622,-0.1305,-0.2706,-0.3956,0.0,0.0,0.0,0.0,0.0,0.0,0.0,0.0,0.0,0.0,0.0,0.0,0.0,0.0,0.0,0.0,0.0,0.0,0.0,0.0,0.0,0.0,0.0,0.0,0.0,0.0,0.0,0.0,0.0,0.0,0.0,0.0,0.0,0.0,0.0,0.0,0.0,0.0,0.0,0.0,0.0,0.0,0.0,0.0,0.0,0.0,0.0,0.0,0.0,0.0,0.0,0.0,0.0,0.0,0.0,0.0,0.0,0.0,0.0,0.0,0.0,0.0,0.0,0.0,0.0,0.0,0.0,0.0,0.0,0.0,0.0,0.0,0.0,0.0,0.0,0.0,0.0,0.0,0.0,0.0,0.0,0.0,0.0,0.0,0.0,0.0,0.0,0.0,0.0,0.0,0.0,0.0,0.0,0.0,0.0,0.0,0.0,0.0,0.0,0.0,0.0,0.0,0.0,1.0573,0.8555,0.6554,0.4564,0.2969,0.1366,-0.0297,-0.1599,-0.2747,-0.3728,0.0,0.0,0.0,0.0,0.0,0.0,0.0,0.0,0.0,0.0,0.0,0.0,0.0,0.0,0.0,0.0,0.0,0.0,0.0,0.0,0.0,0.0,0.0,0.0,0.0,0.0,0.0,0.0,0.0,0.0,0.0,0.0,0.0,0.0,0.0,0.0,0.0,0.0,0.0,0.0,0.0,0.0,0.0,0.0,0.0,0.0,0.0,0.0,0.0,0.0,0.0,0.0,0.0,0.0,0.0,0.0,0.0,0.0,0.0,0.0,0.0,0.0,0.0,0.0,0.0,0.0,0.0,0.0,0.0,0.0,0.0,0.0,0.0,0.0,0.0,0.0,0.0,0.0,0.0,0.0,0.0,0.0,0.0,0.0,0.0,0.0,0.0,0.0,0.0,0.0,0.0,0.0,0.0,0.0,0.0,0.0,0.0,0.0,0.0,0.0,0.0,0.0,1.0319,0.8497,0.6662,0.4847,0.3371,0.1903,0.0497,-0.054,-0.153,-0.2559,0.0,0.0,0.0,0.0,0.0,0.0,0.0,0.0,0.0,0.0,0.0,0.0,0.0,0.0,0.0,0.0,0.0,0.0,0.0,0.0,0.0,0.0,0.0,0.0,0.0,0.0,0.0,0.0,0.0,0.0,0.0,0.0,0.0,0.0,0.0,0.0,0.0,0.0,0.0,0.0,0.0,0.0,0.0,0.0,0.0,0.0,0.0,0.0,0.0,0.0,0.0,0.0,0.0,0.0,0.0,0.0,0.0,0.0,0.0,0.0,0.0,0.0,0.0,0.0,0.0,0.0,0.0,0.0,0.0,0.0,0.0,0.0,0.0,0.0,0.0,0.0,0.0,0.0,0.0,0.0,0.0,0.0,0.0,0.0,0.0,0.0,0.0,0.0,0.0,0.0,0.0,0.0,0.0,0.0,0.0,0.0,0.0,0.0,0.0,0.0,0.0,0.0,0.99,0.8443,0.6846,0.4996,0.3667,0.2425,0.1133,0.0448,-0.0367,-0.1377,0.0,0.0,0.0,0.0,0.0,0.0,0.0,0.0,0.0,0.0,0.0,0.0,0.0,0.0,0.0,0.0,0.0,0.0,0.0,0.0,0.0,0.0,0.0,0.0,0.0,0.0,0.0,0.0,0.0,0.0,0.0,0.0,0.0,0.0,0.0,0.0,0.0,0.0,0.0,0.0,0.0,0.0,0.0,0.0,0.0,0.0,0.0,0.0,0.0,0.0,0.0,0.0,0.0,0.0,0.0,0.0,0.0,0.0,0.0,0.0,0.4355,0.0,0.0,0.0,0.0,0.0,0.0,0.0,0.0,0.0,0.0,0.0,0.0,0.0,0.0,0.0,0.0,0.0,0.0,0.0,0.0,0.0,0.0,0.0,0.0,0.0,0.0,0.0,0.0,0.0,0.0,0.0,0.0,0.0,0.0,0.0,0.0,0.0,0.0,0.0,0.0,0.0,1.0162,0.8806,0.7387,0.5806,0.4553,0.3313,0.2015,0.1503,0.0989,0.0395,0.0,0.0,0.0,0.0,0.0,0.0,0.0,0.0,0.0,0.0,0.0,0.0,0.0,0.0,0.0,0.0,0.0,0.0,0.0,0.0,0.0,0.0,0.0,0.0,0.0,0.0,0.0,0.0,0.0,0.0,0.0,0.0,0.0,0.0,0.0,0.0,0.0,0.0,0.0,0.0,0.0,0.0,0.0,0.0,0.0,0.0,0.0,0.0,0.0,0.0,0.0,0.0,0.0,0.0,0.0,0.0,0.0,0.0,0.0,0.0,0.0,0.536,0.0,0.0,0.0,0.0,0.0,0.0,0.0,0.0,0.0,0.0,0.0,0.0,0.0,0.0,0.0,0.0,0.0,0.0,0.0,0.0,0.0,0.0,0.0,0.0,0.0,0.0,0.0,0.0,0.0,0.0,0.0,0.0,0.0,0.0,0.0,0.0,0.0,0.0,0.0,0.0,1.0239,0.908,0.7884,0.6507,0.527,0.4107,0.3057,0.2585,0.2193,0.184,0.1604,0.0,0.0,0.0,0.0,0.0,0.0,0.0,0.0,0.0,0.0,0.0,0.0,0.0,0.0,0.0,0.0,0.0,0.0,0.0,0.0,0.0,0.0,0.0,0.0,0.0,0.0,0.0,0.0,0.0,0.0,0.0,0.0,0.0,0.0,0.0,0.0,0.0,0.0,0.0,0.0,0.0,0.0,0.0,0.0,0.0,0.0,0.0,0.0,0.0,0.0,0.0,0.0,0.0,1.0324,1.0244,1.0516,0.9915,0.9542,0.928,0.7874,0.6916,0.6339,0.6448,0.0,0.0,0.0,0.0,0.0,0.0,0.0,0.0,0.0,0.0,0.0,0.0,0.0,0.0,0.0,0.0,0.0,0.0,0.0,0.0,0.0,0.0,0.0,0.0,1.2911,1.2903,1.2028,0.0,0.0,0.0,0.0,0.0,0.0,0.0,0.0,0.0,0.0,0.0,1.0159,0.93,0.8326,0.716,0.5954,0.4888,0.4114,0.3641,0.3327,0.3209,0.3169,0.2934,0.0,0.0,0.0,0.0,0.0,0.0,0.0,0.0,0.0,0.0,0.0,0.0,0.0,0.0,0.0,0.0,0.0,0.0,0.0,0.0,0.0,0.0,0.0,0.0,0.0,0.0,0.0,0.0,0.0,0.0,0.0,0.0,1.6026,1.5549,0.0,0.0,0.0,0.0,0.0,0.0,0.0,0.0,0.0,0.0,0.0,0.0,0.0,1.1777,1.176,1.1505,1.1324,1.1225,1.0842,1.0703,1.0744,1.0014,0.9662,0.9626,0.9044,0.0,0.8012,0.7172,0.0,0.0,0.0,0.0,0.0,0.0,0.0,0.0,0.0,0.0,0.0,0.0,0.0,0.0,0.0,0.0,0.0,0.0,0.0,0.0,0.0,0.0,1.2926,1.3155,1.3459,1.361,0.0,1.2752,1.2142,1.163,1.1479,0.0,0.0,0.0,0.0,0.0,0.0,0.0,0.993,0.9431,0.8751,0.7686,0.6657,0.578,0.5162,0.4737,0.454,0.4691,0.454,0.4501,0.4572,0.4343,0.0,0.0,0.0,0.0,0.0,0.0,0.0,0.0,0.0,0.0,0.0,0.0,0.0,0.0,0.0,0.0,0.0,0.0,0.0,0.0,0.0,0.0,0.0,0.0,0.0,0.0,0.0,0.0,0.0,1.7123,1.7201,1.7494,1.6417,1.5929,0.0,0.0,0.0,0.0,0.0,0.0,0.0,0.0,0.0,1.2937,1.2479,1.2253,1.2225,1.2025,1.1827,1.1621,1.1491,1.1314,1.1073,1.0563,1.0327,1.0286,0.9904,0.9602,0.9332,0.8371,0.823,0.8549,0.0,0.0,0.0,0.0,0.8014,0.8471,0.823,0.8522,0.9005,0.9069,0.0,0.0,0.0,0.0,0.0,0.0,0.0,0.0,0.0,0.0,1.3255,1.3511,1.3696,1.3731,1.3541,1.3208,1.2812,0.0,1.2381,1.223,1.1074,0.0,0.0,0.0,0.0,1.1179,1.0652,1.0242,0.969,0.8921,0.7886,0.7007,0.6433,0.6015,0.5744,0.5661,0.5857,0.597,0.6047,0.5736,0.5288,0.0,0.0,0.0,0.0,0.0,0.0,0.0,0.0,0.0,0.0,0.0,0.0,0.0,0.0,0.0,0.0,0.0,0.0,0.0,0.0,0.0,0.0,0.0,0.0,0.0,0.0,0.0,0.0,1.7923,1.8214,1.9005,1.7605,1.7024,0.0,0.0,0.0,0.0,0.0,0.0,1.5541,1.4952,1.4262,1.3508,1.2924,1.2645,1.2708,1.2412,1.2191,1.1997,1.1931,1.1698,1.1363,1.0994,1.0792,1.0799,1.0454,1.0285,1.0229,0.943,0.9095,0.9114,0.883,0.8869,0.9022,0.8635,0.881,0.927,0.9098,0.9486,1.0059,1.0123,1.0446,1.08,1.0598,0.0,0.0,0.0,0.0,1.2891,1.305,1.331,1.3584,1.3798,1.3965,1.404,1.3812,1.3752,1.3532,0.0,1.3027,1.2972,1.1694,0.0,0.0,0.0,0.0,1.184,1.1323,1.1062,1.0634,0.9914,0.9087,0.8309,0.7625,0.7207,0.6903,0.678,0.7049,0.7266,0.7352,0.7072,0.6613,0.6014,0.0,0.0,0.0,0.0,0.0,0.0,0.0,0.0,0.0,0.0,0.0,0.0,0.0,0.0,0.0,0.0,0.0,0.0,0.0,0.0,0.0,0.0,0.0,0.0,0.0,0.0,0.0,0.0,0.0,1.9077,1.8507,0.0,0.0,0.0,0.0,1.7471,1.6894,1.6062,1.4998,1.4593,1.4285,1.3976,1.3329,1.307,1.3265,1.2736,1.2429,1.2298,1.1948,1.1729,1.158,1.1038,1.0785,1.0785,1.0633,1.0569,1.0552,1.0048,0.9974,1.0147,1.0095,1.0227,1.0404,1.0509,1.0573,1.06,1.0527,1.0618,1.0769,1.0965,1.1341,1.1771,1.1934,1.212,0.0,0.0,1.2958,1.305,1.3241,1.3718,1.4139,1.4006,1.4476,1.4852,1.4538,1.444,1.4124,0.0,1.282,1.2753,1.2491,0.0,1.2451,1.2274,1.2274,1.2081,1.1543,1.169,1.1416,1.0298,0.9949,0.948,0.8699,0.8237,0.8084,0.8284,0.8127,0.8203,0.8603,0.8241,0.7983,0.7863,0.7534,0.0,0.0,0.0,0.0,0.0,0.0,0.0,0.0,0.0,0.0,0.0,0.0,0.0,0.0,0.0,0.0,0.0,0.0,0.0,0.0,0.0,0.0,0.0,0.0,0.0,0.0,0.0,0.0,1.9955,1.903,0.0,1.9605,1.8445,1.7828,1.824,1.7922,1.7296,1.6286,1.6028,1.5572,1.4914,1.4394,1.4127,1.4198,1.3485,1.3117,1.3056,1.2552,1.2212,1.2027,1.1615,1.1428,1.1428,1.131,1.1279,1.1356,1.109,1.0823,1.0601,1.0731,1.079,1.0842,1.1031,1.1092,1.1072,1.1062,1.131,1.1685,1.1926,1.2212,1.2459,1.2644,1.2797,1.3033,1.3407,1.3567,1.3675,1.3838,1.4052,1.4243,1.4417,1.4616,1.4765,1.4639,1.4569,1.4341,1.3803,1.3549,1.3338,1.3064,1.3202,1.3255,1.2976,1.313,1.3125,1.2712,1.2801,1.2691,1.2064,1.1673,1.1124,1.0319,0.9755,0.9193,0.8627,0.8889,0.9143,0.9286,0.9158,0.899,0.8839,0.8447,0.8192,0.0,0.0,0.0,0.0,0.0,0.0,0.0,0.0,0.0,0.0,0.0,0.0,0.0,0.0,0.0,0.0,0.0,0.0,0.0,0.0,0.0,0.0,0.0,0.0,0.0,2.0411,2.063,2.0424,1.9612,1.9331,1.9977,1.898,1.8444,1.8822,1.85,1.7966,1.7196,1.695,1.6512,1.5833,1.5226,1.4896,1.4879,1.423,1.3802,1.3551,1.324,1.2972,1.2758,1.2505,1.2319,1.2232,1.211,1.2019,1.1996,1.1905,1.1661,1.1323,1.1084,1.1022,1.1038,1.0993,1.095,1.1033,1.1463,1.1996,1.2484,1.2895,1.3172,1.3373,1.3288,1.3403,1.359,1.3776,1.3835,1.3932,1.424,1.4382,1.4562,1.4862,1.5009,1.504,1.4844,1.4854,1.4804,1.4389,1.404,1.3791,1.3726,1.383,1.3907,1.3798,1.3923,1.392,1.364,1.3712,1.3647,1.3269,1.2965,1.2492,1.1761,1.0947,1.023,0.9636,0.9879,0.9943,0.9795,0.9997,0.9986,0.9707,0.9699,0.9732,0.9735,0.0,0.0,0.0,0.0,0.0,0.0,0.0,0.0,0.0,0.0,0.0,0.0,0.0,0.0,0.0,0.0,0.0,0.0,0.0,0.0,0.0,0.0,0.0,2.0305,2.0322,2.044,2.0423,2.0308,2.0233,2.0286,1.9686,1.9228,1.9093,1.8497,1.7947,1.7551,1.7196,1.6888,1.6627,1.5825,1.5347,1.5237,1.4898,1.4395,1.376,1.3927,1.3923,1.3722,1.3563,1.3377,1.3122,1.296,1.2709,1.2435,1.2406,1.2406,1.2318,1.1264,1.1003,1.1078,1.0581,1.0379,1.0566,1.189,1.2697,1.3235,1.3811,1.4237,1.4427,1.3976,1.396,1.4034,1.3864,1.3716,1.3746,1.4362,1.4748,1.508,1.5352,1.5673,1.575,1.5164,1.5391,1.5469,1.4686,1.4151,1.4001,1.4449,1.4357,1.4336,1.4656,1.4586,0.0,1.4249,1.4294,1.4158,1.3777,1.376,1.3505,1.3005,1.1817,1.1208,1.1428,1.1095,1.0706,1.0282,1.085,1.0962,1.0588,1.1347,1.2168,1.2956,0.0,0.0,0.0,0.0,0.0,0.0,0.0,0.0,0.0,0.0,0.0,0.0,0.0,0.0,0.0,0.0,0.0,0.0,0.0,0.0,0.0,2.2097,2.2098,2.1628,2.1568,2.1424,2.1094,2.0634,2.0275,2.0105,1.9473,1.9027,1.8892,1.8627,1.8344,1.8088,1.7546,1.7162,1.7039,1.6099,1.5711,1.5911,1.5303,1.4995,1.4996,1.4326,1.4142,1.4401,1.367,1.3455,1.358,1.3209,1.3,1.2889,1.2694,1.287,1.3211,1.267,1.2373,1.2257,1.2314,1.2336,1.24,1.2873,1.3449,1.3986,1.4144,1.4421,1.4629,1.4495,1.4127,1.381,1.4195,1.3966,1.3747,1.4446,1.4894,1.5196,1.5371,1.5728,1.598,1.5701,1.5672,1.5643,1.54,1.5079,1.4835,1.4872,1.4695,1.4636,1.4882,1.4684,0.0,1.4764,1.4845,1.4818,1.4656,1.4644,1.4421,1.3882,1.3437,1.2927,1.2295,1.2314,1.2198,1.194,1.2107,1.2328,1.2652,1.2997,1.3397,0.0,0.0,0.0,0.0,0.0,0.0,0.0,0.0,0.0,0.0,0.0,0.0,0.0,0.0,0.0,0.0,0.0,0.0,0.0,0.0,0.0,0.0,2.2855,2.2925,2.2826,2.2364,2.1907,2.1551,2.0836,2.0246,1.991,1.9403,1.9076,1.8935,1.8946,1.8881,1.8774,1.8002,1.7469,1.7283,1.6447,1.5979,1.5924,1.5627,1.5415,1.5279,1.4842,1.4751,1.4919,1.4434,1.4249,1.4253,1.3866,1.3576,1.3374,1.3135,1.3251,0.0,0.0,0.0,0.0,0.0,1.2873,1.3206,1.3338,1.3748,1.4299,1.4702,1.4895,1.4965,1.4982,1.4703,1.441,1.4673,1.459,1.4553,1.5216,1.5497,1.5719,1.5936,1.6177,1.6285,1.598,1.598,1.598,1.5633,1.5594,0.0,1.541,1.5167,1.5031,1.5157,1.499,1.4941,1.5068,1.4999,1.5026,1.5272,1.5222,1.512,1.5006,1.4449,0.0,0.0,0.0,1.3266,1.3324,1.3157,0.0,0.0,0.0,1.48,1.525,0.0,0.0,0.0,1.5895,1.5828,0.0,0.0,0.0,0.0,0.0,0.0,0.0,0.0,0.0,0.0,0.0,0.0,0.0,0.0,0.0,0.0,2.3794,2.3798,2.3952,2.3054,2.2267,2.1935,2.1086,2.0335,1.9856,1.9646,1.9427,1.9203,1.9382,1.9462,1.94,1.8475,0.0,0.0,0.0,1.6124,1.5614,1.5861,1.5701,1.5132,1.5387,1.547,1.5403,1.5457,1.53,1.4985,1.4665,1.4285,1.3872,1.3681,1.3645,1.3661,1.2927,1.2903,1.3164,1.2572,1.2842,1.3508,1.356,0.0,0.0,1.5232,1.546,1.5377,1.5444,1.5444,1.5408,1.526,1.5352,1.5608,1.6172,1.6314,1.64,1.6691,1.6786,1.6666,1.6116,1.6335,1.64,1.5671,1.5875,1.6126,1.5943,1.5642,1.5409,1.5439,1.5381,1.5352,1.5302,1.5027,1.5079,1.5702,0.0,0.0,1.6017,1.5026,1.4468,1.4699,1.4221,1.41,1.4442,1.4148,1.4148,1.4522,1.5463,1.6201,1.6685,1.6854,1.7153,1.7493,1.6448,1.6123,0.0,0.0,0.0,0.0,0.0,0.0,0.0,0.0,0.0,0.0,0.0,0.0,0.0,0.0,0.0,2.4378,2.4576,2.4716,2.4977,2.4486,2.3706,2.2649,2.2168,2.1532,2.0592,2.0795,2.0646,1.981,2.0024,1.9977,1.9431,1.8595,1.7885,1.7335,1.6618,1.6213,1.6138,1.6065,1.5958,1.589,0.0,0.0,1.6098,1.5529,1.5383,1.5594,1.4952,1.4552,1.4352,1.4211,1.4341,1.462,1.4349,1.4432,1.469,1.4535,1.4616,1.4686,1.422,1.4419,1.4916,1.5013,1.5415,1.588,1.588,1.5778,0.0,1.5993,1.5789,1.5632,1.6169,1.6379,1.6503,1.6616,1.6786,1.6909,1.6666,1.6705,1.6694,1.6428,1.6428,1.641,1.6124,1.57,1.5459,1.5604,1.5332,1.5272,1.5838,1.5736,1.5775,1.6208,1.637,1.6287,1.5811,1.564,1.5503,1.5334,1.5357,1.5431,1.5507,1.5683,1.5833,1.5912,1.6568,1.6996,1.707,1.7292,1.7405,1.748,1.7109,1.689,0.0,0.0,0.0,0.0,0.0,0.0,0.0,0.0,0.0,0.0,0.0,2.4823,2.5012,0.0,2.4646,2.5089,2.5272,2.5349,2.54,2.5269,2.4748,2.3623,2.282,2.2074,2.1316,2.1296,2.1088,2.0448,2.0711,2.0596,1.9884,1.9097,1.8274,1.7438,1.6882,1.6486,1.6244,1.6367,1.6377,1.6208,1.6091,1.6091,1.6127,1.5846,1.5764,1.5878,1.537,1.5108,1.504,1.4949,1.4937,1.504,1.5412,1.5519,1.5411,1.5189,1.5198,1.5283,1.4818,1.4794,1.5082,1.5597,1.5883,1.6126,1.664,1.6685,1.658,1.6779,1.6738,1.6654,1.6918,1.7039,1.7106,1.7127,1.72,1.7217,1.7071,1.6959,1.6874,1.6729,1.6648,1.6555,1.6371,1.6017,1.5748,1.5788,1.5614,1.5527,1.5703,1.5787,1.5846,1.5995,1.6469,1.663,1.6295,1.644,1.6444,1.6221,1.6192,1.6254,1.6333,1.6403,1.6542,1.6751,1.7063,1.727,1.7432,1.7554,1.7588,1.7588,1.751,1.7201,0.0,0.0,0.0,0.0,0.0,0.0,0.0,2.6323,2.6548,2.6705,2.6456,2.633,2.6712,2.6136,2.5666,2.5735,2.5793,2.5795,2.5631,2.5666,2.5403,2.4634,2.3502,2.2583,2.2053,2.18,2.1453,2.0901,2.1323,2.1152,2.0128,1.9542,1.8696,1.7542,1.7235,1.6854,1.6362,1.6705,1.6714,1.6389,1.65,1.6392,1.6132,1.6275,1.6275,1.6154,1.5856,1.5734,1.5734,1.5635,1.5501,1.5414,1.6099,1.6149,1.5823,1.5487,1.551,1.5666,1.5326,1.5131,1.5222,1.6223,1.6433,1.6477,1.7361,1.7649,1.7629,1.7621,1.772,1.7849,1.7849,1.7767,1.7684,1.769,1.7584,1.7423,1.7334,1.7166,1.7015,1.686,1.6744,1.6651,1.6609,1.6379,1.6151,1.5961,1.5904,1.5818,1.5645,1.579,1.5919,1.5928,1.66,1.6978,1.6869,1.7037,1.7089,1.6961,1.6853,1.6855,1.7038,1.6855,1.6925,1.7235,1.727,1.7432,1.7706,1.775,1.775,1.775,1.775,1.7407,2.6065,2.6688,2.7946,2.8972,2.8408,2.8066,0.0,2.9592,2.8819,2.8132,2.8425,2.8371,2.6961,2.6398,2.6136,2.6207,2.6082,2.5974,2.5956,2.5793,2.5645,2.5457,2.4697,2.3794,2.2797,2.2933,2.2425,2.0841,2.1682,2.138,1.9348,1.9489,1.8965,1.7546,1.7418,1.7204,1.6918,1.6897,1.6812,1.6654,1.6675,1.6654,1.6633,1.6748,1.6812,1.6791,1.6389,1.6225,1.6204,1.6032,1.6066,1.6253,1.6227,1.6198,1.6146,1.6228,1.6209,1.608,1.5678,1.5558,1.5699,1.6174,1.6668,1.7165,1.7627,1.8096,1.8463,1.8471,1.8398,1.8313,1.8313,1.8014,1.7711,1.7684,1.7501,1.7334,1.7306,1.7278,1.7211,1.7011,1.6965,1.6881,1.6627,1.657,1.6428,1.6114,1.597,1.6024,1.6347,1.6407,1.6583,1.7074,1.736,1.7386,1.7091,1.6983,1.6988,1.7068,1.7286,1.7461,1.7604,1.7451,1.7426,1.747,1.7579,1.7672,1.7706,1.7896,1.7974,1.7974,1.7974,1.7769,2.8006,2.8121,2.8677,2.9475,2.9523,2.9632,3.0625,3.0827,3.0668,3.0219,2.9919,2.9496,2.8757,2.7554,2.6657,2.6607,2.6453,2.6312,2.6189,2.61,2.6012,2.5956,2.5381,2.4685,2.3882,2.3673,2.3213,2.2329,2.2532,2.1906,2.0133,2.0011,1.9304,1.7828,1.7727,1.7577,1.7303,1.7337,1.7287,1.7112,1.7149,1.7094,1.7002,1.7141,1.712,1.6939,1.6778,1.665,1.6522,1.6522,1.65,1.6457,1.647,1.6405,1.6321,1.63,1.6251,1.6182,1.6019,1.6022,1.6232,1.6939,1.734,1.7675,1.8406,1.8672,1.8706,1.8614,1.8491,1.8367,1.8259,1.8084,1.7931,1.7938,1.7789,1.7629,1.7556,1.7473,1.7356,1.7211,1.7088,1.6976,1.6853,1.6768,1.6637,1.6428,1.6171,1.6089,1.6262,1.6397,1.6818,1.7568,1.7494,1.7511,1.7886,1.7801,1.7778,1.7902,1.7842,1.7803,1.7862,1.7803,1.7779,1.7779,1.7964,1.81,1.8168,1.8245,1.8184,1.7956,1.8093,1.8016,2.9251,2.9283,2.958,3.0272,3.0717,3.1078,3.1546,3.1854,3.1975,3.1754,3.096,3.0204,2.9828,2.8319,2.714,2.7129,2.6843,2.6588,2.6543,2.6375,2.6259,2.6205,2.5772,2.532,2.4871,2.4323,2.3813,2.3368,2.3024,2.2199,2.0685,2.028,1.9496,1.8208,1.8055,1.7895,1.7639,1.7733,1.7699,1.7549,1.7604,1.7509,1.7337,1.7412,1.7337,1.7191,1.7128,1.7036,1.6888,1.696,1.6842,1.665,1.6727,1.6684,1.6543,1.6448,1.6365,1.6268,1.6352,1.6426,1.6607,1.7409,1.7738,1.797,1.8747,1.8929,1.8813,1.8706,1.8545,1.8422,1.822,1.8034,1.7847,1.7838,1.7738,1.7594,1.749,1.7495,1.7467,1.7379,1.7211,1.7071,1.7011,1.6909,1.6807,1.6627,1.64,1.6228,1.6181,1.6434,1.684,1.7526,1.7463,1.7642,1.8285,1.8345,1.8414,1.8583,1.8313,1.8178,1.8212,1.8178,1.8144,1.8144,1.8269,1.8414,1.8516,1.8318,1.8141,1.7906,1.8052,1.8022,2.9561,3.049,3.1696,3.2416,3.248,3.2585,3.3579,3.3219,3.2572,3.2251,3.1478,3.0516,2.9346,2.823,2.7598,2.7912,2.725,2.6774,2.7038,2.6561,2.6203,2.6202,2.5899,2.5682,2.5682,2.495,2.4122,2.3263,2.2888,2.2047,2.0489,2.0023,1.9424,1.8606,1.8383,1.8187,1.7988,1.7988,1.7955,1.7882,1.7882,1.7821,1.7679,1.755,1.755,1.7659,1.7466,1.7384,1.7363,1.7253,1.7115,1.6981,1.6981,1.6981,1.6981,1.6981,1.6735,1.6442,1.6765,1.6795,1.6771,1.7177,1.7577,1.7969,1.8311,1.8706,1.8972,1.8825,1.8706,1.856,1.8422,1.7802,1.7236,1.7236,1.7082,1.6917,1.6928,1.7236,1.7507,1.7496,1.7368,1.7239,1.7039,1.7011,1.6899,1.6627,1.6581,1.6524,1.6402,1.662,1.6797,1.6828,1.7467,1.7896,1.7926,1.8275,1.8583,1.8774,1.8617,1.8583,1.8774,1.8583,1.8482,1.8482,1.8482,1.8516,1.8516,1.7909,1.7733,1.7906,1.77,1.7733,3.0539,3.1525,3.2325,3.3164,3.3572,3.393,3.4397,3.4181,3.385,3.3623,3.2784,3.1916,3.1397,2.988,2.8785,2.9134,2.7874,2.6995,2.7439,2.667,2.6117,2.6241,2.5899,2.5659,2.5701,2.5208,2.4716,2.4287,2.3866,2.2939,2.1356,2.0845,2.001,1.8774,1.8669,1.8548,1.8333,1.8333,1.8274,1.8175,1.8175,1.8141,1.8095,1.7996,1.7935,1.7895,1.7699,1.761,1.759,1.7447,1.7372,1.7344,1.7344,1.7303,1.7267,1.7274,1.717,1.7049,1.6994,1.691,1.6948,1.7624,1.7922,1.8151,1.8764,1.9036,1.9064,1.8759,1.864,1.8463,1.7885,1.7546,1.7247,1.6882,1.7014,1.7175,1.6962,1.7284,1.759,1.7407,1.7334,1.7278,1.7211,1.72,1.7117,1.6899,1.6637,1.6459,1.6402,1.6479,1.6686,1.7094,1.7346,1.7657,1.8062,1.8007,1.8181,1.8631,1.8392,1.8393,1.8798,1.8952,1.8975,1.8908,1.8975,1.9019,1.9019,1.8326,1.7927,1.7769,1.7485,1.7323,3.1398,3.2399,3.3267,3.4077,3.4552,3.484,3.4889,3.4784,3.4626,3.4409,3.3596,3.2863,3.2629,3.119,3.0034,2.9995,2.8687,2.7682,2.7634,2.6833,2.626,2.6259,2.5934,2.5715,2.5772,2.5473,2.5182,2.489,2.3986,2.298,2.1868,2.0981,2.0041,1.9055,1.8988,1.8893,1.8716,1.8716,1.8659,1.8548,1.8489,1.8456,1.8461,1.8313,1.8214,1.8175,1.7983,1.7882,1.7882,1.7788,1.7713,1.7652,1.7652,1.7625,1.759,1.7584,1.757,1.7529,1.7178,1.7086,1.7165,1.7771,1.7888,1.7961,1.8755,1.8905,1.8811,1.87,1.8537,1.8272,1.7696,1.7268,1.6913,1.672,1.6914,1.7174,1.7073,1.7404,1.7645,1.749,1.7362,1.7306,1.7306,1.7306,1.7267,1.7145,1.6835,1.6591,1.6477,1.6431,1.6574,1.699,1.7198,1.7489,1.7926,1.7851,1.8041,1.868,1.8456,1.8534,1.9054,1.9274,1.9374,1.9274,1.9216,1.9132,1.9077,1.8194,1.7647,1.7359,1.7144,1.7012,3.218,3.313,3.4522,3.5155,3.5367,3.5366,3.5168,3.5064,3.4931,3.463,3.3941,3.3327,3.3059,3.2196,3.125,3.0507,2.9653,2.8726,2.7667,2.706,2.6606,2.6257,2.6058,2.5948,2.5915,2.5712,2.5448,2.5045,2.3366,2.2282,2.2052,2.0542,1.9586,1.9413,1.9358,1.925,1.912,1.912,1.9078,1.9012,1.8841,1.8755,1.8803,1.8481,1.8411,1.8517,1.8321,1.8242,1.8222,1.8222,1.8089,1.7922,1.7922,1.7922,1.7902,1.7902,1.7902,1.7842,1.7365,1.7282,1.7416,1.7643,1.7533,1.746,1.8326,1.8433,1.8313,1.8672,1.8405,1.7962,1.7812,1.6967,1.6296,1.6644,1.6769,1.6902,1.7274,1.7543,1.7705,1.77,1.749,1.7306,1.7306,1.7306,1.7306,1.7306,1.7134,1.6927,1.6627,1.6477,1.6459,1.6609,1.6998,1.733,1.7488,1.7752,1.8175,1.8828,1.8776,1.8976,1.9584,1.9605,1.9594,1.9573,1.9126,1.8829,1.8669,1.7542,1.6917,1.6797,1.6767,1.6757,3.3695,3.4561,3.5369,3.5566,3.5568,3.5552,3.5543,3.5421,3.529,3.5258,3.4955,3.4666,3.4497,3.3645,3.2647,3.1649,3.0201,2.8853,2.793,2.7462,2.7001,2.6415,2.6559,2.6524,2.6021,2.5791,2.5567,2.532,2.4128,2.3139,2.2478,2.1286,2.0324,1.965,1.9599,1.9508,1.9339,1.9321,1.9284,1.9209,1.9209,1.9153,1.9026,1.8936,1.8889,1.886,1.8653,1.8576,1.8556,1.8352,1.824,1.8181,1.8129,1.8123,1.8109,1.7968,1.7902,1.7862,1.7468,1.724,1.7221,1.7913,1.7804,1.7508,1.8216,1.8547,1.8583,1.8283,1.8172,1.8008,1.7364,1.6713,1.6103,1.5753,1.6248,1.6761,1.6681,1.7193,1.77,1.7711,1.7629,1.7518,1.7334,1.7473,1.7573,1.7451,1.7423,1.719,1.6655,1.6581,1.6609,1.6722,1.6857,1.7056,1.7322,1.7629,1.8042,1.8503,1.8868,1.9244,1.9594,1.9857,1.976,1.9308,1.9041,1.8701,1.832,1.7335,1.6827,1.6787,1.6343,1.6191,3.4517,3.5143,3.5772,3.5753,3.5747,3.5712,3.5631,3.5553,3.5461,3.5426,3.5383,3.5335,3.5154,3.4551,3.3685,3.2485,3.1271,3.0015,2.8784,2.8387,2.8022,2.7475,2.7251,2.6965,2.6521,2.61,2.5738,2.5549,2.4279,2.3235,2.2642,2.1417,2.0459,1.9887,1.9851,1.9741,1.9527,1.9505,1.9487,1.9472,1.9431,1.9376,1.9321,1.9228,1.9134,1.9021,0.0,1.8736,1.8736,1.8548,1.847,1.847,1.8484,1.8445,1.84,1.824,1.8115,1.7983,1.7645,1.7295,1.714,1.8091,1.7799,1.7285,1.8265,1.8487,1.8277,1.793,1.7894,1.7749,1.7014,1.6598,1.6334,1.6174,1.6705,1.726,1.7263,1.7489,1.7672,1.7622,1.7606,1.7595,1.7573,1.7629,1.77,1.7689,1.7879,1.7778,1.7082,1.6881,1.6853,1.7076,1.7184,1.7384,1.7763,1.7781,1.8105,1.8776,1.8935,1.9334,2.0128,2.0188,2.0082,1.9825,1.9166,1.8682,1.8289,1.7501,1.6988,1.6784,1.6496,1.6353,3.497,3.5326,3.588,3.5831,3.5844,3.5838,3.5611,3.5585,3.558,3.5407,3.5619,3.5738,3.5434,3.5218,3.4611,3.3185,3.2562,3.1639,2.9873,2.9591,2.9333,2.8795,2.8018,2.7419,2.7191,2.6512,2.5974,2.5738,2.4245,2.3169,2.2697,2.1257,2.0339,2.0133,2.0061,1.9937,1.9747,1.9705,1.9705,1.9744,1.956,1.9538,1.9611,1.9413,1.9265,1.912,1.8917,1.8803,1.8765,1.8731,1.8673,1.8634,1.8721,1.8736,1.8673,1.8517,1.8341,1.8129,1.7801,1.7431,1.7265,1.8198,1.7664,1.6935,1.8285,1.8263,1.7722,1.7556,1.7544,1.7411,1.6858,1.6669,1.6712,1.7123,1.7508,1.7896,1.8225,1.8008,1.7714,1.7559,1.7573,1.7729,1.7881,1.7893,1.792,1.7991,1.8491,1.8555,1.7701,1.7317,1.722,1.7451,1.7599,1.7849,1.8278,1.8102,1.8406,1.9359,1.9135,1.9527,2.0799,2.0457,2.0281,2.0405,1.931,1.8601,1.8316,1.7734,1.7245,1.6835,1.6937,1.6853,3.5776,3.5823,3.5905,3.5892,3.586,3.5821,3.5825,3.5796,3.5762,3.578,3.6443,3.6758,3.5957,3.6241,3.5982,3.4028,3.3361,3.2437,3.0508,3.0612,3.0381,2.91,2.8713,2.8265,2.757,2.6904,2.6329,2.5899,2.5112,2.4218,2.3145,2.1534,2.0526,2.0254,2.015,2.008,2.003,2.0131,2.0096,1.9937,1.9902,1.9812,1.9672,1.9593,1.9483,1.9339,1.9139,0.0,1.8553,1.8659,1.8537,1.8288,1.8484,1.8615,1.8653,1.8361,1.8169,1.7982,1.7639,1.7639,1.7825,1.8336,1.7606,1.6748,1.7812,1.7821,1.7419,1.7165,1.7185,1.7296,1.7399,1.711,1.6834,1.7122,1.7513,1.779,1.7746,1.7894,1.7952,1.7705,1.8073,1.8356,1.8104,1.8467,1.8747,1.8652,1.9199,1.9258,1.8294,1.798,1.7697,1.7375,1.7207,1.7314,1.779,1.8525,1.9123,1.9526,2.0007,2.0392,2.0638,2.0153,1.972,1.9384,1.8765,1.8244,1.7835,1.7429,1.7162,1.6955,1.6881,1.6807,3.5838,3.5873,3.5882,3.5862,3.581,3.5799,3.5803,3.5773,3.5761,3.5825,3.6573,3.6939,3.6055,3.6417,3.6359,3.4814,3.4215,3.3437,3.1994,3.1935,3.1679,3.0768,3.0175,2.9484,2.8558,2.7879,2.7028,2.5879,2.5245,2.4401,2.3268,2.1654,2.0694,2.0561,2.046,2.0357,2.0256,2.0287,2.027,2.0216,2.0076,1.999,2.0008,1.9795,1.9629,1.9501,1.9302,1.9064,1.8803,1.8846,1.8788,1.8678,1.876,1.8846,1.8822,1.8392,1.8141,1.7962,1.757,1.7416,1.751,1.8254,1.783,1.7166,1.7894,1.7972,1.767,1.6893,1.7345,1.7917,1.7431,1.747,1.7666,1.7798,1.8064,1.8263,1.8099,1.8335,1.8526,1.8394,1.8536,1.8664,1.8575,1.864,1.8732,1.8893,1.9335,1.9412,1.8753,1.8675,1.8396,1.7689,1.799,1.8289,1.8329,1.8762,1.9221,1.9667,1.9843,2.0135,2.0629,2.023,1.9905,1.9694,1.9109,1.8604,1.8166,1.7947,1.7689,1.7457,1.7401,1.7301,3.5722,3.5819,3.5883,3.583,3.5826,3.5817,3.5759,3.5739,3.5759,3.58,3.6657,3.7159,3.6323,3.6678,3.6765,3.5797,3.5146,3.4403,3.3401,3.3208,3.2846,3.2003,3.1392,3.0505,2.9145,2.8612,2.7657,2.6025,2.5116,2.4139,2.3045,2.1643,2.0876,2.0876,2.0826,2.0711,2.0495,2.0443,2.0424,2.0405,2.0181,2.0113,2.0218,1.9922,1.9723,1.9593,1.9395,1.9176,1.8988,1.8998,1.8979,1.8936,1.9007,1.9003,1.8903,1.845,1.8161,1.7942,1.7536,1.7261,1.7256,1.8015,1.783,1.7426,1.8152,1.8204,1.7843,1.7023,1.7704,1.8469,1.7621,1.7944,1.8511,1.8581,1.8738,1.8842,1.8708,1.8994,1.9231,1.9099,1.9211,1.93,1.9141,1.8961,1.8917,1.9105,1.9432,1.9494,1.9112,1.936,1.9192,1.8151,1.8677,1.903,1.8854,1.8971,1.9297,1.9796,1.9616,1.9833,2.0596,2.0232,2.0005,2.0033,1.9444,1.896,1.864,1.8476,1.8247,1.8018,1.7925,1.7772,3.5788,3.584,3.5896,3.5885,3.5894,3.5896,3.5873,3.5887,3.5885,3.5887,3.7211,3.8104,3.7232,3.777,3.8057,3.7153,3.6216,3.518,3.3982,3.4124,3.3493,3.1199,3.1442,3.0828,2.8357,2.8334,2.7939,2.6623,2.4996,2.3556,2.2358,2.1585,2.1167,2.1167,2.1167,2.1022,2.0778,2.0828,2.0696,2.0405,2.0304,2.0183,2.0023,1.9866,1.9723,1.9593,1.9395,1.9045,0.0,1.8903,1.8755,1.8403,1.8707,1.8822,1.8779,1.8366,1.8115,1.7942,1.7536,1.7586,1.7777,1.7642,1.714,1.6873,1.8442,1.824,1.7537,1.7919,1.8143,1.8302,1.8572,1.8694,1.8868,1.9219,1.924,1.9186,1.9291,1.9775,2.0023,1.948,2.0303,2.0757,1.9726,1.9972,2.0132,1.9613,1.9875,1.9915,1.9259,1.9948,1.9988,1.867,1.8351,1.8331,1.8592,1.9183,1.965,1.9948,2.0065,2.0217,2.0417,1.9709,1.9348,1.9468,1.9062,1.8825,1.8771,1.853,1.8394,1.834,1.8045,1.7826,3.5639,3.5798,3.6014,3.6492,3.6222,3.5981,3.6504,3.6183,3.5795,3.5872,3.7249,3.8198,3.7416,3.7949,3.8141,3.7027,3.606,3.5136,3.4221,3.4183,3.3611,3.1851,3.1834,3.1034,2.8717,2.8381,2.7536,2.5661,2.4429,2.3374,2.2476,2.1825,2.1466,2.1496,2.1496,2.1387,2.1151,2.1103,2.0925,2.0644,2.0477,2.039,2.0289,2.0043,1.9884,1.9827,1.9593,1.9242,0.0,1.9093,1.9003,1.8778,1.9271,1.9248,1.8974,1.8797,1.8438,1.7942,1.7536,1.7361,1.7342,1.7553,1.7217,1.6964,1.8163,1.8001,1.7551,1.8228,1.8684,1.9002,1.9324,1.9522,1.9646,1.9643,1.9604,1.9592,1.9721,1.9999,2.0191,2.0092,2.0383,2.0469,1.9925,1.9841,1.9772,1.9615,1.9605,1.956,1.9447,1.9629,1.9576,1.9115,1.9005,1.8873,1.8729,1.9123,1.9512,1.986,1.986,1.994,2.015,1.978,1.9512,1.9394,1.9237,1.9078,1.8919,1.8744,1.861,1.8518,1.8302,1.803,3.5585,3.5742,3.6003,3.6565,3.6259,3.5904,3.6271,3.6052,3.572,3.5576,3.7076,3.8261,3.7752,3.812,3.8178,3.7149,3.6008,3.4995,3.4266,3.4124,3.3625,3.2381,3.2147,3.1343,2.9481,2.8713,2.7486,2.5456,2.4413,2.3638,2.3111,2.222,2.1708,2.1723,2.1721,2.1616,2.1371,2.1278,2.1087,2.0794,2.0662,2.0578,2.0544,2.0254,2.0078,1.9988,1.9759,1.9417,0.0,1.9269,1.9246,1.9055,1.9522,1.9469,1.9046,1.9007,1.8601,1.8042,1.7706,1.7399,1.7238,1.7529,1.735,1.7222,1.8129,1.8147,1.8002,1.8714,1.9324,1.9799,2.0001,2.0149,2.022,2.0131,2.0029,2.0029,2.0258,2.0463,2.0643,2.0638,2.0733,2.0681,2.0246,1.9987,1.9803,1.9681,1.9473,1.9394,1.9591,1.9394,1.9302,1.9447,1.9485,1.9314,1.894,1.9184,1.9486,1.9773,1.9785,1.9849,1.999,1.9862,1.9656,1.942,1.9368,1.9237,1.8987,1.8866,1.8732,1.8587,1.8464,1.815,3.5667,3.5744,3.5801,3.5809,3.5816,3.5586,3.4812,3.5286,3.5663,3.4881,3.6738,3.8495,3.8486,3.8498,3.838,3.795,3.6315,3.4875,3.4191,3.4098,3.3645,3.2444,3.2296,3.1824,3.0603,2.9336,2.8006,2.6588,2.5242,2.4398,2.4192,2.2787,2.1926,2.1796,2.1805,2.1642,2.1293,2.1293,2.1135,2.0794,2.0794,2.0745,2.0693,2.0561,2.0306,1.999,1.9856,1.9492,0.0,1.9439,1.9354,1.9012,1.9221,1.9186,1.8974,1.8783,1.8523,1.8266,1.8048,1.7955,1.7842,1.7509,1.7399,1.7573,1.8593,1.8898,1.8992,1.9543,2.0116,2.0585,2.0597,2.0485,2.0472,2.0734,2.0585,2.0498,2.0909,2.1373,2.156,2.1078,2.1694,2.1929,2.0781,2.0759,2.0637,1.9912,1.9682,1.9617,1.9617,1.9486,1.9447,1.9591,1.9473,1.9354,1.9208,1.9565,1.9798,1.9798,2.0042,2.0131,2.0016,1.9862,1.9656,1.942,1.9275,1.9143,1.8987,1.8866,1.8732,1.8587,1.8464,1.815,3.564,3.5682,3.5811,3.6409,3.6078,3.5553,3.5389,3.5566,3.5547,3.4785,3.6158,3.7667,3.8319,3.8362,3.8344,3.8477,3.7029,3.5465,3.4334,3.4134,3.352,3.1952,3.0953,2.9832,2.8454,2.7811,2.7088,2.611,2.536,2.4559,2.3572,2.2944,2.2408,2.1957,2.188,2.1764,2.1588,2.1527,2.1356,2.1071,2.1071,2.1038,2.0957,2.0645,2.0477,2.0458,2.0135,1.9656,1.9101,1.9503,1.9288,1.8797,1.9594,1.9626,1.9226,1.9392,1.9052,1.8489,1.8266,1.8005,1.7754,1.7625,1.7537,1.7593,1.8349,1.8468,1.8596,1.9734,2.0588,2.1142,2.1142,2.1044,2.0983,2.1044,2.0934,2.0835,2.0959,2.1105,2.1184,2.1023,2.1214,2.127,2.0825,2.064,2.0451,2.0118,1.9785,1.963,1.9734,1.9604,1.9539,1.9617,1.972,1.9733,1.9486,1.9656,1.9888,2.0054,2.0144,2.0169,2.0131,2.0016,1.981,1.955,1.9499,1.9393,1.9281,1.9153,1.8905,1.8587,1.8329,1.8014,3.5707,3.5711,3.5804,3.6341,3.5822,3.5084,3.4815,3.5019,3.4985,3.4101,3.5476,3.712,3.7972,3.7718,3.7571,3.8165,3.6689,3.5186,3.4464,3.3782,3.2674,3.0757,3.0314,2.9404,2.7422,2.7571,2.7332,2.6225,2.5645,2.4859,2.3747,2.3319,2.275,2.203,2.1897,2.1796,2.1709,2.1664,2.1543,2.1357,2.1294,2.1246,2.1198,2.0892,2.0711,2.0645,2.034,1.9831,0.0,1.9594,1.9383,1.8904,1.9626,1.9654,1.9324,1.9526,1.9255,1.8736,1.8641,1.8372,1.8054,1.8022,1.8174,1.848,1.9032,1.9104,1.9239,2.0338,2.1002,2.1399,2.1399,2.135,2.1302,2.135,2.1253,2.118,2.1277,2.1229,2.118,2.1229,2.1131,2.1057,2.097,2.0822,2.0648,2.0447,2.0245,2.0093,2.0042,1.9965,1.9862,1.9746,1.9939,1.9965,1.9708,1.9914,2.0105,2.0182,2.0322,2.0334,2.0207,2.0131,1.9939,1.9615,1.9591,1.9523,1.9334,1.9153,1.8893,1.8587,1.8247,1.7959,0.0,3.5741,3.569,3.5696,3.5071,3.4257,3.3378,3.3847,0.0,3.3178,3.4897,3.6819,3.7644,3.6844,3.6378,3.7347,3.5713,3.4353,3.4457,3.3142,3.1414,2.9392,3.0446,3.0259,2.754,2.8305,2.8329,2.6791,2.6064,2.5302,2.4472,2.3816,2.3032,2.2061,2.1869,2.1768,2.1709,2.1709,2.1664,2.1604,2.148,2.1402,2.1402,2.1199,2.0941,0.0,2.0475,2.0019,0.0,1.9699,1.9552,1.9205,1.9358,1.9376,1.9298,1.9301,1.9188,1.9031,1.9097,1.8941,1.8673,1.8537,1.9086,1.9891,2.0325,2.0506,2.0694,2.1236,2.1423,2.1423,2.1399,2.1399,2.1423,2.1568,2.1496,2.1471,2.1722,2.1592,2.1447,2.1568,2.1375,2.1204,2.1204,2.1204,2.1131,2.0883,2.0921,2.086,2.0472,2.0422,2.0321,2.0067,2.0156,2.0144,1.9862,2.0246,2.041,2.0207,2.0498,2.0549,2.0207,2.0182,2.0003,1.9604,1.9617,1.9473,1.9208,1.8958,1.8732,1.8587,1.8275,1.7975,3.5814,0.0,3.4736,3.4725,3.4017,3.3233,0.0,3.3568,3.4225,3.4619,3.5609,3.6829,3.8339,3.7565,3.7098,3.8337,3.6781,3.494,3.3508,3.2409,3.174,3.1723,3.1568,3.0808,2.917,2.819,2.7301,2.6461,2.6411,2.5673,2.3908,2.4044,2.3551,2.2197,2.1978,2.1816,2.1709,2.1709,2.1694,2.1679,2.1588,2.1542,2.1542,2.1247,2.1054,2.0957,2.0575,0.0,1.97,1.9763,1.9516,1.9156,1.9438,1.9457,1.9317,1.9349,1.9305,1.9232,1.9253,1.9027,1.8711,1.838,1.9037,1.9946,1.9963,2.0612,2.1366,2.1382,2.1471,2.1544,2.1423,2.1399,2.1423,2.1447,2.1423,2.1423,2.1496,2.1447,2.1423,2.1447,2.1399,2.135,2.135,2.1277,2.118,2.1131,2.097,2.0809,2.0734,2.061,2.0498,2.0321,2.0562,2.0575,2.0131,2.0348,2.0412,2.0207,2.0423,2.0423,2.0207,2.0105,1.9952,1.9759,1.9655,1.9511,1.9342,1.9196,1.8919,1.8587,1.8533,1.8263,3.5627,3.5313,3.5078,3.5383,3.4417,3.357,3.426,3.4403,3.4628,3.5378,3.6112,3.7019,3.8336,3.725,3.6567,3.7789,3.5975,3.3788,3.1964,3.1203,3.0828,3.0803,3.0357,2.9728,2.8985,2.8071,2.7158,2.6321,2.6735,2.6014,2.3727,2.4247,2.3855,2.2168,2.1963,2.1862,2.1738,2.1738,2.1723,2.1709,2.1635,2.1542,2.1466,2.1231,2.1135,2.1086,2.0693,0.0,2.0118,2.0002,1.9773,1.9513,1.9594,1.9584,1.9487,1.9516,1.9468,1.9362,1.9461,1.922,1.896,1.9389,1.9817,2.0208,2.0597,2.1259,2.1793,2.1496,2.1496,2.1568,2.1423,2.145,2.1499,2.1496,2.1536,2.1564,2.1509,2.1447,2.1399,2.1399,2.135,2.1326,2.1399,2.1399,2.1375,2.1375,2.1313,2.1202,2.108,2.0968,2.0782,2.051,2.0736,2.0737,2.0322,2.0513,2.0588,2.0347,2.0474,2.0436,2.0207,2.0067,1.9901,1.9708,1.9577,1.9433,1.9302,1.917,1.8946,1.8706,1.8706,1.8608,3.5393,3.5653,3.5996,3.6167,3.5011,3.418,3.5559,3.5293,3.4992,3.5949,3.67,3.7451,3.8276,3.6789,3.5782,3.6815,3.4556,3.2219,3.0984,3.0301,2.982,2.946,2.89,2.8484,2.837,2.8065,2.7366,2.6161,2.6779,2.612,2.3599,2.4252,2.3896,2.212,2.1993,2.1971,2.2038,2.1978,2.1868,2.1724,2.1749,2.1641,2.1371,2.1278,2.1199,2.1119,0.0,0.0,2.051,2.0254,2.008,1.999,1.9818,1.9729,1.9723,1.974,1.9622,1.9493,1.974,1.9509,1.9339,2.0621,2.0713,2.0503,2.144,2.1983,2.2147,2.1664,2.1592,2.1616,2.1447,2.1512,2.1588,2.1568,2.165,2.1667,2.1582,2.1471,2.1375,2.1399,2.1302,2.1277,2.1375,2.152,2.1616,2.1616,2.1712,2.1688,2.1471,2.1272,2.1051,2.0709,2.0822,2.0787,2.0501,2.0788,2.0861,2.0575,2.0576,2.0475,2.0169,2.0054,1.9849,1.963,1.9512,1.9368,1.9223,1.9105,1.8972,1.8825,1.8881,1.9006,3.5327,3.6121,3.6613,3.4443,3.3439,3.3228,3.4127,3.4153,3.4699,3.7231,3.7934,3.838,3.9307,3.7603,3.6356,3.7259,3.4344,3.2224,3.2996,3.1398,3.081,3.2561,3.0869,2.9588,2.9624,2.842,2.7053,2.5624,2.6054,2.534,2.2965,2.3499,2.3403,2.2383,2.2214,2.2461,2.3061,2.2788,2.2365,2.1783,2.2351,2.2303,2.1723,2.148,2.134,2.1246,0.0,2.0744,2.066,2.039,2.02,2.0083,2.0039,1.9929,1.9789,1.9908,1.9861,1.9803,2.024,2.0113,1.9872,2.0546,2.0627,2.0584,2.1176,2.1908,2.2466,2.217,2.202,2.1864,2.1496,2.1496,2.1568,2.1447,2.1364,2.1329,2.1399,2.1326,2.1253,2.1375,2.1375,2.1375,2.1399,2.152,2.1616,2.1616,2.1616,2.1616,2.1568,2.1248,2.1015,2.0959,2.0964,2.0941,2.0839,2.1133,2.1218,2.0938,2.0663,2.0373,2.0042,1.9901,1.9811,1.9773,1.9759,1.9604,1.9368,1.9342,1.921,1.8984,1.9332,1.9499,3.5512,3.6518,3.7224,3.5367,3.4427,3.4166,3.5092,3.4509,3.4364,3.6303,3.6795,3.7077,3.77,3.674,3.5559,3.4591,3.2318,3.0728,3.0924,3.0,2.9709,3.0886,2.9824,2.9062,2.9302,2.8438,2.7419,2.6295,2.6782,2.605,2.3588,2.413,2.3898,2.2549,2.2415,2.2485,2.2764,2.2934,2.2831,2.2453,2.2358,2.2114,2.1738,2.1617,2.1542,2.145,0.0,2.099,2.0957,2.0644,2.0475,2.0409,2.0258,2.0152,2.0106,2.0421,2.051,2.0573,2.1394,2.0946,2.0197,2.1355,2.118,2.0667,2.1533,2.2107,2.2449,2.2254,2.2208,2.2114,2.1722,2.178,2.1846,2.1485,2.1447,2.1485,2.1326,2.1229,2.1229,2.1277,2.135,2.1423,2.1496,2.1616,2.1722,2.1793,2.1746,2.1712,2.1701,2.1345,2.1088,2.101,2.101,2.0997,2.097,2.1166,2.1169,2.0926,2.06,2.0309,2.0016,1.9862,1.9773,1.9682,1.9682,1.9617,1.9394,1.9328,1.9275,1.9223,1.9622,2.002,3.5377,3.6501,3.7408,3.6163,3.5618,3.556,3.635,3.5254,3.4413,3.5609,3.582,3.5826,3.5891,3.5618,3.4462,3.1684,3.0656,2.9939,2.9162,2.8759,2.8686,2.9129,2.8659,2.8406,2.8664,2.8335,2.7761,2.6983,2.7362,2.6599,2.426,2.4646,2.4235,2.2724,2.2594,2.2592,2.2668,2.3124,2.3184,2.2837,2.2406,2.208,2.1873,2.1844,2.1769,2.1679,2.145,2.1294,2.1215,2.0941,2.0793,2.0676,2.0475,2.0448,2.0582,2.0969,2.1256,2.1592,2.2295,2.159,2.0578,2.1972,2.1552,2.0712,2.1919,2.2394,2.2477,2.2385,2.2294,2.2186,2.1837,2.1817,2.1803,2.152,2.1606,2.1667,2.135,2.1277,2.1253,2.1253,2.135,2.1496,2.1592,2.1749,2.193,2.1996,2.1949,2.1878,2.1811,2.1455,2.1164,2.1023,2.0995,2.1004,2.1088,2.1251,2.1218,2.0962,2.0725,2.0448,2.0156,2.0016,1.9888,1.9734,1.9734,1.9668,1.9551,1.9582,1.967,1.9801,2.035,2.0847,3.4494,3.5693,3.6782,3.5192,3.5794,3.6795,3.6931,3.5897,3.5287,3.6624,3.6449,3.5868,3.5215,3.4857,3.3556,3.0139,3.0791,3.1351,3.0256,2.9223,2.8954,2.9905,2.8987,2.8304,2.834,2.8182,2.7779,2.7049,2.6862,2.6053,2.4374,2.4224,2.3776,2.2907,2.2747,2.3033,2.3767,2.3843,2.3378,2.2442,2.288,2.2847,2.2349,2.222,2.2089,2.1969,2.1825,2.1616,2.1371,2.1293,2.1038,2.0693,2.0676,2.0898,2.1242,2.134,2.2048,2.2858,2.2261,2.1635,2.1202,2.1693,2.1241,2.0755,2.2161,2.2652,2.2772,2.2749,2.2318,2.1804,2.1655,2.1299,2.1093,2.1479,2.1616,2.1616,2.1592,2.1471,2.1399,2.1399,2.1496,2.1592,2.1616,2.1924,2.2118,2.2034,2.2114,2.2091,2.1817,2.1447,2.1155,2.1021,2.0938,2.1025,2.1337,2.1616,2.164,2.1375,2.1229,2.0983,2.056,2.0422,2.0296,2.0156,2.0156,2.008,1.9965,2.0509,2.0856,2.1001,2.1949,2.2275,3.4724,3.5625,3.6356,3.5869,3.5928,3.6026,3.5809,3.4323,3.3371,3.4633,3.4331,3.3813,3.3652,3.2394,3.1055,3.0117,2.9849,2.9649,2.9204,2.8788,2.8626,2.8889,2.8643,2.8384,2.8313,2.8291,2.8152,2.783,2.7188,2.634,2.5226,2.4649,2.3939,2.3038,2.3047,2.3415,2.4143,2.4108,2.3871,2.3459,2.3542,2.3173,2.246,2.2321,2.2206,2.2118,2.1884,2.1736,2.1631,2.1433,2.1246,2.1055,2.0809,2.105,2.1586,2.2053,2.2728,2.337,2.3029,2.2275,2.1528,2.1978,2.1441,2.0862,2.2206,2.2569,2.256,2.256,2.1707,2.1,2.1778,2.162,2.1326,2.155,2.1722,2.1807,2.1647,2.1571,2.1568,2.1725,2.1807,2.1926,2.2184,2.2385,2.2523,2.2549,2.2509,2.2347,2.2091,2.1616,2.1229,2.1008,2.0985,2.1084,2.1375,2.1568,2.1616,2.1423,2.1277,2.1068,2.0734,2.051,2.0372,2.0321,2.0321,2.0346,2.0372,2.0617,2.0835,2.1051,2.1694,2.1942,3.4587,3.5128,3.5457,3.546,3.5077,3.4742,3.4887,3.3547,3.258,3.351,3.2726,3.1869,3.1819,3.0586,2.9589,2.9682,2.9312,2.8878,2.8585,2.8543,2.8505,2.8367,2.8268,2.8234,2.837,2.8216,2.8162,2.8362,2.7494,2.671,2.6174,2.5079,2.4188,2.3566,2.3346,2.3575,2.4286,2.4498,2.455,2.447,2.4375,2.3705,2.2569,2.2419,2.2335,2.2276,2.2063,2.1915,2.1825,2.1661,2.1494,2.1342,2.1418,2.1725,2.2179,2.2885,2.3366,2.3658,2.3526,2.2722,2.1799,2.2272,2.1875,2.1405,2.2518,2.2814,2.2725,2.2478,2.1571,2.0912,2.1932,2.1687,2.1282,2.1731,2.2077,2.2217,2.2015,2.1987,2.2053,2.2152,2.2184,2.231,2.2586,2.2746,2.2844,2.2889,2.2814,2.2646,2.237,2.1902,2.1447,2.1033,2.1082,2.1229,2.1496,2.1688,2.1769,2.1722,2.1592,2.1361,2.1006,2.0833,2.0797,2.0797,2.0747,2.0797,2.0921,2.1068,2.1261,2.1484,2.1962,2.2136,3.3826,3.3996,3.398,3.3506,3.3103,3.3132,3.4403,3.4007,3.3494,3.3804,3.207,3.0352,2.9796,2.9818,2.9559,2.8558,2.9361,2.9728,2.8746,2.8662,2.8694,2.8694,2.8009,2.7792,2.8527,2.7876,2.7706,2.8451,2.7625,2.7105,2.7097,2.5382,2.4428,2.4504,2.3583,2.3488,2.4286,2.5029,2.5361,2.5289,2.5411,2.4515,2.2716,2.2569,2.2501,2.2487,2.2366,2.2149,2.1913,2.1969,2.1764,2.1517,2.2642,2.3046,2.309,2.3824,2.3966,2.3792,2.3576,2.2851,2.2087,2.2565,2.2524,2.2439,2.3191,2.3493,2.3424,2.2619,2.2062,2.1764,2.2102,2.1319,2.0754,2.2073,2.2655,2.2867,2.2717,2.2799,2.2822,2.2558,2.2603,2.2694,2.2694,2.2934,2.3061,2.2934,2.3016,2.2971,2.2646,2.2254,2.1722,2.1082,2.1229,2.152,2.1769,2.2044,2.2254,2.2394,2.2278,2.1973,2.1423,2.1544,2.1616,2.1616,2.1471,2.1471,2.1616,2.2056,2.2367,2.2506,2.311,2.3146,3.3486,3.36,3.3542,3.3313,3.3039,3.2947,3.3448,3.3118,3.2596,3.228,3.1713,3.0969,3.002,2.9831,2.9564,2.8734,2.8856,2.8954,2.8705,2.8737,2.8737,2.865,2.8494,2.847,2.8594,2.8432,2.8366,2.8487,2.7715,2.7176,2.7053,2.5545,2.4634,2.4491,2.3725,2.3648,2.4368,2.4584,2.4638,2.4532,2.4611,2.4287,2.3613,2.3033,2.2636,2.2349,2.2265,2.2104,2.1882,2.1811,2.202,2.2358,2.1973,2.2166,2.2733,2.3424,2.3855,2.4056,2.3954,2.3547,2.3055,2.3097,2.2979,2.2913,2.3607,2.3402,2.2841,2.2605,2.1659,2.0951,2.1942,2.1703,2.1453,2.2621,2.2971,2.3009,2.2869,2.2791,2.2787,2.2891,2.2958,2.3031,2.3223,2.3363,2.3443,2.3399,2.3304,2.3031,2.2394,2.2067,2.1712,2.1326,2.135,2.152,2.1769,2.1973,2.2161,2.2394,2.244,2.2324,2.1996,2.1722,2.1626,2.167,2.1476,2.1476,2.167,2.1897,2.2114,2.2285,2.248,2.2442,3.3561,3.3577,3.3477,3.3306,3.3187,3.2991,3.2583,3.2375,3.2054,3.1332,3.1037,3.0616,2.9575,2.9377,2.9239,2.8883,2.8737,2.8724,2.8827,2.8893,2.8893,2.8827,2.8631,2.8453,2.8376,2.8118,2.8022,2.8245,2.7488,2.7212,2.7684,2.6195,2.538,2.5536,2.4462,2.4181,2.4821,2.4552,2.4501,2.4664,2.4496,2.4304,2.4046,2.3228,2.2712,2.2446,2.2279,2.2104,2.1943,2.2141,2.2311,2.2475,2.2469,2.2719,2.3178,2.3796,2.4152,2.4345,2.4457,2.4163,2.3768,2.3866,2.3825,2.3784,2.4194,2.3922,2.3341,2.2767,2.2161,2.178,2.2204,2.233,2.2496,2.3125,2.337,2.3443,2.3347,2.3275,2.3245,2.3363,2.3391,2.3421,2.3589,2.3646,2.3674,2.3674,2.3414,2.3016,2.2472,2.21,2.1769,2.152,2.1544,2.1688,2.202,2.2194,2.2426,2.2737,2.2737,2.2669,2.2555,2.2208,2.203,2.2147,2.1917,2.1917,2.2147,2.2109,2.218,2.237,2.237,2.2301,3.3899,3.3831,3.368,3.3447,3.3415,3.3139,3.1993,3.1794,3.1617,3.0768,3.0283,2.9742,2.8788,2.8754,2.8895,2.8994,2.8905,2.8905,2.9089,2.9123,2.9145,2.92,2.8508,2.8019,2.8013,2.7283,2.7105,2.7856,2.7172,2.7328,2.8718,2.717,2.6507,2.7097,2.5486,2.4875,2.5442,2.4688,2.4601,2.5217,2.4711,2.4337,2.406,2.3302,2.2929,2.2865,2.2468,2.2267,2.2233,2.271,2.2642,2.2348,2.3607,2.408,2.4083,2.464,2.4713,2.4588,2.501,2.4763,2.4304,2.4725,2.4862,2.4862,2.4862,2.4815,2.4445,2.3036,2.3168,2.3512,2.2717,2.306,2.3595,2.3658,2.3861,2.4024,2.4024,2.4003,2.3961,2.3818,2.3818,2.3824,2.3803,2.3818,2.3797,2.3775,2.337,2.2994,2.2717,2.231,2.1949,2.1712,2.1769,2.202,2.2417,2.2618,2.2889,2.3297,2.3083,2.2994,2.3105,2.2775,2.2675,2.2809,2.256,2.256,2.2787,2.256,2.25,2.2615,2.2615,2.2537,3.4062,3.3962,3.3847,3.3486,3.3131,3.288,3.2859,3.177,3.057,2.9891,3.0417,3.0514,2.8979,2.9512,2.9958,2.92,2.9104,2.9152,2.923,2.9291,2.933,2.9291,2.8616,2.8133,2.8074,2.7351,2.7173,2.7919,2.7754,2.7978,2.8838,2.7803,2.7218,2.7259,2.5589,2.4796,2.5022,2.3986,2.3588,0.0,2.3613,2.3439,2.3358,2.3885,2.4173,2.4218,2.3408,2.3313,2.3657,2.2636,2.2882,2.385,2.3536,2.3694,2.4165,2.4795,2.4866,2.4747,2.5362,2.5449,2.529,2.5403,2.5359,2.5282,2.5413,2.4878,2.4068,2.324,2.2988,2.2954,2.2652,2.306,2.3646,2.4184,2.4276,2.4234,2.4166,2.4073,2.3967,2.3836,2.3967,2.4063,2.3839,2.3882,2.3818,2.3473,2.315,2.2881,2.2646,2.244,2.2301,2.2231,2.2254,2.2402,2.2754,2.2926,2.315,2.3444,2.3297,2.3231,2.3268,2.2828,2.2689,2.2861,2.2718,2.2644,2.2704,2.2644,2.2606,2.2615,2.2615,2.2677,3.4441,3.4297,3.4165,3.391,3.3093,3.2508,3.3069,3.1803,3.0417,3.0169,3.0184,2.9983,2.9097,2.9525,2.9853,2.9363,2.9351,2.9414,2.9484,2.9513,2.9541,2.9541,2.883,2.8175,2.7754,2.7315,2.7204,2.7597,2.7912,2.8388,2.906,2.8565,2.8195,2.8027,2.67,2.5799,2.5386,2.4415,2.3732,2.3348,2.3277,2.3592,2.4195,2.4278,2.4263,2.414,2.3648,2.3395,2.3242,2.2538,2.2907,2.3875,2.3502,2.3932,2.4811,2.5046,2.5256,2.5443,2.5713,2.5791,2.5772,2.564,2.564,2.568,2.5661,2.5255,2.4652,2.3923,2.3843,2.3869,2.3406,2.3774,2.4331,2.4588,2.4518,2.4359,2.4271,2.4198,2.4114,2.4006,2.4103,2.4156,2.4024,2.4003,2.3855,2.3451,2.3105,2.2844,2.2678,2.2449,2.2324,2.2394,2.2486,2.2678,2.2957,2.3172,2.3363,2.3538,2.3451,2.3385,2.3385,2.3045,2.2857,2.29,2.2809,2.2772,2.2803,2.2772,2.2735,2.2752,2.3022,2.315,3.4812,3.4716,3.4531,3.442,3.3315,3.2396,3.2956,3.1832,3.0675,3.0668,2.9863,2.92,2.9249,2.9373,2.9492,2.9532,2.9626,2.9692,2.9734,2.9751,2.9779,2.9834,2.9081,2.8215,2.7398,2.7132,2.7016,2.7013,2.7694,2.84,2.9064,2.9118,2.9021,2.8834,2.7894,2.6929,2.6002,2.5129,2.4242,2.3372,2.3454,2.4222,2.5567,2.4832,2.4417,2.4201,2.4081,2.3602,2.2912,2.2889,2.3221,2.3797,2.3839,2.4611,2.5647,2.5497,2.5778,2.6238,2.6061,2.6026,2.6045,2.5824,2.5879,2.6008,2.5848,2.5719,2.5496,2.4691,2.4887,2.5176,2.4302,2.4582,2.5048,2.4862,2.4661,2.4482,2.4359,2.4338,2.4317,2.4229,2.4208,2.4187,2.4166,2.4024,2.3833,2.3509,2.315,2.2867,2.2754,2.2457,2.237,2.2532,2.2686,2.2912,2.3157,2.3385,2.3538,2.361,2.3538,2.3487,2.3466,2.3238,2.3037,2.2888,2.2849,2.2849,2.2888,2.2942,2.2985,2.3053,2.3535,2.375,3.4914,3.4962,3.4765,3.481,3.4004,3.31,3.2684,3.1745,3.0787,3.022,2.9745,2.9453,2.9463,2.9617,2.9754,2.9769,2.9864,2.9956,2.9973,2.9954,2.9965,2.9964,2.9213,2.8324,2.7472,2.6744,2.6306,2.6254,2.693,2.7648,2.8306,2.8878,2.9112,2.8982,2.796,2.706,2.6347,2.5254,2.4354,2.3645,2.4064,2.4998,2.6338,2.6236,2.6387,2.6683,2.5985,2.5583,2.5352,2.4626,2.4705,2.5321,2.5321,2.5747,2.6369,2.6403,2.6436,2.645,2.6433,2.6433,2.6433,2.6398,2.6292,2.6185,2.6207,2.6046,2.5697,2.4962,2.5183,2.5445,2.4565,2.4716,2.5048,2.4862,2.4686,2.4584,2.4498,2.4477,2.4436,2.4317,2.4198,2.4094,2.4046,2.3818,2.3588,2.3363,2.3083,2.2889,2.2889,2.2731,2.2777,2.3127,2.3194,2.3304,2.3508,2.3566,2.3588,2.3595,2.3538,2.3466,2.3319,2.3179,2.3037,2.2888,2.2902,2.2902,2.2888,2.336,2.3596,2.3611,2.3844,2.4233,3.4934,3.4837,3.4577,3.501,3.4454,3.3726,3.3499,3.2706,3.1794,3.0995,3.0308,2.9817,2.9779,2.9855,2.9926,2.995,3.0082,3.0166,3.0169,3.0174,3.0187,3.0226,2.9428,2.8534,2.7649,2.7208,2.6747,2.6199,2.6835,2.7558,2.8222,2.8429,2.8676,2.8987,2.8475,2.7773,2.6909,2.6357,2.5655,2.4765,2.5427,2.601,2.653,2.6962,2.7028,2.6695,2.5858,2.55,2.5431,2.4499,2.4772,2.5816,2.5705,2.6082,2.6725,2.6759,2.6759,2.6708,2.664,2.6606,2.6589,2.652,2.6468,2.6415,2.6329,2.6188,2.5977,2.5579,2.5637,2.5689,2.5211,2.5225,2.5317,2.5029,2.489,2.4806,2.4701,2.458,2.4457,2.4338,2.4261,2.4177,2.4024,2.3903,2.3711,2.3363,2.3194,2.3083,2.2912,2.2912,2.3061,2.3385,2.3451,2.3501,2.3595,2.3674,2.3653,2.3508,2.3523,2.3501,2.3355,2.3253,2.3098,2.2904,2.291,2.3039,2.3354,2.3502,2.3673,2.3868,2.3887,2.4207,3.4986,3.4909,3.4673,3.5194,3.4892,3.4442,3.4253,3.3685,3.2885,3.1796,3.1002,3.0432,3.0171,3.0092,3.0102,3.0202,3.0299,3.0342,3.0352,3.0359,3.0354,3.0396,2.9792,2.9014,2.8146,2.7797,2.7235,2.6327,2.6889,2.7506,2.7979,2.8217,2.8532,2.9021,2.887,2.8324,2.7363,2.7023,2.6573,2.5954,2.6543,2.6855,2.6897,2.747,2.7406,2.6758,2.5868,2.5491,2.5439,2.4654,2.5107,2.6246,2.6106,2.6399,2.6893,2.6926,2.6926,2.6909,2.6808,2.6775,2.6775,2.664,2.6606,2.6589,2.6417,2.6293,2.6187,2.6081,2.6008,2.5934,2.5731,2.5637,2.5562,2.5224,2.5084,2.4946,2.4762,2.462,2.4482,2.4338,2.4302,2.4234,2.4046,2.4113,2.4008,2.3393,2.3445,2.3444,2.3112,2.315,2.3297,2.3553,2.361,2.3653,2.3595,2.3696,2.3674,2.345,2.3551,2.3551,2.3421,2.3348,2.3282,2.3219,2.3165,2.3297,2.3607,2.3625,2.3741,2.3951,2.4064,2.4331,3.5182,3.5457,3.5505,3.5422,3.546,3.5311,3.4477,3.4265,3.3761,3.2116,3.1704,3.1374,3.0611,3.0369,3.0328,3.0458,3.049,3.0486,3.0486,3.0492,3.0462,3.0403,3.0353,2.9979,2.9113,2.821,2.7325,2.6454,2.6956,2.7258,2.7164,2.8477,2.9192,2.9089,2.8893,2.8391,2.7495,2.6483,2.6292,2.6942,2.6917,2.7262,2.7915,2.79,2.7896,2.7865,2.6919,2.6454,2.633,2.6137,2.6454,2.7051,2.6955,2.6925,2.6909,2.6975,2.6991,2.6991,2.6975,2.6975,2.6975,2.6909,2.6809,2.6674,2.652,2.6399,2.6294,2.6221,2.6202,2.6132,2.5934,2.5791,2.5626,2.5355,2.5143,2.4906,2.458,2.4564,2.4528,2.4343,2.4302,2.4234,2.4046,2.4405,2.4417,2.3452,2.3843,2.4058,2.3555,2.3466,2.3575,2.3775,2.3797,2.3739,2.3595,2.3595,2.3595,2.3595,2.3595,2.3566,2.3509,2.3363,2.3525,2.4019,2.3917,2.3673,2.3324,2.3755,2.3909,2.3835,2.46,2.4902,3.4969,3.5151,3.4927,3.5557,3.5266,3.4604,3.377,3.3583,3.3105,3.1386,3.1464,3.1571,3.0788,3.0543,3.0506,3.0554,3.0593,3.0637,3.0637,3.0591,3.0578,3.0591,3.0525,3.0128,2.9247,2.8827,2.8232,2.7368,2.7293,2.7519,2.8039,2.8314,2.8656,2.91,2.8994,2.8694,2.8153,2.7713,2.7544,2.764,2.7658,2.7762,2.7946,2.7986,2.7748,2.7221,2.6928,2.6972,2.7186,2.6435,2.654,2.7166,2.7086,2.7055,2.7039,2.7137,2.7186,2.717,2.704,2.6991,2.6975,2.6825,2.6708,2.6623,2.6589,2.6434,2.6295,2.6277,2.6222,2.6168,2.6008,2.5899,2.5717,2.5282,2.5107,2.497,2.4645,2.4569,2.4569,2.4441,2.4359,2.4276,2.4145,2.4216,2.4096,2.3578,2.3774,2.3827,2.3374,2.3599,2.3855,2.3903,2.3967,2.3931,2.3739,2.3767,2.3687,2.3486,2.3717,2.3775,2.3566,2.3689,2.3807,2.3917,2.4078,2.4288,2.4524,2.4542,2.4615,2.4709,2.4737,2.497,3.4152,3.4356,3.4108,3.4868,3.4554,3.3904,3.3335,3.3214,3.2814,3.1319,3.1495,3.1682,3.0842,3.0671,3.0667,3.0642,3.0697,3.072,3.0704,3.0681,3.0671,3.0704,3.0602,3.0302,2.9723,2.9335,2.8865,2.824,2.7899,0.0,2.8506,2.8474,2.863,2.9037,2.8982,2.8798,2.8492,2.8458,2.8313,2.8095,2.8182,2.8126,2.8003,2.8071,2.7786,2.7248,2.7262,2.7303,2.7312,2.6571,2.6695,2.734,2.7261,2.7214,2.7215,2.7297,2.733,2.7283,2.7154,2.7072,2.7006,2.6842,2.6775,2.6691,2.6623,2.652,2.6399,2.6382,2.6329,2.6257,2.6115,2.5954,2.5733,2.5301,2.5185,2.5088,2.4806,2.465,2.4569,2.4518,2.438,2.4337,2.4456,2.4444,2.4313,2.3986,2.409,2.4014,2.3473,2.3749,2.4003,2.4003,2.4073,2.4109,2.404,2.3994,2.3931,2.3833,2.4003,2.4122,2.4169,2.4322,2.455,2.4876,2.483,2.5031,2.5512,2.5199,2.5096,2.5135,2.5105,2.5459,0.0,0.0,0.0,3.335,3.3375,3.332,3.3182,3.322,3.2986,3.1972,3.1888,3.1738,3.0867,3.0768,3.0784,3.0707,3.0756,3.0789,3.0704,3.0767,3.0764,3.0711,3.0642,3.0595,3.0607,2.9767,2.9182,2.9045,2.8789,2.8585,2.8452,2.8986,2.9206,2.9017,2.8888,2.8712,2.8505,2.8505,2.8427,2.8313,2.8367,2.8345,2.8196,2.814,2.8112,2.8099,2.8025,2.7533,2.6732,2.6662,2.7011,2.7587,2.7526,2.7467,2.7392,2.7392,2.7345,2.7282,2.7299,2.7201,2.7086,2.7024,2.6959,2.6876,2.6691,2.6623,2.6605,2.6553,2.6536,2.6484,2.6256,2.5954,2.5663,2.5454,2.5355,2.5256,2.506,2.4806,2.4605,2.4534,2.441,2.4485,2.4928,2.5166,2.5129,2.4687,2.4821,2.4711,2.3915,2.3925,2.4003,2.4003,2.4124,2.428,2.4488,2.4286,2.4291,2.4683,2.4467,2.46,2.5253,2.5253,2.5764,2.6905,2.6181,2.5899,2.61,2.5636,2.5291,2.5047,2.58,2.6404,3.2423,0.0,0.0,0.0,0.0,0.0,3.2346,3.2355,3.2122,3.1257,3.1561,3.1758,3.0926,3.0783,3.0784,3.0704,3.0759,3.0786,3.0778,3.076,3.0739,3.0761,3.0717,3.0645,3.0589,3.0313,3.0113,0.0,2.9796,2.9588,2.9501,2.9363,2.9249,2.9145,2.901,2.8858,2.8724,2.8675,2.8569,2.8458,2.851,2.8471,2.8358,2.838,2.8313,2.8168,2.8154,2.7974,2.7709,2.7533,2.7496,2.7526,2.7557,2.7498,2.7392,2.7294,2.7198,2.7136,2.704,2.7024,2.699,2.6842,2.6842,2.6978,2.735,2.7415,2.7397,2.7379,2.7326,2.7137,2.6406,2.6025,2.5789,2.56,2.5429,2.5256,2.5107,2.497,2.4948,2.5175,2.512,2.5124,2.5447,2.5398,2.5176,2.4808,2.4689,2.4518,2.4209,2.4287,2.4312,2.4166,2.439,2.4493,2.4369,2.4559,2.4641,2.4549,2.4625,2.4708,2.4792,2.5299,2.5496,2.5342,2.575,2.6008,2.6169,2.599,2.5839,2.5662,2.666,2.7312,3.1295,3.1379,3.1228,3.1942,0.0,0.0,3.1467,3.1482,3.1367,3.0852,3.1147,3.1366,3.0898,3.0793,3.0792,3.0744,3.0804,3.081,3.0765,3.072,3.0703,3.0758,3.0713,3.0673,3.0606,3.054,3.0471,3.0417,3.0161,2.9918,2.9741,2.9475,2.932,2.9251,2.9163,2.901,2.8791,2.8822,2.8737,2.8531,2.8637,2.86,2.8445,2.851,2.8432,2.825,2.8304,2.8264,2.8126,2.8035,2.7893,2.7707,2.7659,2.7557,2.7421,2.7326,2.7214,2.7086,2.6975,2.6975,2.6975,2.6859,2.6892,2.6994,2.7335,2.757,2.7736,2.7736,2.7683,2.7425,2.6476,2.6152,2.6026,2.5807,2.5677,2.5565,2.5381,2.5509,2.5688,2.5785,2.5488,2.5431,2.6103,2.5654,2.5196,2.5102,2.4781,2.4487,2.4318,2.4426,2.4457,2.4348,2.4518,2.4645,2.465,2.4826,2.4902,2.4842,2.489,2.5102,2.5498,2.5909,2.613,2.6152,2.6381,2.6569,2.6714,2.644,2.6471,2.6788,2.7525,2.8002,2.9874,3.0126,3.0314,3.0447,3.0517,0.0,3.0675,3.0664,3.067,3.0694,3.0742,3.0785,3.0804,3.0795,3.0781,3.08,3.084,3.0845,3.0716,3.072,3.0717,3.0694,3.0692,3.0669,3.0606,3.0535,3.0444,3.0316,3.0095,2.9834,2.9531,2.9453,2.939,2.9304,2.9294,2.9156,2.8863,2.8952,2.8881,2.8662,2.8761,2.8724,2.8562,2.86,2.8523,2.834,2.8471,2.8406,2.8223,2.8259,2.8164,2.7968,2.7806,2.7644,2.7496,2.7419,2.7279,2.7086,2.7007,2.6991,2.6991,2.6975,2.6991,2.7025,2.713,2.7538,2.7978,2.7978,2.7857,2.7515,2.6602,2.6348,2.6278,2.6082,2.6028,2.5939,2.5775,2.6216,2.66,2.6475,2.5839,2.5687,2.6793,2.5991,2.529,2.5488,2.5035,2.4609,2.4405,2.4503,2.458,2.4518,2.4605,2.4771,2.5068,2.5048,2.5103,2.5294,2.5226,2.5634,2.6653,2.6714,2.7126,2.7941,2.7437,2.7287,2.7427,2.6964,2.72,2.8107,2.835,2.8566,2.9607,2.9943,3.0183,3.037,2.9989,0.0,3.0533,3.017,2.9869,3.0557,3.0702,3.0742,3.0792,3.0756,3.0723,3.072,3.0723,3.0732,3.0691,3.0754,3.0742,3.0641,3.0626,3.0606,3.0604,3.0496,3.0386,3.031,3.0004,2.9799,2.9664,2.955,2.9443,2.9372,2.9341,2.9267,2.9207,2.913,2.9044,2.8998,2.8917,2.887,2.8815,2.8773,2.8675,2.8549,2.8574,2.8497,2.8358,2.8264,2.814,2.8,2.7954,2.7795,2.7572,2.745,2.7231,2.7007,2.6925,2.6942,2.6975,2.6942,2.699,2.7293,2.8408,2.8904,2.9076,2.9076,2.8527,2.7759,2.6979,2.6657,2.6487,2.6349,2.6124,2.5914,2.5939,2.6468,2.7114,2.783,2.7417,2.705,2.7326,2.6646,2.5963,2.5625,2.5394,2.5146,2.4906,2.5025,2.5005,2.4625,2.4831,2.5009,2.5025,2.5158,2.5256,2.5294,2.5543,2.5764,2.5989,2.6648,2.6818,2.6365,2.6916,2.7365,2.7711,2.7558,2.7922,2.8716,2.8764,2.8873,2.8711,2.9059,2.9246,2.9051,2.8799,0.0,0.0,2.9128,2.8817,2.8844,2.9164,2.9468,2.9539,2.9491,2.9592,3.0038,2.9759,2.9629,2.9999,3.0436,3.0675,3.0606,3.0567,3.0554,3.0597,3.051,3.0383,3.0215,2.9988,2.9809,2.9711,2.9636,2.956,2.9453,2.9453,2.9402,2.9289,2.9222,2.9175,2.9089,2.8964,2.8905,2.8905,2.887,2.8798,2.87,2.87,2.8625,2.8484,2.8393,2.8273,2.8136,2.8042,2.7882,2.7689,2.7585,2.7417,2.7231,2.7168,2.7135,2.7116,2.7136,2.7559,2.8139,2.8664,2.9299,2.9813,2.9365,2.8954,2.8424,2.7641,2.7097,2.6826,2.713,2.7126,2.7118,2.7348,2.7879,2.8405,2.8791,2.8285,2.7822,2.7923,2.6948,2.6027,2.5667,2.5413,2.5204,2.5068,2.5382,2.5568,2.5456,2.5844,2.6127,2.6172,2.6233,2.6233,2.6152,2.632,2.6459,2.6645,2.7018,2.7162,2.7044,2.7767,2.8241,2.8448,2.8636,2.8856,2.9106,2.9236,2.9328,2.7701,2.8007,2.8177,2.7733,2.7627,2.7729,0.0,0.0,0.0,2.7333,2.7748,2.8194,2.8248,2.8355,2.8617,2.9156,2.8855,2.8726,2.9326,2.9954,3.0428,3.0591,3.0564,3.0554,3.0588,3.0514,3.0379,3.0138,2.9999,2.9935,2.9991,2.9813,2.972,2.9784,2.9813,2.9745,2.9576,2.9538,2.947,2.9351,2.9049,2.8917,2.894,2.8929,2.8893,2.8852,2.8822,2.8737,2.8587,2.8536,2.8432,2.83,2.8109,2.7968,2.7832,2.7745,2.763,2.7529,2.7575,2.7528,2.7478,2.7752,2.851,2.9288,2.8951,2.9713,3.0515,2.969,2.9486,2.9298,2.8425,2.7794,2.7555,2.8237,2.849,2.8604,2.8782,2.9298,2.9686,2.9463,2.8771,2.8256,2.8334,2.7054,2.5919,2.568,2.5548,2.5435,2.5392,2.5909,2.6338,2.651,2.6909,2.7254,2.7427,2.729,2.7164,2.7094,2.7097,2.7274,2.7565,2.7574,2.7843,2.8398,2.8881,2.9182,2.9273,2.9677,2.97,2.9403,2.9643,2.9748,2.7046,2.7317,2.7547,2.7654,2.718,2.6921,2.7967,0.0,2.7237,2.7926,0.0,2.8118,2.8116,0.0,0.0,2.8447,2.8923,2.9369,2.9401,2.9478,2.9811,3.0525,3.0645,3.0637,3.0511,3.0411,3.0299,3.0192,3.0068,3.0289,3.0989,3.0176,3.0048,3.08,3.0723,3.0625,3.0536,3.0364,3.0272,3.0242,2.9329,2.8964,2.9085,2.9028,2.8982,2.8964,2.8917,2.8785,2.8587,2.8536,2.8458,2.8367,2.8237,2.8126,2.8042,2.7789,2.7659,2.7659,2.8198,2.8376,2.848,2.9191,2.997,3.0595,3.0543,3.1097,3.1599,3.089,3.0647,3.0352,2.9179,2.9042,2.9334,2.9764,2.9884,2.9691,2.8952,2.9551,3.0142,2.9875,2.901,2.8279,2.8237,2.6998,2.5972,2.5881,2.6349,2.6607,2.6366,2.713,2.7567,2.7309,2.7446,2.7552,2.7573,2.7348,2.7248,2.7364,2.7532,2.7693,2.7861,2.8311,2.874,2.9167,2.9243,2.947,2.9908,3.0081,3.0,2.9744,2.9908,2.9968,2.6645,2.6488,2.6224,2.6159,0.0,0.0,2.6549,0.0,2.6129,2.6022,0.0,0.0,0.0,0.0,0.0,0.0,2.7358,2.7627,2.8574,2.8741,2.9223,3.0447,3.0591,0.0,3.1108,3.0666,3.051,3.0861,3.0445,3.0475,3.1164,3.0801,3.092,3.1666,3.1147,3.0899,3.0988,3.0219,2.9779,2.9713,2.9237,2.9067,2.9145,2.9051,2.9028,2.9051,2.8905,2.8798,2.87,2.8556,2.8458,2.838,2.8304,2.8232,2.8191,2.8053,2.7925,2.793,2.8612,2.9279,2.9978,3.0865,3.1027,3.0855,3.0803,3.1323,3.1756,3.1029,3.0733,3.0525,3.0145,2.9782,2.9644,3.0211,3.0548,3.0602,3.007,3.0262,3.0349,2.9732,2.8954,2.8434,2.8489,2.7274,2.6391,2.6715,2.6879,2.7052,2.7263,2.7883,2.8278,2.8215,2.8512,2.8731,2.8796,2.8562,2.8408,2.8402,2.7962,2.7809,2.8012,2.8302,2.8792,2.9454,2.9694,2.993,3.0119,3.0359,3.0426,3.0305,3.038,3.0401,2.6095,0.0,0.0,0.0,0.0,0.0,0.0,0.0,0.0,0.0,2.4942,0.0,0.0,0.0,2.5738,2.6147,0.0,2.6474,2.7694,2.8081,2.884,3.0447,3.0548,0.0,0.0,3.0731,3.058,3.1047,3.0598,3.0562,3.1197,3.1202,3.153,3.2213,3.159,3.1285,3.1429,3.0493,2.9877,2.955,2.9477,2.9344,2.9189,2.9119,2.9085,2.9055,2.8917,2.881,2.8724,2.8574,2.8458,2.838,2.8327,2.8286,2.8259,2.8182,2.8209,2.8439,2.913,3.0187,3.1335,3.1982,3.1777,3.1237,3.115,3.1531,3.1844,3.1324,3.1011,3.0942,3.1116,3.0647,3.0229,3.0601,3.0982,3.1147,3.0885,3.0757,3.0475,2.9706,2.916,2.882,2.8787,2.766,2.695,2.7592,2.7649,2.7765,2.8152,2.8491,2.8812,2.9086,2.9236,2.9444,2.9726,2.9371,2.8984,2.8636,2.8207,2.8056,2.8293,2.86,2.909,2.9766,3.0124,3.0274,3.0274,3.0651,3.0834,3.0834,3.0834,3.0834,0.0,0.0,0.0,2.4709,0.0,0.0,0.0,0.0,2.457,0.0,0.0,0.0,2.4335,2.5027,2.535,2.4606,2.5877,0.0,0.0,2.7642,2.8743,3.0486,3.0524,3.0406,0.0,3.0423,3.0362,3.0252,3.0286,3.0583,3.1259,3.1235,3.1539,3.227,3.2135,3.2033,3.1976,3.1745,3.1239,3.0469,3.0319,2.989,2.92,2.9262,2.9193,2.9005,2.8994,2.8846,2.86,2.8536,2.8458,2.838,2.8327,2.8246,2.8182,2.8056,2.8489,2.9252,2.9869,3.1072,3.2335,3.2232,3.2179,3.2126,3.2001,3.2019,3.2091,3.2057,3.1951,3.1896,3.2022,3.1897,3.164,3.1268,3.1244,3.1218,3.0955,3.0794,3.0536,2.9981,2.9774,2.952,2.9056,2.808,2.759,2.8262,2.8854,2.9153,2.8979,2.899,2.9209,2.9805,2.9227,2.9097,2.9832,2.9119,2.8298,2.7497,2.8142,2.864,2.8768,2.954,3.0022,3.0167,3.038,3.0506,3.0489,3.0955,3.1171,3.1171,3.1171,3.1171,0.0,0.0,2.407,2.4337,0.0,0.0,0.0,0.0,0.0,0.0,0.0,0.0,0.0,2.5392,2.5502,2.5245,2.5683,2.6263,0.0,2.7493,2.8353,2.9385,3.0034,3.059,3.1085,3.0644,3.0548,3.1024,3.054,3.0529,3.1206,3.1168,3.1722,3.2982,3.2381,3.2193,3.2527,3.2017,3.1463,3.0835,3.1041,3.0489,2.928,2.9802,2.9934,2.9757,2.919,2.9101,2.9337,2.8701,2.8393,2.8327,2.8264,2.8196,2.8198,2.8728,2.8982,2.9241,3.0418,3.151,3.2371,3.2196,3.2161,3.2161,3.1983,3.2037,3.2179,3.2161,3.2109,3.2039,3.2039,3.1846,3.1609,3.1449,3.131,3.1173,3.0995,3.0589,3.0039,2.9374,2.9314,2.9321,2.9155,2.9161,2.9187,2.919,2.9284,2.9432,2.9631,2.9653,2.955,2.92,2.8957,2.8735,2.8586,2.8223,2.7897,2.7614,2.7803,2.8267,2.8976,2.9263,2.9723,3.0384,3.0464,3.0531,3.063,3.0915,3.1112,3.121,3.1387,3.1426,2.5689,2.4765,0.0,2.4063,2.4051,0.0,2.4733,0.0,2.4753,0.0,0.0,0.0,0.0,2.4975,2.4993,2.5023,2.5254,2.5702,0.0,2.7195,2.7812,2.8345,2.9282,3.0177,3.0906,3.0519,3.0423,3.0935,3.045,3.0308,3.0722,3.1248,3.1968,3.2902,3.2609,3.259,3.2937,3.2478,3.1946,3.1328,3.1747,3.1152,2.9695,2.9846,2.9988,3.0082,2.9229,2.9186,2.9651,2.8756,2.8358,2.8282,2.8544,2.8596,2.8593,2.9151,2.9568,2.999,3.121,3.1967,3.2388,3.2249,3.2232,3.2249,3.2125,3.2126,3.2214,3.2247,3.2143,3.2004,3.1952,3.1811,3.1626,3.1466,3.1366,3.1201,3.0796,3.0376,2.9858,2.915,2.9362,2.9657,2.9621,3.0141,3.0441,3.0148,2.9956,2.9918,3.0118,2.9896,2.9531,2.8986,2.8672,2.8253,2.7597,2.77,2.7692,2.7469,2.7879,2.8469,2.9218,2.9461,2.9869,3.0551,3.063,3.0692,3.0773,3.1075,3.1252,3.1308,3.1579,3.1671]}]]